[[{"header":{"parameterUnit":"m.s-1","parameterCategory":1,"la1":30.6,"la2":29.2853,"lo1":-89.7004,"lo2":-87.6739,"dy":0.0162,"dx":0.0183,"nx":112,"ny":82,"refTime":"2024-07-24T12:00:00:Z","depth":0,"parameterNumber":2,"parameterNumberName":"U-component_of_WINDS"},"data":[0.0,0.0,0.0,0.0,0.0,0.0,0.0,0.0,0.0,0.0,0.0,0.0,0.0,0.0,0.0,0.0,0.0,0.0,0.0,0.0,0.0,0.0,0.0,0.0,0.0,0.0,0.0,0.0,0.0,0.0,0.0,0.0,0.0,0.0,0.0,0.0,0.0,0.0,0.0,0.0,0.0,0.0,0.0,0.0,0.0,0.0,0.0,0.0,0.0,0.0,0.0,0.0,0.0,0.0,0.0,0.0,0.0,0.0,0.0,0.0,0.0,0.0,0.0,0.0,0.0,0.0,0.0,0.0,0.0,0.0,0.0,0.0,0.0,0.0,0.0,0.0,0.0,0.0,0.0,0.0,0.0,0.0,0.0,0.0,0.0,0.0,0.0,0.0,0.0,0.0,1.0966,1.2582,1.4319,1.5257,1.5022,1.4648,1.3421,1.1091,0.0,0.0,0.0,0.0,0.0,0.0,0.0,0.0,0.0,0.0,0.0,0.0,0.0,0.0,0.0,0.0,0.0,0.0,0.0,0.0,0.0,0.0,0.0,0.0,0.0,0.0,0.0,0.0,0.0,0.0,0.0,0.0,0.0,0.0,0.0,0.0,0.0,0.0,0.0,0.0,0.0,0.0,0.0,0.0,0.0,0.0,0.0,0.0,0.0,0.0,0.0,0.0,0.0,0.0,0.0,0.0,0.0,0.0,0.0,0.0,0.0,0.0,0.0,0.0,0.0,0.0,0.0,0.0,0.0,0.0,0.0,0.0,0.0,0.0,0.0,0.0,0.0,0.0,0.0,0.0,0.0,0.0,0.0,0.0,0.0,0.0,0.0,0.0,0.0,0.0,0.0,0.0,0.0,0.0,0.0,0.0,0.0,0.0,0.0,0.0,0.0,0.0,0.0,0.0,1.1538,1.4078,1.5318,1.5933,1.5921,1.4969,1.3586,1.1688,0.0,0.0,0.0,0.0,0.0,0.0,0.0,0.0,0.0,0.0,0.0,0.0,0.0,0.0,0.0,0.0,0.0,0.0,0.0,0.0,0.0,0.0,0.0,0.0,0.0,0.0,0.0,0.0,0.0,0.0,0.0,0.0,0.0,0.0,0.0,0.0,0.0,0.0,0.0,0.0,0.0,0.0,0.0,0.0,0.0,0.0,0.0,0.0,0.0,0.0,0.0,0.0,0.0,0.0,0.0,0.0,0.0,0.0,0.0,0.0,0.0,0.0,0.0,0.0,0.0,0.0,0.0,0.0,0.0,0.0,0.0,0.0,0.0,0.0,0.0,0.0,0.0,0.0,0.0,0.0,0.0,0.0,0.0,0.0,0.0,0.0,0.0,0.0,0.0,0.0,0.0,0.0,0.0,0.0,0.0,0.0,0.0,0.0,0.0,0.0,0.0,0.0,0.0,1.1926,1.3174,1.4653,1.5878,1.6549,1.6389,1.5303,1.3863,1.207,1.1156,0.0,0.0,0.0,0.0,0.0,0.0,0.0,0.0,0.0,0.0,0.0,0.0,0.0,0.0,0.0,0.0,0.0,0.0,0.0,0.0,0.0,0.0,0.0,0.0,0.0,0.0,0.0,0.0,0.0,0.0,0.0,0.0,0.0,0.0,0.0,0.0,0.0,0.0,0.0,0.0,0.0,0.0,0.0,0.0,0.0,0.0,0.0,0.0,0.0,0.0,0.0,0.0,0.0,0.0,0.0,0.0,0.0,0.0,0.0,0.0,0.0,0.0,0.0,0.0,0.0,0.0,0.0,0.0,0.0,0.0,0.0,0.0,0.0,0.0,0.0,0.0,0.0,0.0,0.0,0.0,0.0,0.0,0.0,0.0,0.0,0.0,0.0,0.0,0.0,0.0,0.0,0.0,0.0,0.0,0.0,0.0,0.0,0.0,0.0,0.0,0.0,0.0,1.3394,1.4749,1.4988,1.6308,1.706,1.6815,1.548,1.3992,1.2406,1.1281,0.0,0.0,0.0,0.0,0.0,0.0,0.0,0.0,0.0,0.0,0.0,0.0,0.0,0.0,0.0,0.0,0.0,0.0,0.0,0.0,0.0,0.0,0.0,0.0,0.0,0.0,0.0,0.0,0.0,0.0,0.0,0.0,0.0,0.0,0.0,0.0,0.0,0.0,0.0,0.0,0.0,0.0,0.0,0.0,0.0,0.0,0.0,0.0,0.0,0.0,0.0,0.0,0.0,0.0,0.0,0.0,0.0,0.0,0.0,0.0,0.0,0.0,0.0,0.0,0.0,0.0,0.0,0.0,0.0,0.0,0.0,0.0,0.0,0.0,0.0,0.0,0.0,0.0,0.0,0.0,0.0,0.0,0.0,0.0,0.0,0.0,0.0,0.0,0.0,0.0,0.0,0.0,0.0,0.0,0.0,0.0,0.0,0.0,0.0,0.0,0.0,0.0,1.3803,1.5627,1.5389,1.6745,1.7551,1.7361,1.5479,1.3832,1.2648,1.0992,0.0,0.0,0.0,0.0,0.0,0.0,0.0,0.0,0.0,0.0,0.0,0.0,0.0,0.0,0.0,0.0,0.0,0.0,0.0,0.0,0.0,0.0,0.0,0.0,0.0,0.0,0.0,0.0,0.0,0.0,0.0,0.0,0.0,0.0,0.0,0.0,0.0,0.0,0.0,0.0,0.0,0.0,0.0,0.0,0.0,0.0,0.0,0.0,0.0,0.0,0.0,0.0,0.0,0.0,0.0,0.0,0.0,0.0,0.0,0.0,0.0,0.0,0.0,0.0,0.0,0.0,0.0,0.0,0.0,0.0,0.0,0.0,0.0,0.0,0.0,0.0,0.0,0.0,0.0,0.0,0.0,0.0,0.0,0.0,0.0,0.0,0.0,0.0,0.0,0.0,0.0,0.0,0.0,0.0,0.0,0.0,0.0,0.0,0.0,0.0,0.0,0.0,1.3648,1.5384,1.5564,1.6847,1.762,1.7408,1.6119,1.4565,1.2832,0.0,0.0,0.0,0.0,0.0,0.0,0.0,0.0,0.0,0.0,0.0,0.0,0.0,0.0,0.0,0.0,0.0,0.0,0.0,0.0,0.0,0.0,0.0,0.0,0.0,0.0,0.0,0.0,0.0,0.0,0.0,0.0,0.0,0.0,0.0,0.0,0.0,0.0,0.0,0.0,0.0,0.0,0.0,0.0,0.0,0.0,0.0,0.0,0.0,0.0,0.0,0.0,0.0,0.0,0.0,0.0,0.0,0.0,0.0,0.0,0.0,0.0,0.0,0.0,0.0,0.0,0.0,0.0,0.0,0.0,0.0,0.0,0.0,0.0,0.0,0.0,0.0,0.0,0.0,0.0,0.0,0.0,0.0,0.0,0.0,0.0,0.0,0.0,0.0,0.0,0.0,0.0,0.0,0.0,0.0,0.0,0.0,0.0,0.0,0.0,0.0,0.0,1.1571,1.3835,1.5504,1.5737,1.7089,1.7859,1.7647,1.6326,1.4813,1.3133,0.0,0.0,0.0,0.0,0.0,0.0,0.0,0.0,0.0,0.0,0.0,0.0,0.0,0.0,0.0,0.0,0.0,0.0,0.0,0.0,0.0,0.0,0.0,0.0,0.0,0.0,0.0,0.0,0.0,0.0,0.0,0.0,0.0,0.0,0.0,0.0,0.0,0.0,0.0,0.0,0.0,0.0,0.0,0.0,0.0,0.0,0.0,0.0,0.0,0.0,0.0,0.0,0.0,0.0,0.0,0.0,0.0,0.0,0.0,0.0,0.0,0.0,0.0,0.0,0.0,0.0,0.0,0.0,0.0,0.0,0.0,0.0,0.0,0.0,0.0,0.0,0.0,0.0,0.0,0.0,0.0,0.0,0.0,0.0,0.0,0.0,0.0,0.0,0.0,0.0,0.0,0.0,0.0,0.0,0.0,0.0,0.0,0.0,0.0,0.0,0.0,0.0,1.1895,1.447,1.6201,1.5939,1.7479,1.8388,1.8111,1.6019,1.4366,0.0,0.0,0.0,0.0,0.0,0.0,0.0,0.0,0.0,0.0,0.0,0.0,0.0,0.0,0.0,0.0,0.0,0.0,0.0,0.0,0.0,0.0,0.0,0.0,0.0,0.0,0.0,0.0,0.0,0.0,0.0,0.0,0.0,0.0,0.0,0.0,0.0,0.0,0.0,0.0,0.0,0.0,0.0,0.0,0.0,0.0,0.0,0.0,0.0,0.0,0.0,0.0,0.0,0.0,0.0,0.0,0.0,0.0,0.0,0.0,0.0,0.0,0.0,0.0,0.0,0.0,0.0,0.0,0.0,0.0,0.0,0.0,0.0,0.0,0.0,0.0,0.0,0.0,0.0,0.0,0.0,0.0,0.0,0.0,0.0,0.0,0.0,0.0,0.0,0.0,0.0,0.0,0.0,0.0,0.0,0.0,0.0,0.0,0.0,0.0,0.0,0.0,0.0,1.2651,1.4908,1.6597,1.6994,1.8038,1.8545,1.8132,1.6617,1.5038,1.353,0.0,0.0,0.0,0.0,0.0,0.0,0.0,0.0,0.0,0.0,0.0,0.0,0.0,0.0,0.0,0.0,0.0,0.0,0.0,0.0,0.0,0.0,0.0,0.0,0.0,0.0,0.0,0.0,0.0,0.0,0.0,0.0,0.0,0.0,0.0,0.0,0.0,0.0,0.0,0.0,0.0,0.0,0.0,0.0,0.0,0.0,0.0,0.0,0.0,0.0,0.0,0.0,0.0,0.0,0.0,0.0,0.0,0.0,0.0,0.0,0.0,0.0,0.0,0.0,0.0,0.0,0.0,0.0,0.0,0.0,0.0,0.0,0.0,0.0,0.0,0.0,0.0,0.0,0.0,0.0,0.0,0.0,0.0,0.0,0.0,0.0,0.0,0.0,0.0,0.0,0.0,0.0,0.0,0.0,0.0,0.0,0.0,0.0,0.0,0.0,0.0,0.0,1.3131,1.5184,1.6843,1.7619,1.8394,1.8735,1.8438,1.7082,1.55,1.3835,0.0,0.0,0.0,0.0,0.0,0.0,0.0,0.0,0.0,0.0,0.0,0.0,0.0,0.0,0.0,0.0,0.0,0.0,0.0,0.0,0.0,0.0,0.0,0.0,0.0,0.0,0.0,0.0,0.0,0.0,0.0,0.0,0.0,0.0,0.0,0.0,0.0,0.0,0.0,0.0,0.0,0.0,0.0,0.0,0.0,0.0,0.0,0.0,0.0,0.0,0.0,0.0,0.0,0.0,0.0,0.0,0.0,0.0,0.0,0.0,0.0,0.0,0.0,0.0,0.0,0.0,0.0,0.0,0.0,0.0,0.0,0.0,0.0,0.0,0.0,0.0,0.0,0.0,0.0,0.0,0.0,0.0,0.0,0.0,0.0,0.0,0.0,0.0,0.0,0.0,0.0,0.0,0.0,0.0,0.0,0.0,0.0,0.0,0.0,0.0,0.0,0.0,1.3486,1.5411,1.7034,1.8049,1.8624,1.8943,1.8927,1.7423,1.5851,1.4396,0.0,0.0,0.0,0.0,0.0,0.0,0.0,0.0,0.0,0.0,0.0,0.0,0.0,0.0,0.0,0.0,0.0,0.0,0.0,0.0,0.0,0.0,0.0,0.0,0.0,0.0,0.0,0.0,0.0,0.0,0.0,0.0,0.0,0.0,0.0,0.0,0.0,0.0,0.0,0.0,0.0,0.0,0.0,0.0,0.0,0.0,0.0,0.0,0.0,0.0,0.0,0.0,0.0,0.0,0.0,0.0,0.0,0.0,0.0,0.0,0.2768,0.428,0.0,0.0,0.0,0.0,0.0,0.0,0.0,0.0,0.0,0.0,0.0,0.0,0.0,0.0,0.0,0.0,0.0,0.0,0.0,0.0,0.0,0.0,0.0,0.0,0.0,0.0,0.0,0.0,0.0,0.0,0.0,0.0,0.0,0.0,0.0,0.0,0.0,0.0,0.0,0.0,1.4478,1.6026,1.7597,1.9165,1.9317,1.9237,1.9075,1.7713,1.6378,1.522,1.3134,0.0,0.0,0.0,0.0,0.0,0.0,0.0,0.0,0.0,0.0,0.0,0.0,0.0,0.0,0.0,0.0,0.0,0.0,0.0,0.0,0.0,0.0,0.0,0.0,0.0,0.0,0.0,0.0,0.0,0.0,0.0,0.0,0.0,0.0,0.0,0.0,0.0,0.0,0.0,0.0,0.0,0.0,0.0,0.0,0.0,0.0,0.0,0.0,0.0,0.0,0.0,0.0,0.0,0.0,0.0,0.0,0.0,0.0,0.0,0.0687,0.2093,0.0,0.0,0.0,0.0,0.0,0.0,0.0,0.0,0.0,0.0,0.0,0.0,0.0,0.0,0.0,0.0,0.0,0.0,0.0,0.0,0.0,0.0,0.0,0.0,0.0,0.0,0.0,0.0,0.0,0.0,0.0,0.0,0.0,0.0,0.0,0.0,0.0,0.0,0.0,0.0,1.4813,1.6355,1.7955,1.9657,1.9751,1.9619,1.9439,1.8005,1.6706,1.5792,1.3774,0.0,0.0,0.0,0.0,0.0,0.0,0.0,0.0,0.0,0.0,0.0,0.0,0.0,0.0,0.0,0.0,0.0,0.0,0.0,0.0,0.0,0.0,0.0,0.0,0.0,0.0,0.0,0.0,0.0,0.0,0.0,0.0,0.0,0.0,0.0,0.0,0.0,0.0,0.0,0.0,0.0,0.0,0.0,0.0,0.0,0.0,0.0,0.0,0.0,0.0,0.0,0.0,0.0,-0.1922,-0.2455,-0.31,-0.3342,-0.3879,-0.454,-0.2037,-0.0942,-0.0706,0.1415,0.0,0.0,0.0,0.0,0.0,0.0,0.0,0.0,0.0,0.0,0.0,0.0,0.0,0.0,0.0,0.0,0.0,0.0,0.0,0.0,0.0,0.0,0.6091,0.3928,0.3081,0.2935,0.3434,0.0,0.0,0.0,0.0,0.0,0.0,0.0,0.0,0.0,0.0,0.0,1.4398,1.6435,1.8357,1.9884,2.0036,1.9969,1.9862,1.8399,1.7213,1.663,1.471,1.2704,0.0,0.0,0.0,0.0,0.0,0.0,0.0,0.0,0.0,0.0,0.0,0.0,0.0,0.0,0.0,0.0,0.0,0.0,0.0,0.0,0.0,0.0,0.0,0.0,0.0,0.0,0.0,0.0,0.0,0.0,0.0,0.0,0.0374,0.0232,0.0,0.0,0.0,0.0,0.0,0.0,0.0,0.0,0.0,0.0,0.0,0.0,0.0,-0.1577,-0.1945,-0.3072,-0.4115,-0.5065,-0.6013,-0.6787,-0.7399,-0.7535,-0.7704,-0.7798,-0.7404,0.0,-0.2715,-0.2373,0.0,0.0,0.0,0.0,0.0,0.0,0.0,0.0,0.0,0.0,0.0,0.0,0.0,0.0,0.0,0.0,0.0,0.0,0.0,0.0,0.0,0.0,0.2443,0.0987,0.0671,0.053,-0.0042,0.2166,0.4233,0.398,0.5661,0.8057,0.0,0.0,0.0,0.0,0.0,0.0,1.2461,1.6174,1.9237,2.0161,2.0169,2.0088,2.0058,1.9162,1.8569,1.8532,1.6162,1.4616,1.4235,1.2063,0.0,0.0,0.0,0.0,0.0,0.0,0.0,0.0,0.0,0.0,0.0,0.0,0.0,0.0,0.0,0.0,0.0,0.0,0.0,0.0,0.0,0.0,0.0,0.0,0.0,0.0,0.0,0.0,0.0,-0.0221,-0.0496,-0.0236,0.0075,0.0183,0.0,0.0,0.0,0.0,0.0,0.0,0.0,0.0,0.0,-0.4078,-0.438,-0.4729,-0.5155,-0.6004,-0.6994,-0.8067,-0.8529,-0.9262,-1.0205,-1.0301,-1.0245,-1.0188,-1.022,-0.9244,-0.7543,-0.5603,-0.381,-0.2238,0.0,0.0,0.0,0.0,0.0452,0.0793,0.004,-0.0198,-0.0155,-0.0347,0.0,0.0,0.0,0.0,0.0,0.0,0.0,0.1398,0.0376,0.0313,-0.0047,-0.2269,-0.2759,-0.279,-0.323,-0.1559,0.0439,0.1721,0.3392,0.5633,0.8977,0.7657,0.0,0.0,0.0,1.1848,1.154,1.5747,1.9111,2.0039,2.0113,2.0121,2.0203,1.9418,1.8946,1.9003,1.7433,1.6065,1.5049,1.3878,1.2376,0.0,0.0,0.0,0.0,0.0,0.0,0.0,0.0,0.0,0.0,0.0,0.0,0.0,0.0,0.0,0.0,0.0,0.0,0.0,0.0,0.0,0.0,0.0,0.0,0.0,0.0,0.0,0.0,-0.1032,-0.1402,-0.0953,-0.1072,-0.1231,0.0,0.0,0.0,0.0,0.0,0.0,-0.5287,-0.5137,-0.5595,-0.6861,-0.7157,-0.7439,-0.774,-0.845,-0.9285,-1.0262,-1.0473,-1.1177,-1.2159,-1.2209,-1.215,-1.2083,-1.2083,-1.1946,-1.1463,-0.8476,-0.7146,-0.6937,-0.6085,-0.5423,-0.4862,-0.4132,-0.3429,-0.2934,-0.3158,-0.3075,-0.2909,-0.3131,-0.2413,-0.1353,-0.1105,0.0,0.0,0.0,0.0,-0.1211,-0.1952,-0.2194,-0.2723,-0.4847,-0.5305,-0.5283,-0.5281,-0.4248,-0.2673,-0.0673,0.0477,0.2074,0.5038,0.3429,0.0,0.5121,0.7245,0.8889,0.9776,1.4108,1.7775,1.9577,1.9951,2.0106,2.0194,1.9647,1.9329,1.9383,1.8554,1.7487,1.6177,1.5459,1.4169,1.216,0.0,0.0,0.0,0.0,0.0,0.0,0.0,0.0,0.0,0.0,0.0,0.0,0.0,0.0,0.0,0.0,0.0,0.0,0.0,0.0,0.0,0.0,0.0,0.0,0.0,0.0,0.0,0.0,0.0,-0.2492,-0.3039,0.0,0.0,0.0,0.0,-0.5095,-0.6245,-0.7218,-0.8046,-0.8105,-0.8371,-0.9028,-0.9184,-0.9129,-0.8898,-0.9942,-1.0713,-1.1132,-1.212,-1.2783,-1.3112,-1.3266,-1.3314,-1.3314,-1.3457,-1.3198,-1.259,-1.1006,-1.0597,-1.0894,-1.084,-1.1122,-1.1286,-0.9486,-0.8403,-0.7793,-0.7594,-0.7055,-0.6631,-0.7112,-0.578,-0.3863,-0.3681,-0.3004,0.0,0.0,-0.4666,-0.4942,-0.5858,-0.6233,-0.6236,-0.6,-0.595,-0.5905,-0.5627,-0.4455,-0.3408,-0.3236,-0.3171,-0.2564,-0.0627,0.0,-0.1427,-0.0764,0.1918,0.4451,0.6135,1.0407,1.4777,1.8726,1.965,1.9983,1.9923,2.0068,2.0144,2.0148,1.9448,1.8983,1.8893,1.6449,1.5043,1.4897,1.242,0.0,0.0,0.0,0.0,0.0,0.0,0.0,0.0,0.0,0.0,0.0,0.0,0.0,0.0,0.0,0.0,0.0,0.0,0.0,0.0,0.0,0.0,0.0,0.0,0.0,0.0,0.0,0.0,-0.4323,-0.5157,0.0,-0.5358,-0.6068,-0.6691,-0.6976,-0.7934,-0.8911,-0.9856,-0.9897,-1.0258,-1.1042,-1.1279,-1.1349,-1.1193,-1.18,-1.2365,-1.2764,-1.3484,-1.3873,-1.3988,-1.4652,-1.4801,-1.449,-1.4766,-1.4892,-1.4755,-1.3605,-1.2969,-1.2795,-1.3472,-1.3258,-1.2511,-1.1826,-1.0871,-0.9867,-0.987,-0.9425,-0.8804,-0.8428,-0.7629,-0.681,-0.6815,-0.639,-0.6167,-0.7206,-0.7059,-0.6797,-0.7535,-0.7623,-0.7379,-0.7278,-0.7391,-0.7528,-0.7547,-0.7134,-0.6993,-0.7629,-0.5828,-0.3626,-0.1969,-0.3984,-0.5055,-0.2794,-0.111,0.1263,0.5026,0.9533,1.407,1.8555,1.9352,1.9439,1.9161,1.9276,1.9489,1.9787,1.9091,1.8529,1.8274,1.6809,1.5486,1.4419,1.3388,1.2161,0.0,0.0,0.0,0.0,0.0,0.0,0.0,0.0,0.0,0.0,0.0,0.0,0.0,0.0,0.0,0.0,0.0,0.0,0.0,0.0,0.0,0.0,0.0,0.0,0.0,-0.4828,-0.5722,-0.5741,-0.6951,-0.7609,-0.7106,-0.8271,-0.9033,-0.8935,-0.9603,-1.0479,-1.1474,-1.1558,-1.1773,-1.2246,-1.2421,-1.2421,-1.2255,-1.2647,-1.3025,-1.342,-1.3909,-1.4165,-1.4291,-1.5073,-1.5254,-1.5006,-1.5412,-1.5635,-1.5724,-1.522,-1.4744,-1.4365,-1.4536,-1.3982,-1.3127,-1.2936,-1.2162,-1.1199,-1.1208,-1.1015,-1.061,-0.9872,-0.9445,-0.9327,-0.9475,-0.9283,-0.9037,-0.94,-0.9103,-0.8698,-0.911,-0.9117,-0.8915,-0.8547,-0.8659,-0.8778,-0.8626,-0.8514,-0.8771,-0.9961,-0.7841,-0.5649,-0.4931,-0.6941,-0.726,-0.3199,-0.4042,-0.2823,0.3525,0.5417,0.8661,1.5097,1.5929,1.6808,1.8708,1.9032,1.9186,1.9318,1.8857,1.8384,1.7994,1.7011,1.5984,1.4873,1.4203,1.3007,1.122,0.0,0.0,0.0,0.0,0.0,0.0,0.0,0.0,0.0,0.0,0.0,0.0,0.0,0.0,0.0,0.0,0.0,0.0,0.0,0.0,0.0,0.0,0.0,-0.5816,-0.65,-0.6905,-0.6763,-0.8473,-0.9366,-0.8583,-0.9432,-1.0326,-1.1027,-1.132,-1.1903,-1.2948,-1.3016,-1.2871,-1.2667,-1.2598,-1.2412,-1.2098,-1.2412,-1.2754,-1.3064,-1.3362,-1.3658,-1.4057,-1.4536,-1.4755,-1.4801,-1.5334,-1.548,-1.5424,-1.5848,-1.5993,-1.5748,-1.4258,-1.3684,-1.3616,-1.3102,-1.253,-1.2049,-1.1724,-1.1913,-1.211,-1.1616,-1.1349,-1.1273,-1.1571,-1.134,-1.1015,-1.0864,-1.083,-1.0753,-1.0651,-1.0905,-1.0939,-0.9894,-0.9629,-0.9481,-0.883,-0.8455,-0.8593,-1.0005,-0.9343,-0.8884,-0.9848,-0.999,-0.8058,-0.2582,-0.7074,0.0,0.1144,-0.2088,-0.1438,0.8359,0.9613,1.2275,1.8584,1.9397,1.93,1.8748,1.8764,1.8622,1.8261,1.7118,1.648,1.649,1.488,1.3152,1.1374,0.0,0.0,0.0,0.0,0.0,0.0,0.0,0.0,0.0,0.0,0.0,0.0,0.0,0.0,0.0,0.0,0.0,0.0,0.0,0.0,0.0,-0.6947,-0.7207,-0.7303,-0.7625,-0.8324,-0.9572,-1.0821,-1.148,-1.1322,-1.2171,-1.2671,-1.2599,-1.256,-1.2715,-1.3112,-1.2997,-1.319,-1.3732,-1.3647,-1.3789,-1.4247,-1.4433,-1.4571,-1.4652,-1.5175,-1.5322,-1.5108,-1.5932,-1.612,-1.5836,-1.6613,-1.6921,-1.6901,-1.7032,-1.7262,-1.7421,-1.6191,-1.5511,-1.5186,-1.505,-1.4457,-1.36,-1.2764,-1.256,-1.2609,-1.2365,-1.2258,-1.2297,-1.2648,-1.2209,-1.1616,-1.1783,-1.1099,-1.0454,-1.0964,-1.0964,-1.0744,-1.0787,-1.0779,-1.0736,-1.0694,-1.0635,-1.0787,-1.1551,-1.1165,-1.0698,-1.0856,-1.1668,-1.1752,-1.0195,-1.1612,-1.0777,-0.502,-0.4887,-0.1498,0.855,1.0007,1.2253,1.7117,1.8185,1.8027,1.6717,1.6465,1.6621,1.7192,1.643,1.6137,1.6425,1.5392,1.4303,0.0,0.0,0.0,0.0,0.0,0.0,0.0,0.0,0.0,0.0,0.0,0.0,0.0,0.0,0.0,0.0,0.0,0.0,0.0,0.0,0.0,0.0,-0.8549,-0.9079,-0.9523,-0.9844,-1.0449,-1.1738,-1.2635,-1.3047,-1.2742,-1.3314,-1.361,-1.3399,-1.3467,-1.3647,-1.405,-1.4025,-1.4165,-1.4663,-1.4818,-1.507,-1.5499,-1.5742,-1.5893,-1.5893,-1.6231,-1.6277,-1.6045,-1.6794,-1.6987,-1.6785,-1.7505,-1.7781,-1.7806,-1.7805,-1.7954,-1.8069,0.0,0.0,0.0,0.0,-1.5175,-1.4593,-1.3967,-1.3768,-1.3768,-1.3747,-1.3747,-1.3794,-1.3815,-1.3369,-1.2773,-1.257,-1.199,-1.1501,-1.195,-1.2039,-1.194,-1.1891,-1.1882,-1.1792,-1.1569,-1.1528,-1.1719,-1.2452,-1.2353,0.0,-1.2463,-1.289,-1.2377,-1.0009,-1.2239,-1.2634,-0.8197,-0.919,-0.7174,0.105,0.2047,0.5202,1.2845,1.3785,0.0,0.0,0.0,1.5784,1.6347,1.6204,0.0,0.0,0.0,0.0,0.0,0.0,0.0,0.0,1.303,1.3002,0.0,0.0,0.0,0.0,0.0,0.0,0.0,0.0,0.0,0.0,0.0,0.0,0.0,0.0,0.0,0.0,-0.9997,-1.0941,-1.2056,-1.2533,-1.2934,-1.3228,-1.393,-1.4107,-1.3494,-1.36,-1.3742,-1.3805,-1.4061,-1.4536,-1.5266,-1.5344,0.0,0.0,0.0,-1.6185,-1.635,-1.6689,-1.6875,-1.6875,-1.6875,-1.6875,-1.6875,-1.7388,-1.7593,-1.7654,-1.8124,-1.8292,-1.8304,-1.8367,-1.8355,-1.8182,-1.6669,-1.6302,-1.6484,-1.5531,-1.5198,-1.5153,-1.5108,0.0,0.0,-1.5335,-1.5437,-1.5437,-1.5085,-1.4762,-1.4356,-1.3519,-1.324,-1.3202,-1.3266,-1.3552,-1.3658,-1.3102,-1.2957,-1.2725,-1.195,-1.1819,-1.2008,-1.2967,-1.316,-1.3399,-1.4154,-1.3805,-1.1705,-0.6675,-1.1183,-1.3806,-1.0079,-1.4009,-1.5008,-0.9564,-0.9243,0.0,0.6663,0.7915,0.9885,1.407,1.5102,1.5615,1.572,1.6283,1.6771,1.7154,1.7514,1.7721,1.7772,1.7835,1.7891,1.7859,1.5178,1.4701,0.0,0.0,0.0,0.0,0.0,0.0,0.0,0.0,0.0,0.0,0.0,0.0,0.0,0.0,0.0,-1.0986,-1.1733,-1.2554,-1.3974,-1.4392,-1.4312,-1.3617,-1.4343,-1.4869,-1.4731,-1.4582,-1.4709,-1.5164,-1.4686,-1.4697,-1.5412,-1.5277,-1.5554,-1.6484,-1.6534,-1.6939,-1.7793,-1.7892,-1.7894,-1.7894,-1.7894,0.0,-1.7894,-1.8131,-1.8239,-1.8251,-1.8753,-1.9003,-1.9041,-1.9484,-1.9408,-1.8902,-1.7613,-1.6851,-1.6442,-1.5881,-1.5656,-1.5623,-1.5232,-1.5108,-1.5177,-1.5742,-1.5975,-1.6045,-1.6525,-1.6376,0.0,-1.5119,-1.4612,-1.4296,-1.3868,-1.382,-1.3878,-1.4003,-1.3789,-1.361,-1.3732,-1.3552,-1.3515,-1.3967,-1.4061,-1.4107,-1.4258,-1.4606,-1.4496,-1.3427,-1.4552,-1.5596,-1.5843,-1.6591,-1.5104,-0.994,-0.9217,-0.6513,-0.0138,0.5198,0.7729,0.6641,1.1598,1.4763,1.5214,1.6455,1.7274,1.7509,1.7622,1.7655,1.7563,1.7638,1.8005,1.8651,1.7273,1.6819,0.0,0.0,0.0,0.0,0.0,0.0,0.0,0.0,0.0,0.0,0.0,-0.8352,-0.9185,0.0,-1.0869,-1.2266,-1.2878,-1.3481,-1.4457,-1.4869,-1.5006,-1.4731,-1.5311,-1.5579,-1.5334,-1.5311,-1.5433,-1.5668,-1.5311,-1.5472,-1.6402,-1.6345,-1.6724,-1.7554,-1.778,-1.8161,-1.8702,-1.8918,-1.9007,-1.9007,-1.9069,-1.9119,-1.9119,-1.9168,-1.9204,-1.923,-1.9396,-1.951,-1.9535,-1.98,-1.9598,-1.9068,-1.8417,-1.7852,-1.7318,-1.7078,-1.6974,-1.6987,-1.6711,-1.6664,-1.6713,-1.706,-1.7192,-1.7288,-1.7267,-1.7181,-1.6855,-1.5875,-1.5452,-1.5137,-1.4567,-1.44,-1.4365,-1.4201,-1.4025,-1.3941,-1.4035,-1.3905,-1.3999,-1.4582,-1.4547,-1.4571,-1.5197,-1.5311,-1.5277,-1.5311,-1.5635,-1.6367,-1.7585,-1.7839,-1.7093,-1.4931,-1.4647,-1.2399,-0.6929,0.1521,0.6082,0.5104,1.0721,1.4374,1.5052,1.6042,1.6686,1.6991,1.7188,1.7629,1.8294,1.8599,1.9273,2.0256,2.0057,1.9773,0.0,0.0,0.0,0.0,0.0,0.0,0.0,-0.7753,-0.7852,-0.8789,-0.9432,-0.9993,-1.0646,-1.161,-1.2578,-1.3339,-1.379,-1.4186,-1.4593,-1.5017,-1.5379,-1.5792,-1.6076,-1.6064,-1.5603,-1.578,-1.5901,-1.5888,-1.5897,-1.6374,-1.735,-1.7541,-1.7903,-1.8472,-1.8927,-1.9218,-1.932,-1.9636,-1.9798,-1.9798,-1.9926,-1.9978,-1.999,-2.008,-2.0182,-2.0182,-2.0169,-2.0156,-2.0156,-2.0156,-1.9901,-1.9517,-1.9517,-1.9152,-1.8637,-1.8327,-1.8204,-1.8204,-1.8204,-1.8204,-1.8229,-1.8329,-1.8402,-1.8462,-1.8068,-1.7995,-1.7824,-1.68,-1.6421,-1.6185,-1.5498,-1.5256,-1.504,-1.4525,-1.4305,-1.4165,-1.4222,-1.4082,-1.4222,-1.5062,-1.5085,-1.5242,-1.6139,-1.5976,-1.568,-1.5534,-1.5856,-1.6552,-1.7572,-1.8159,-1.8817,-1.9778,-2.0218,-1.8035,-1.2016,-0.2763,0.3497,0.5319,1.0381,1.3787,1.4809,1.508,1.5492,1.6113,1.6495,1.7398,1.8801,1.957,2.0513,2.1601,2.2119,2.2147,-0.7271,-0.7638,-0.8015,-0.8906,-0.8612,-0.8744,0.0,-1.0837,-1.0374,-1.1571,-1.1882,-1.2089,-1.2583,-1.3148,-1.3684,-1.4255,-1.4698,-1.5017,-1.5165,-1.5525,-1.5792,-1.5957,-1.5988,-1.5944,-1.5792,-1.5647,-1.5736,-1.6144,-1.6315,-1.6708,-1.7375,-1.784,-1.8355,-1.892,-1.8995,-1.9246,-1.971,-1.9773,-1.9798,-1.9798,-1.9811,-1.9811,-1.985,-2.0459,-2.0709,-2.0759,-2.1215,-2.141,-2.141,-2.141,-2.1369,-2.1315,-2.1315,-2.0922,-2.0161,-1.8748,-1.8204,-1.8204,-1.8204,-1.8204,-1.8292,-1.8781,-1.8932,-1.902,-1.9421,-1.9571,-1.9459,-1.8834,-1.8214,-1.7612,-1.7069,-1.65,-1.6057,-1.5969,-1.5367,-1.4994,-1.5635,-1.5164,-1.4801,-1.5558,-1.6213,-1.6574,-1.6355,-1.6841,-1.7008,-1.6312,-1.6107,-1.6281,-1.6912,-1.7381,-1.8165,-1.9549,-2.0773,-1.8972,-1.2785,-0.7576,-0.2027,0.4051,0.894,1.2299,1.3891,1.3402,1.3772,1.5148,1.5736,1.6593,1.7769,1.9333,2.0606,2.1601,2.179,2.2182,-0.9341,-0.9539,-0.9627,-1.0398,-1.0414,-1.0587,-1.203,-1.1949,-1.1838,-1.2914,-1.3119,-1.3259,-1.3697,-1.392,-1.4213,-1.4744,-1.5017,-1.5277,-1.5812,-1.5901,-1.6088,-1.6479,-1.6349,-1.6175,-1.6057,-1.6132,-1.6342,-1.6643,-1.6739,-1.7362,-1.861,-1.8865,-1.9429,-2.0377,-2.039,-2.0496,-2.0733,-2.0733,-2.0733,-2.0733,-2.0795,-2.0858,-2.0858,-2.1153,-2.1237,-2.1175,-2.1382,-2.1479,-2.1479,-2.1479,-2.1479,-2.1479,-2.1479,-2.1334,-2.0926,-1.9989,-1.9381,-1.9133,-1.9133,-1.9133,-1.9171,-1.9397,-1.9472,-1.9522,-1.9736,-1.9798,-1.9698,-1.9171,-1.8521,-1.7805,-1.7063,-1.6345,-1.578,-1.5603,-1.5289,-1.5187,-1.5856,-1.5712,-1.5668,-1.6306,-1.6324,-1.6416,-1.6866,-1.6912,-1.697,-1.7229,-1.6837,-1.6723,-1.7271,-1.78,-1.8715,-2.0325,-2.1569,-2.1097,-1.808,-1.0902,-0.5166,-0.1905,0.5821,1.0573,1.1271,1.1064,1.1504,1.2762,1.2667,1.3727,1.6095,1.7576,1.9141,2.0817,2.188,2.2798,-1.0698,-1.0975,-1.1206,-1.185,-1.2201,-1.2559,-1.3143,-1.3174,-1.3263,-1.3938,-1.4072,-1.4172,-1.447,-1.4628,-1.4858,-1.5244,-1.5367,-1.5623,-1.6225,-1.6207,-1.6293,-1.6778,-1.6565,-1.6362,-1.6275,-1.6436,-1.6704,-1.7086,-1.7134,-1.785,-1.9433,-1.9675,-2.0227,-2.1126,-2.1321,-2.1417,-2.1417,-2.1417,-2.1417,-2.1417,-2.1492,-2.1554,-2.1541,-2.1698,-2.1779,-2.1813,-2.1813,-2.1813,-2.1813,-2.1813,-2.1813,-2.1813,-2.1813,-2.1718,-2.1575,-2.1188,-2.0696,-2.0245,-2.0144,-2.0105,-2.0003,-1.9914,-1.985,-1.9798,-1.9708,-1.9708,-1.9672,-1.9258,-1.8635,-1.7932,-1.7178,-1.6471,-1.5903,-1.5582,-1.5367,-1.5457,-1.6076,-1.6076,-1.6175,-1.6791,-1.6625,-1.6642,-1.7421,-1.7327,-1.741,-1.8173,-1.7828,-1.7557,-1.7625,-1.8143,-1.9095,-2.0674,-2.167,-2.2204,-2.2084,-1.5453,-1.0043,-0.7114,0.2677,0.8677,0.9516,0.9419,0.9719,1.0471,1.0195,1.1548,1.455,1.5787,1.7529,1.9783,2.1147,2.2305,-1.0808,-1.165,-1.2841,-1.3402,-1.3968,-1.4618,-1.5364,-1.5113,-1.4794,-1.5015,-1.504,-1.504,-1.5062,-1.5424,-1.5748,-1.5792,-1.6076,-1.6269,-1.6312,-1.6423,-1.6552,-1.668,-1.6522,-1.6392,-1.6392,-1.6275,-1.6541,-1.7345,-1.7501,-1.8055,-1.9179,-1.9949,-2.0396,-2.0422,-2.1042,-2.1417,-2.1417,-2.1417,-2.1417,-2.1417,-2.1417,-2.1417,-2.1417,-2.1921,-2.2417,-2.2843,-2.2843,-2.2843,-2.2843,-2.2843,-2.2843,-2.2843,-2.2843,-2.2555,-2.217,-2.2184,-2.1827,-2.1321,-2.1028,-2.0795,-2.051,-2.0131,-1.9926,-1.9759,-1.946,-1.9512,-1.9565,-1.9448,-1.8888,-1.8338,-1.8041,-1.7461,-1.6885,-1.656,-1.6107,-1.592,-1.6539,-1.6337,-1.6175,-1.6791,-1.7475,-1.7948,-1.7988,-1.8553,-1.9011,-1.9064,-1.9064,-1.8655,-1.7626,-1.809,-1.8925,-2.0017,-2.0558,-2.1449,-2.2915,-2.2321,-1.8248,-0.9731,-0.0,0.6696,0.9504,0.9099,0.8764,0.8696,0.9365,1.0936,1.3446,1.4416,1.6165,1.8678,1.903,1.9955,-1.3672,-1.3924,-1.4038,-1.5227,-1.5389,-1.5369,-1.5932,-1.5752,-1.5465,-1.5567,-1.5461,-1.5532,-1.6046,-1.5838,-1.5855,-1.6629,-1.638,-1.6238,-1.6697,-1.6582,-1.6565,-1.6976,-1.6693,-1.6522,-1.6595,-1.6436,-1.6779,-1.7861,-1.7959,-1.8735,-2.0466,-2.0948,-2.141,-2.1827,-2.2217,-2.2402,-2.2402,-2.2402,-2.2402,-2.2402,-2.2402,-2.2402,-2.2402,-2.2601,-2.2752,-2.2888,-2.2888,-2.2888,-2.2888,-2.2888,-2.2888,-2.2888,-2.2888,-2.2706,-2.2463,-2.2463,-2.2217,-2.1827,-2.1237,-2.0944,-2.0795,-2.051,-2.0372,-2.0308,-2.0207,-2.022,-2.022,-1.9875,-1.9058,-1.82,-1.7943,-1.718,-1.6465,-1.6442,-1.6349,-1.6423,-1.6934,-1.6892,-1.6947,-1.7461,-1.757,-1.7679,-1.7909,-1.8383,-1.902,-1.9782,-1.9435,-1.8974,-1.8616,-1.8581,-1.9084,-2.0303,-2.1183,-2.1879,-2.2406,-1.6948,-1.2666,-1.0635,-0.1785,0.3684,0.4382,0.4965,0.6032,0.758,0.7084,0.7535,0.9033,1.102,1.3188,1.5423,1.6279,1.7567,-1.5056,-1.5235,-1.5277,-1.6407,-1.6546,-1.6455,-1.6663,-1.6552,-1.6201,-1.5659,-1.564,-1.5772,-1.591,-1.5577,-1.5648,-1.6671,-1.643,-1.6283,-1.6925,-1.6808,-1.6854,-1.7316,-1.72,-1.7178,-1.747,-1.7583,-1.7836,-1.8384,-1.8567,-1.9365,-2.0988,-2.1299,-2.1698,-2.2231,-2.2615,-2.2843,-2.2888,-2.2888,-2.2888,-2.2888,-2.2888,-2.2888,-2.2888,-2.2888,-2.2888,-2.2902,-2.3008,-2.3023,-2.2902,-2.3008,-2.3023,-2.2888,-2.2888,-2.2797,-2.2615,-2.2615,-2.2417,-2.2123,-2.1492,-2.1237,-2.1104,-2.0746,-2.066,-2.056,-2.0472,-2.0472,-2.0472,-2.0182,-1.9509,-1.8852,-1.8518,-1.7859,-1.719,-1.6955,-1.6867,-1.6903,-1.7167,-1.7199,-1.7323,-1.7801,-1.7747,-1.7693,-1.8055,-1.8461,-1.8983,-1.9609,-1.9295,-1.9035,-1.9273,-1.9041,-1.9169,-2.0104,-1.9565,-1.8014,-1.5094,-0.9711,-0.703,-0.8332,-0.2543,0.0777,0.05,0.1609,0.2991,0.4539,0.4385,0.5046,0.6582,0.814,1.0121,1.2387,1.3405,1.4834,-1.5068,-1.5658,-1.6514,-1.693,-1.7422,-1.7747,-1.7447,-1.7338,-1.6894,-1.5401,-1.5608,-1.5762,-1.4711,-1.479,-1.5274,-1.6088,-1.6217,-1.641,-1.6928,-1.7128,-1.732,-1.7701,-1.7961,-1.8403,-1.8982,-1.9499,-1.9512,-1.895,-1.9244,-1.9885,-2.0769,-2.1091,-2.1334,-2.1616,-2.2278,-2.2706,-2.2888,-2.2888,-2.2888,-2.2888,-2.2888,-2.2888,-2.2888,-2.2888,-2.2902,-2.2933,-2.3246,-2.3216,-2.2978,-2.329,-2.326,-2.2933,-2.2933,-2.2843,-2.2661,-2.2661,-2.2463,-2.2184,-2.1949,-2.1664,-2.1361,-2.0957,-2.0759,-2.061,-2.0334,-2.0372,-2.0422,-2.0283,-2.0207,-2.0104,-1.971,-1.9423,-1.8984,-1.8068,-1.7632,-1.7435,-1.7287,-1.724,-1.7365,-1.7788,-1.7882,-1.8029,-1.8436,-1.8822,-1.9011,-1.8779,-1.8727,-1.8968,-1.9566,-1.9325,-1.9224,-1.9445,-1.6138,-1.0763,-0.2821,-0.1992,-0.2408,-0.354,-0.2521,-0.1902,-0.1902,-0.0777,-0.0166,-0.0166,0.1327,0.3398,0.599,0.577,0.7048,0.9592,1.0455,1.1783,-1.6452,-1.6734,-1.6943,-1.7277,-1.7205,-1.7005,-1.7089,-1.6488,-1.5702,-1.4968,-1.4536,-1.4337,-1.4337,-1.466,-1.5233,-1.6072,-1.6428,-1.6654,-1.6879,-1.7148,-1.7511,-1.7965,-1.8446,-1.8954,-1.9458,-2.0206,-2.0525,-2.0159,-2.0247,-2.0583,-2.1237,-2.1506,-2.1793,-2.2044,-2.2417,-2.2706,-2.2888,-2.2888,-2.2888,-2.2888,-2.2888,-2.2888,-2.2888,-2.2888,-2.3053,-2.329,-2.3363,-2.3508,-2.3726,-2.3797,-2.3754,-2.3581,-2.3581,-2.3407,-2.3142,-2.3142,-2.2949,-2.2663,-2.2217,-2.1949,-2.1664,-2.1361,-2.1215,-2.1166,-2.1118,-2.1131,-2.1068,-2.0759,-2.0345,-1.9978,-1.9799,-1.9494,-1.9074,-1.8512,-1.8425,-1.8307,-1.7759,-1.7639,-1.7679,-1.7882,-1.7882,-1.8029,-1.8436,-1.8822,-1.9176,-1.9406,-1.9266,-1.9066,-1.8765,-1.9029,-1.9302,-1.9342,-1.6426,-1.2549,-0.7649,-0.4703,-0.3251,-0.3596,-0.3307,-0.3137,-0.3144,-0.2854,-0.2683,-0.2683,-0.2293,-0.0444,0.2914,0.2859,0.4155,0.668,0.7436,0.8532,-1.7303,-1.747,-1.7526,-1.7518,-1.7269,-1.6959,-1.6612,-1.6061,-1.5299,-1.4141,-1.3854,-1.374,-1.3469,-1.3911,-1.4647,-1.5647,-1.6017,-1.6327,-1.6841,-1.7493,-1.8065,-1.8464,-1.9396,-2.0229,-2.073,-2.1408,-2.171,-2.1481,-2.125,-2.1213,-2.1396,-2.1568,-2.1746,-2.2044,-2.2356,-2.2867,-2.3476,-2.3422,-2.3393,-2.3354,-2.3184,-2.3127,-2.3127,-2.3127,-2.3304,-2.3653,-2.3824,-2.3925,-2.4024,-2.4109,-2.4009,-2.3797,-2.3739,-2.3523,-2.3319,-2.3319,-2.3127,-2.2844,-2.2572,-2.2402,-2.2217,-2.1602,-2.1423,-2.1423,-2.1423,-2.1423,-2.1361,-2.1118,-2.0877,-2.0622,-2.0527,-2.0321,-2.0072,-1.957,-1.9568,-1.941,-1.8659,-1.8507,-1.8479,-1.8428,-1.8055,-1.7841,-1.8252,-1.8461,-1.8577,-1.8717,-1.8793,-1.8664,-1.8198,-1.8612,-1.9014,-1.9273,-1.6395,-1.3527,-1.114,-0.7279,-0.4907,-0.4611,-0.3965,-0.3588,-0.3591,-0.3593,-0.3593,-0.3593,-0.3596,-0.2406,-0.0056,0.1385,0.2762,0.412,0.5333,0.6556,-1.7839,-1.7915,-1.8135,-1.7639,-1.7422,-1.7076,-1.6136,-1.5761,-1.5087,-1.3226,-1.3308,-1.3389,-1.2375,-1.2923,-1.3891,-1.4957,-1.5345,-1.5853,-1.6806,-1.7876,-1.8732,-1.9163,-2.0519,-2.1657,-2.2221,-2.2692,-2.2873,-2.2692,-2.2263,-2.1888,-2.1554,-2.1554,-2.1746,-2.2016,-2.242,-2.3194,-2.4325,-2.4085,-2.4013,-2.4017,-2.3733,-2.3583,-2.3508,-2.3672,-2.3846,-2.4067,-2.4467,-2.4451,-2.4151,-2.4317,-2.4219,-2.3867,-2.3782,-2.361,-2.3451,-2.3451,-2.3304,-2.3068,-2.3024,-2.2979,-2.2844,-2.1841,-2.152,-2.1471,-2.1423,-2.1423,-2.1423,-2.1423,-2.1375,-2.1375,-2.1423,-2.1423,-2.1308,-2.0817,-2.0712,-2.0519,-1.9655,-1.9399,-1.9308,-1.9127,-1.8344,-1.7787,-1.8145,-1.8054,-1.7908,-1.776,-1.8055,-1.8214,-1.8068,-1.8277,-1.865,-1.9177,-1.6312,-1.4138,-1.3525,-0.96,-0.6891,-0.6182,-0.471,-0.3855,-0.3749,-0.3694,-0.3638,-0.3585,-0.3583,-0.3244,-0.2567,0.0554,0.1941,0.1778,0.3773,0.5027,-1.8247,-1.8387,-1.8355,-1.7666,-1.6995,-1.6389,-1.6005,-1.5047,-1.3946,-1.2802,-1.2403,-1.2113,-1.1569,-1.2401,-1.3401,-1.4122,-1.5008,-1.5969,-1.7001,-1.8188,-1.9231,-2.0057,-2.1282,-2.2243,-2.2737,-2.3083,-2.3246,-2.3038,-2.3054,-2.286,-2.2328,-2.2526,-2.2785,-2.3098,-2.3421,-2.3968,-2.4836,-2.4273,-2.4273,-2.4791,-2.4759,-2.4411,-2.3912,-2.5031,-2.5131,-2.4446,-2.5071,-2.516,-2.4846,-2.4846,-2.471,-2.4467,-2.4426,-2.4287,-2.4135,-2.4135,-2.4094,-2.3994,-2.3595,-2.3465,-2.3334,-2.2356,-2.2044,-2.1996,-2.152,-2.1423,-2.1423,-2.1423,-2.1326,-2.1277,-2.152,-2.1568,-2.1499,-2.1321,-2.136,-2.1139,-2.012,-1.9508,-1.9156,-1.9116,-1.8822,-1.8592,-1.8655,-1.8784,-1.886,-1.8822,-1.8745,-1.886,-1.9295,-1.8997,-1.8769,-1.8884,-1.673,-1.5037,-1.4497,-1.1291,-0.8724,-0.7448,-0.6177,-0.519,-0.4563,-0.4236,-0.3965,-0.3585,-0.3577,-0.3519,-0.3413,-0.1003,0.0056,-0.0112,0.1729,0.251,-1.8418,-1.8619,-1.8712,-1.7747,-1.6956,-1.6216,-1.5294,-1.4338,-1.3364,-1.2394,-1.1985,-1.1676,-1.1275,-1.2036,-1.2915,-1.3485,-1.4151,-1.5208,-1.7068,-1.8289,-1.9433,-2.0569,-2.1945,-2.2949,-2.3319,-2.3377,-2.3465,-2.3581,-2.3696,-2.3493,-2.2815,-2.286,-2.3143,-2.3595,-2.3809,-2.4496,-2.5664,-2.525,-2.5222,-2.5545,-2.5356,-2.509,-2.4798,-2.5444,-2.5772,-2.5837,-2.5801,-2.568,-2.5471,-2.4988,-2.471,-2.4589,-2.4467,-2.4385,-2.4302,-2.4302,-2.4302,-2.4261,-2.4036,-2.3952,-2.3867,-2.3157,-2.2754,-2.254,-2.2249,-2.2016,-2.1793,-2.1793,-2.152,-2.1229,-2.1375,-2.152,-2.1629,-2.1667,-2.1642,-2.1403,-2.0775,-1.9923,-1.942,-1.9874,-1.9184,-1.8616,-1.9089,-1.8968,-1.8784,-1.8784,-1.886,-1.9064,-1.9362,-1.8898,-1.863,-1.8784,-1.7277,-1.6036,-1.5495,-1.296,-1.0793,-0.9358,-0.7617,-0.6236,-0.5433,-0.4838,-0.4457,-0.4298,-0.4015,-0.3904,-0.391,-0.2007,-0.106,-0.095,0.0446,0.1173,-1.8635,-1.888,-1.9111,-1.7974,-1.7102,-1.6112,-1.4705,-1.3874,-1.3081,-1.2067,-1.1811,-1.1659,-1.1178,-1.1662,-1.2326,-1.2983,-1.3344,-1.4471,-1.7114,-1.8374,-1.956,-2.1002,-2.2443,-2.3488,-2.3837,-2.3794,-2.3879,-2.4177,-2.4204,-2.3937,-2.3348,-2.3304,-2.3537,-2.4009,-2.4177,-2.4872,-2.6236,-2.5953,-2.5869,-2.6014,-2.5892,-2.5757,-2.5617,-2.5897,-2.6365,-2.683,-2.6261,-2.5914,-2.574,-2.4986,-2.467,-2.463,-2.4426,-2.4359,-2.4359,-2.4302,-2.4302,-2.4302,-2.4302,-2.4302,-2.4219,-2.3867,-2.3421,-2.3024,-2.2934,-2.2618,-2.231,-2.231,-2.1793,-2.1277,-2.1277,-2.1375,-2.1616,-2.203,-2.1917,-2.1635,-2.1446,-2.0421,-1.9767,-2.0512,-1.9479,-1.8655,-1.9353,-1.9029,-1.863,-1.863,-1.886,-1.9026,-1.8936,-1.85,-1.8305,-1.85,-1.768,-1.6854,-1.6287,-1.4429,-1.2644,-1.1178,-0.8957,-0.7336,-0.6455,-0.5655,-0.5222,-0.5113,-0.4677,-0.4453,-0.4343,-0.2894,-0.2119,-0.1898,-0.0613,0.0167,-1.9072,-1.9318,-1.9447,-1.864,-1.7267,-1.5896,-1.4911,-1.3955,-1.3008,-1.194,-1.1897,-1.1872,-1.1216,-1.1182,-1.1536,-1.2484,-1.3069,-1.4365,-1.7134,-1.8479,-1.9811,-2.1524,-2.2793,-2.3637,-2.4107,-2.4576,-2.4847,-2.4823,-2.4655,-2.4508,-2.4359,-2.4359,-2.4482,-2.4701,-2.4742,-2.5127,-2.6005,-2.5408,-2.5408,-2.602,-2.6661,-2.6614,-2.5999,-2.7277,-2.7198,-2.6103,-2.604,-2.5645,-2.51,-2.4997,-2.4886,-2.4782,-2.4645,-2.4523,-2.4457,-2.4359,-2.4302,-2.4302,-2.4302,-2.4302,-2.4302,-2.4261,-2.3909,-2.3465,-2.3024,-2.2799,-2.2663,-2.2663,-2.2109,-2.1568,-2.1568,-2.1326,-2.1313,-2.2374,-2.2357,-2.2056,-2.2087,-2.1033,-2.0065,-2.0135,-1.969,-1.9339,-1.9398,-1.9213,-1.9026,-1.9026,-1.8898,-1.8707,-1.8422,-1.8187,-1.7935,-1.7639,-1.7504,-1.7229,-1.671,-1.5271,-1.3854,-1.2445,-1.0311,-0.8704,-0.7788,-0.6886,-0.6239,-0.5756,-0.5555,-0.5289,-0.4842,-0.3901,-0.3624,-0.3898,-0.1783,-0.1116,-1.8885,-1.9437,-1.9841,-1.9521,-1.8377,-1.701,-1.5861,-1.4701,-1.3548,-1.2582,-1.238,-1.2107,-1.1169,-1.121,-1.1561,-1.2046,-1.2215,-1.342,-1.6733,-1.794,-1.9404,-2.1881,-2.3222,-2.4249,-2.5102,-2.5259,-2.5313,-2.5384,-2.5114,-2.4974,-2.4934,-2.467,-2.4645,-2.4782,-2.4902,-2.5273,-2.5993,-2.574,-2.5961,-2.6672,-2.6972,-2.7162,-2.7273,-2.7431,-2.7415,-2.7209,-2.6372,-2.5851,-2.5566,-2.506,-2.4806,-2.4686,-2.4564,-2.4482,-2.4359,-2.4317,-2.4302,-2.4302,-2.4302,-2.4302,-2.4302,-2.4302,-2.4177,-2.3994,-2.3824,-2.3508,-2.3231,-2.3143,-2.2649,-2.2109,-2.2049,-2.2095,-2.2203,-2.242,-2.2581,-2.2568,-2.214,-2.1406,-2.0802,-2.0675,-2.017,-1.9848,-2.017,-1.9747,-1.9221,-1.8907,-1.8808,-1.863,-1.8187,-1.7747,-1.7229,-1.6553,-1.6286,-1.6071,-1.5879,-1.4552,-1.3212,-1.2015,-1.0747,-0.9585,-0.8593,-0.8053,-0.7368,-0.6578,-0.6514,-0.6086,-0.5344,-0.4398,-0.4067,-0.4177,-0.3065,-0.2508,-1.8287,-1.909,-1.9723,-1.9606,-1.8516,-1.7147,-1.6119,-1.4894,-1.376,-1.2948,-1.2759,-1.2358,-1.1133,-1.1352,-1.1693,0.0,-1.1987,-1.3439,-1.6694,-1.7941,-1.9519,-2.2196,-2.344,-2.4527,-2.5622,-2.574,-2.5742,-2.5738,-2.5422,-2.523,-2.5269,-2.4871,-2.4726,-2.4862,-2.5131,-2.5408,-2.5693,-2.5898,-2.6261,-2.6783,-2.7194,-2.7541,-2.7778,-2.732,-2.7241,-2.7415,-2.6214,-2.5693,-2.5661,-2.5051,-2.4726,-2.4645,-2.4539,-2.4457,-2.4359,-2.4302,-2.4302,-2.4302,-2.4302,-2.4302,-2.4302,-2.4302,-2.4302,-2.4302,-2.4302,-2.4051,-2.3739,-2.3653,-2.3187,-2.268,-2.2498,-2.2725,-2.3009,-2.286,-2.3029,-2.3108,-2.2617,-2.187,-2.1315,-2.1358,-2.0621,-2.0115,-2.0499,-1.9899,-1.9258,-1.8717,-1.863,-1.8436,-1.7948,-1.7338,-1.6642,-1.5867,-1.5182,-1.4722,-1.4665,-1.3439,-1.2327,-1.1657,-1.078,-1.0026,-0.9451,-0.9013,-0.8435,-0.7818,-0.7416,-0.6832,-0.6055,-0.5222,-0.4835,-0.4787,-0.4284,-0.3727,-1.7303,-1.8147,-1.8828,-1.8493,-1.7111,-1.5704,-1.5222,-1.428,-1.335,-1.2813,-1.2922,-1.2654,-1.1164,-1.151,-1.1789,-1.1203,-1.2841,-1.4944,-1.7176,-1.8818,-2.0532,-2.2557,-2.3443,-2.4326,-2.5416,-2.6034,-2.6243,-2.5917,-2.5476,-2.5269,-2.5378,-2.5005,-2.4862,-2.5005,-2.5629,-2.5661,-2.5021,-2.5661,-2.6009,-2.604,-2.7415,-2.7747,-2.7115,-2.7099,-2.672,-2.5993,-2.5282,-2.5021,-2.5021,-2.4862,-2.4782,-2.4782,-2.458,-2.4498,-2.4498,-2.4359,-2.4302,-2.4302,-2.4302,-2.4302,-2.4302,-2.4302,-2.4302,-2.4302,-2.4302,-2.4234,-2.4181,-2.4181,-2.3696,-2.3128,-2.2831,-2.3069,-2.3493,-2.3979,-2.3819,-2.3639,-2.3831,-2.2582,-2.1565,-2.2084,-2.0986,-2.0015,-2.0023,-1.9576,-1.9035,-1.8581,-1.8321,-1.8069,-1.776,-1.6909,-1.6182,-1.5832,-1.4389,-1.3358,-1.3148,-1.219,-1.1616,-1.1616,-1.0482,-1.0007,-1.047,-0.9762,-0.9377,-0.9377,-0.8271,-0.7492,-0.7085,-0.6583,-0.6317,-0.6173,-0.5429,-0.4549,-1.5996,-1.6931,-1.7552,-1.7409,-1.7048,-1.6407,-1.5047,-1.4491,-1.4048,-1.3325,-1.3278,-1.2887,-1.134,-1.1797,-1.247,-1.265,-1.365,-1.5412,-1.8329,-1.9546,-2.1037,-2.3467,-2.5248,-2.6346,-2.6514,-2.6706,-2.6725,-2.6469,-2.6137,-2.5885,-2.5733,-2.5899,-2.5656,-2.5021,-2.5227,-2.5227,-2.5005,-2.5661,-2.6261,-2.6767,-2.7209,-2.7541,-2.7747,-2.6799,-2.623,-2.5961,-2.5306,-2.5005,-2.5005,-2.5162,-2.5146,-2.5091,-2.5246,-2.5269,-2.5176,-2.5137,-2.4942,-2.4759,-2.5005,-2.4942,-2.4719,-2.4719,-2.4719,-2.4639,-2.4369,-2.4276,-2.4276,-2.4208,-2.4009,-2.3752,-2.345,-2.3681,-2.4036,-2.4078,-2.4199,-2.4217,-2.3941,-2.3484,-2.2886,-2.215,-2.1303,-2.062,-2.015,-1.9456,-1.8817,-1.8277,-1.7801,-1.7271,-1.6811,-1.6027,-1.5264,-1.4562,-1.3747,-1.3246,-1.3188,-1.2335,-1.1551,-1.0939,-1.0482,-1.0079,-0.9784,-0.988,-0.9614,-0.8876,-0.8922,-0.8396,-0.7085,-0.7063,-0.6681,-0.6046,-0.5987,-0.5332,-1.4554,-1.5816,-1.6631,-1.6551,-1.6458,-1.608,-1.4899,-1.4418,-1.4075,-1.3515,-1.3478,-1.3146,-1.1852,-1.2425,-1.3176,-1.3458,-1.4452,-1.6144,-1.8888,-2.001,-2.1505,-2.4056,-2.5995,-2.6983,-2.6754,-2.6933,-2.694,-2.6725,-2.6435,-2.6189,-2.6026,-2.6119,-2.5883,-2.5256,-2.5338,-2.5274,-2.5005,-2.5661,-2.623,-2.6688,-2.6972,-2.7178,-2.7273,-2.6404,-2.5866,-2.5598,-2.5195,-2.5068,0.0,-2.5323,-2.5422,-2.5519,-2.5668,-2.5705,-2.5598,-2.5598,-2.5449,-2.5275,-2.5524,-2.5449,-2.5237,-2.5237,-2.5198,-2.5114,-2.4639,-2.4426,-2.4317,-2.4234,-2.4234,-2.4219,-2.4036,-2.4177,-2.4385,-2.4574,-2.4695,-2.4745,-2.4512,-2.4249,-2.3877,-2.309,-2.1961,-2.0946,-2.0558,-1.9546,-1.8511,-1.7733,-1.7231,-1.6786,-1.6157,-1.5454,-1.4767,-1.4193,-1.3616,-1.3218,-1.3084,-1.2206,-1.136,-1.0592,-1.032,-1.002,-0.9725,-0.9984,-0.988,-0.9309,-0.951,-0.8981,-0.7717,-0.7545,-0.7272,-0.6902,-0.6539,-0.5941,0.0,-1.4663,-1.5835,-1.5644,-1.5278,-1.4889,-1.464,-1.4087,0.0,-1.3462,-1.3543,-1.3426,-1.2728,-1.3377,-1.3997,-1.3968,-1.5428,-1.7222,-1.9147,-2.0521,-2.2162,-2.4421,-2.5853,-2.6602,-2.6387,-2.6816,-2.6989,-2.6725,-2.64,-2.6241,-2.6206,-2.5828,-2.5642,-2.5605,-2.5823,-2.5654,-2.506,-2.5702,-2.605,-2.605,-2.6746,-2.6714,-2.6075,-2.6027,-2.5647,-2.5084,-2.5084,-2.523,-2.554,-2.5519,-2.5705,-2.6049,-2.5944,-2.5892,-2.5892,-2.5892,-2.5855,-2.5855,-2.5892,-2.5855,-2.5855,-2.5855,-2.5762,-2.561,-2.5137,-2.4679,-2.4343,-2.4302,-2.44,-2.4539,-2.4589,-2.4564,-2.4661,-2.5262,-2.5262,-2.5185,-2.5378,-2.4954,-2.4511,-2.4648,-2.2841,-2.1213,-2.1121,-1.9767,-1.8323,-1.7115,-1.685,-1.6527,-1.5796,-1.505,-1.456,-1.4457,-1.3779,-1.3238,-1.2929,-1.1977,-1.1158,-1.0517,-1.0115,-0.9976,-1.0198,-1.0079,-1.0131,-1.0411,-0.9829,-0.9302,-0.8883,-0.8143,-0.799,-0.8368,-0.7133,-0.644,-1.1302,0.0,-1.356,-1.2938,-1.3661,-1.4332,0.0,-1.3699,-1.3941,-1.3798,-1.3885,-1.3916,-1.3697,-1.4395,-1.5386,-1.6443,-1.7968,-1.9617,-2.119,-2.3212,-2.4736,-2.5362,-2.6611,-2.7332,-2.7074,-2.7123,-2.7053,-2.6725,-2.6624,-2.6469,-2.6206,-2.6118,-2.5901,-2.5605,-2.5653,-2.5631,-2.5454,-2.5982,-2.6294,-2.6478,-2.6655,-2.6719,-2.6665,-2.6248,-2.5979,-2.5852,-2.5852,-2.5888,-2.598,-2.6227,-2.6383,-2.6487,-2.664,-2.6708,-2.6708,-2.6708,-2.6521,-2.6297,-2.659,-2.6521,-2.6262,-2.6262,-2.6033,-2.5746,-2.5635,-2.5198,-2.4679,-2.4385,-2.4426,-2.4589,-2.4589,-2.4645,-2.4862,-2.5301,-2.5285,-2.5285,-2.5696,-2.5454,-2.5051,-2.456,-2.3516,-2.2385,-2.141,-2.0567,-1.9642,-1.8503,-1.7352,-1.6422,-1.58,-1.4538,-1.3684,-1.3637,-1.3286,-1.2968,-1.2929,-1.2686,-1.2224,-1.146,-1.0947,-1.0541,-1.0198,-1.0095,-0.9932,-0.9829,-0.9249,-0.9145,-0.9406,-0.8725,-0.8415,-0.8368,-0.7925,-0.78,-1.0267,-1.1646,-1.2973,-1.2459,-1.3383,-1.4253,-1.3683,-1.3849,-1.3962,-1.3453,-1.3748,-1.411,-1.4078,-1.4851,-1.6085,-1.7891,-1.8968,-2.0207,-2.2025,-2.4296,-2.5717,-2.5648,-2.6939,-2.7672,-2.7289,-2.7213,-2.7053,-2.6725,-2.6674,-2.6555,-2.6364,-2.6277,-2.6134,-2.5881,-2.599,-2.5901,-2.5605,-2.5978,-2.6211,-2.6308,-2.6442,-2.6554,-2.6647,-2.6376,-2.6229,-2.6229,-2.6158,-2.6229,-2.6419,-2.659,-2.6742,-2.6925,-2.7089,-2.7154,-2.7154,-2.7154,-2.7007,-2.6859,-2.7072,-2.7007,-2.6808,-2.6725,-2.6556,-2.6368,-2.6123,-2.5835,-2.5519,-2.5075,-2.5036,-2.5153,-2.5153,-2.513,-2.5208,-2.5738,-2.5647,-2.5513,-2.5844,-2.577,-2.5433,-2.482,-2.3865,-2.2903,-2.1936,-2.1035,-2.0105,-1.8866,-1.7697,-1.6704,-1.6057,-1.4898,-1.4092,-1.3932,-1.3801,-1.348,-1.3024,-1.3015,-1.252,-1.1427,-1.0956,-1.0549,-1.0154,-1.0051,-0.9947,-0.9777,-0.9354,-0.9302,-0.9614,-0.9099,-0.8911,-0.8998,-0.8492,-0.8563,-0.9868,-1.1452,-1.3022,-1.29,-1.3654,-1.4393,-1.4263,-1.4193,-1.3943,-1.3134,-1.3712,-1.4391,-1.4588,-1.546,-1.6834,-1.8885,-1.9499,-2.0408,-2.2431,-2.4531,-2.5818,-2.5683,-2.7012,-2.7777,-2.7324,-2.7213,-2.7053,-2.6742,-2.6657,-2.6572,-2.6554,-2.6452,-2.6347,-2.631,-2.6537,-2.6382,-2.5811,-2.6013,-2.612,-2.6156,-2.6368,-2.6505,-2.6505,-2.6539,-2.659,-2.6539,-2.6437,-2.659,-2.6891,-2.6858,-2.7023,-2.733,-2.733,-2.733,-2.7299,-2.7299,-2.7299,-2.7299,-2.7299,-2.7299,-2.7282,-2.7184,-2.7135,-2.707,-2.6657,-2.6556,-2.6487,-2.6085,-2.5905,-2.5852,-2.5888,-2.5705,-2.5668,-2.6262,-2.6101,-2.5848,-2.599,-2.5954,-2.5733,-2.524,-2.4249,-2.3274,-2.2655,-2.1695,-2.0585,-1.9309,-1.8346,-1.7448,-1.6654,-1.5771,-1.5029,-1.4661,-1.4556,-1.4195,-1.3365,-1.3233,-1.266,-1.1396,-1.081,-1.0403,-1.0102,-1.0051,-0.9999,-0.9999,-0.9725,-0.9614,-0.9562,-0.9411,-0.9414,-0.9618,-0.9043,-0.9256,-1.0621,-1.1568,-1.2317,-1.2259,-1.3366,-1.4476,-1.4453,-1.4447,-1.4399,-1.4253,-1.4885,-1.5671,-1.6365,-1.7723,-1.9057,-2.0105,-2.1298,-2.2457,-2.3531,-2.4819,-2.5717,-2.5936,-2.7004,-2.7672,-2.7539,-2.7324,-2.7103,-2.6876,-2.6708,-2.664,-2.6758,-2.6691,-2.6691,-2.6875,-2.6908,-2.6875,-2.6791,-2.6657,-2.6691,-2.6858,-2.6824,-2.6905,-2.7068,-2.7244,-2.7324,-2.7324,-2.7324,-2.7355,-2.7386,-2.7386,-2.739,-2.7376,-2.7376,-2.7362,-2.7299,-2.7299,-2.7299,-2.7299,-2.7299,-2.7299,-2.7299,-2.7282,-2.7282,-2.725,-2.7186,-2.7247,-2.7324,-2.7244,-2.6624,-2.6033,-2.6195,-2.6106,-2.6068,-2.6349,-2.6349,-2.6349,-2.6521,-2.6225,-2.5881,-2.577,-2.5221,-2.4498,-2.3755,-2.351,-2.2944,-2.1686,-2.0511,-1.9269,-1.7912,-1.6694,-1.5607,-1.4714,-1.4407,-1.4228,-1.4192,-1.3908,-1.3453,-1.2797,-1.1766,-1.0922,-1.0419,-1.0154,-0.9999,-0.9999,-0.9725,-0.9562,-0.9413,-0.9685,-0.9679,-0.946,-1.0165,-1.0962,-1.0245,-1.0917,-1.1709,-1.2537,-1.3926,-1.5093,-1.5093,-1.5397,-1.5572,-1.5184,-1.5739,-1.642,-1.6831,-1.8185,-1.978,-2.1425,-2.2644,-2.3476,-2.3756,-2.4626,-2.52,-2.5187,-2.6402,-2.7133,-2.6869,-2.7113,-2.7215,-2.6975,-2.6973,-2.6989,-2.7004,-2.7083,-2.7161,-2.7227,-2.7369,-2.743,-2.743,-2.7474,-2.7444,-2.7338,-2.7517,-2.7636,-2.773,-2.7748,-2.7766,-2.7766,-2.7617,-2.7557,-2.7557,-2.7526,-2.7465,-2.7452,-2.7452,-2.7421,-2.739,-2.7376,-2.7345,-2.7362,-2.7313,-2.7313,-2.7362,-2.733,-2.7313,-2.7362,-2.733,-2.7421,-2.7587,-2.7701,-2.7365,-2.697,-2.697,-2.6757,-2.6674,-2.6939,-2.6841,-2.6724,-2.692,-2.6707,-2.6401,-2.6262,-2.5888,-2.5389,-2.4729,-2.4384,-2.3895,-2.2988,-2.1775,-2.0435,-1.9041,-1.7933,-1.6799,-1.5536,-1.5501,-1.5464,-1.5134,-1.4996,-1.4292,-1.2734,-1.1837,-1.1117,-1.0538,-1.0562,-1.0663,-1.0793,-1.0709,-1.0794,-1.1048,-1.0715,-1.0546,-1.0552,-1.0835,-1.1485,-1.0056,-1.0524,-1.1298,-1.2705,-1.393,-1.5026,-1.5945,-1.6319,-1.6438,-1.6429,-1.7085,-1.7669,-1.7698,-1.8997,-2.0679,-2.2676,-2.3553,-2.3915,-2.3721,-2.4347,-2.4759,-2.453,-2.5835,-2.6606,-2.6271,-2.6953,-2.7341,-2.7152,-2.7227,-2.7334,-2.7382,-2.753,-2.7572,-2.7577,-2.7771,-2.7904,-2.7904,-2.8119,-2.8091,-2.776,-2.8045,-2.8201,-2.8219,-2.8081,-2.8053,-2.8025,-2.7795,-2.7707,-2.7736,-2.76,-2.7539,-2.7569,-2.7526,-2.7526,-2.7496,-2.7452,-2.7438,-2.7407,-2.7376,-2.7376,-2.7407,-2.7376,-2.7376,-2.7438,-2.739,-2.7544,-2.7766,-2.7943,-2.7971,-2.7933,-2.7659,-2.7396,-2.7255,-2.7448,-2.7289,-2.7144,-2.7282,-2.7126,-2.692,-2.6657,-2.6368,-2.6019,-2.5464,-2.5003,-2.4521,-2.4024,-2.2863,-2.1647,-2.0388,-1.9278,-1.8063,-1.6722,-1.6719,-1.6658,-1.6275,-1.6102,-1.5205,-1.3221,-1.2252,-1.1524,-1.1039,-1.1217,-1.1424,-1.1585,-1.1748,-1.1991,-1.2427,-1.1599,-1.1256,-1.1397,-1.1256,-1.1669,-1.0816,-1.1081,-1.1358,-1.2087,-1.2318,-1.3303,-1.6982,-1.6712,-1.6297,-1.8494,-1.9568,-2.015,-2.015,-2.1461,-2.2848,-2.3759,-2.3919,-2.3855,-2.3721,-2.4234,-2.4575,-2.4506,-2.5746,-2.6521,-2.6295,-2.6966,-2.7448,-2.7552,-2.7413,-2.7487,-2.7926,-2.7897,-2.7954,-2.8146,-2.8146,-2.8174,-2.8174,-2.8327,-2.83,-2.8146,-2.8174,-2.8201,-2.8201,-2.8174,-2.8191,-2.8191,-2.8025,-2.8053,-2.8119,-2.7818,-2.773,-2.776,-2.763,-2.7557,-2.7496,-2.7496,-2.7496,-2.7496,-2.7496,-2.7496,-2.7496,-2.7496,-2.7496,-2.7526,-2.7642,-2.7864,-2.8081,-2.8246,-2.8406,-2.844,-2.8,-2.784,-2.7783,-2.7539,-2.763,-2.7713,-2.7683,-2.7422,-2.7109,-2.692,-2.6657,-2.6368,-2.598,-2.5503,-2.5098,-2.4997,-2.4131,-2.3128,-2.2221,-2.0571,-1.9096,-1.8082,-1.7368,-1.7168,-1.7688,-1.697,-1.6255,-1.5783,-1.3753,-1.2567,-1.2569,-1.2133,-1.1936,-1.1967,-1.2253,-1.2317,-1.215,-1.1665,-1.1375,-1.1137,-1.1377,-1.1826,-1.0342,-1.1155,-1.2121,-1.2869,-1.3461,-1.4467,-1.688,-1.7747,-1.8568,-2.0427,-2.1138,-2.1521,-2.195,-2.241,-2.3006,-2.3808,-2.3876,-2.3813,-2.3721,-2.3817,-2.3875,-2.3755,-2.4718,-2.5508,-2.587,-2.6711,-2.7422,-2.7929,-2.7982,-2.8055,-2.8219,-2.8317,-2.8388,-2.8458,-2.8458,-2.8458,-2.8458,-2.851,-2.851,-2.8458,-2.8458,-2.8458,-2.8458,-2.8353,-2.8327,-2.8327,-2.8191,-2.8146,-2.8174,-2.8045,-2.7979,-2.7911,-2.7748,-2.7659,-2.763,-2.7587,-2.7557,-2.7557,-2.76,-2.76,-2.7557,-2.76,-2.76,-2.7587,-2.7672,-2.7893,-2.8126,-2.8273,-2.8458,-2.8536,-2.8228,-2.8183,-2.8165,-2.8035,-2.8091,-2.8183,-2.8237,-2.8055,-2.7869,-2.7783,-2.7457,-2.7132,-2.7036,-2.6437,-2.5892,-2.5577,-2.4965,-2.3987,-2.2493,-2.1685,-2.0656,-1.8939,-1.8412,-1.8213,-1.8464,-1.8104,-1.7698,-1.7093,-1.5094,-1.3593,-1.2721,-1.3055,-1.3145,-1.2919,-1.3482,-1.3838,-1.402,-1.3379,-1.2734,-1.2155,-1.2586,-1.2642,-1.0412,-1.1411,-1.2667,-1.3459,-1.4323,-1.55,-1.7557,-1.8833,-2.0127,-2.2194,-2.2706,-2.2924,-2.3361,-2.3364,-2.3453,-2.3984,-2.3958,-2.3855,-2.3768,-2.3611,-2.3476,-2.3394,-2.4094,-2.4819,-2.5354,-2.6204,-2.7043,-2.7895,-2.8018,-2.8222,-2.85,-2.8612,-2.8637,-2.8587,-2.8587,-2.8587,-2.8587,-2.8587,-2.8637,-2.8687,-2.8687,-2.8687,-2.8687,-2.8536,-2.8518,-2.8601,-2.8422,-2.8396,-2.8482,-2.8404,-2.8299,-2.821,-2.8065,-2.7992,-2.7982,-2.7954,-2.7954,-2.7954,-2.7926,-2.7926,-2.7915,-2.7876,-2.7836,-2.7806,-2.7876,-2.8035,-2.8219,-2.8353,-2.8484,-2.8562,-2.8432,-2.844,-2.8466,-2.8388,-2.844,-2.8543,-2.8612,-2.8518,-2.8406,-2.8327,-2.7979,-2.7689,-2.7617,-2.6987,-2.6386,-2.6071,-2.5519,-2.4632,-2.3357,-2.2672,-2.1592,-1.9699,-1.931,-1.9097,-1.9052,-1.8905,-1.8583,-1.8084,-1.6585,-1.5155,-1.3802,-1.4148,-1.4264,-1.4066,-1.4508,-1.4893,-1.5156,-1.4341,-1.3666,-1.3009,-1.313,-1.307,-1.1305,-1.1937,-1.2802,-1.3602,-1.4488,-1.5993,-1.9278,-1.9858,-2.0602,-2.3771,-2.4459,-2.4478,-2.4411,-2.4445,-2.4479,-2.4412,-2.4228,-2.4054,-2.3917,-2.366,-2.3526,-2.3606,-2.4193,-2.4647,-2.4805,-2.5464,-2.6303,-2.732,-2.7399,-2.781,-2.8731,-2.8785,-2.8737,-2.8612,-2.8587,-2.8587,-2.8587,-2.8612,-2.8712,-2.8905,-2.8887,-2.8887,-2.8905,-2.8712,-2.8797,-2.9104,-2.8821,-2.885,-2.9064,-2.8819,-2.87,-2.87,-2.87,-2.8652,-2.8603,-2.8676,-2.8748,-2.8766,-2.8504,-2.8478,-2.8572,-2.8291,-2.8201,-2.8228,-2.8353,-2.8406,-2.8432,-2.8562,-2.8612,-2.8612,-2.8612,-2.8644,-2.8669,-2.8518,-2.8662,-2.8785,-2.8737,-2.8694,-2.8619,-2.8353,-2.8101,-2.7858,-2.763,-2.6987,-2.6505,-2.6488,-2.5689,-2.5091,-2.5091,-2.3458,-2.176,-2.028,-1.9991,-1.9838,-1.9656,-1.9105,-1.8798,-1.8798,-1.8236,-1.739,-1.613,-1.5507,-1.5225,-1.5167,-1.5352,-1.5245,-1.497,-1.4341,-1.3855,-1.3511,-1.2826,-1.2879,-1.0464,-1.1953,-1.3562,-1.3811,-1.6295,-1.9101,-2.0642,-2.0896,-2.1573,-2.4205,-2.4623,-2.4512,-2.4596,-2.4479,-2.4357,-2.4394,-2.4303,-2.421,-2.4115,-2.3959,-2.3858,-2.3876,-2.4099,-2.4502,-2.5084,-2.5424,-2.5962,-2.6826,-2.7342,-2.7716,-2.7953,-2.8452,-2.8687,-2.8612,-2.8587,-2.8587,-2.8587,-2.8797,-2.892,-2.8966,-2.9151,-2.9191,-2.9056,-2.8971,-2.9016,-2.9104,-2.9016,-2.9038,-2.9086,-2.8911,-2.8842,-2.8842,-2.8748,-2.87,-2.8676,-2.8759,-2.8787,-2.881,-2.8901,-2.8942,-2.8874,-2.8724,-2.8621,-2.859,-2.8651,-2.8694,-2.8718,-2.8897,-2.8892,-2.8839,-2.8998,-2.891,-2.8791,-2.8669,-2.8743,-2.8858,-2.8785,-2.8761,-2.8737,-2.8612,-2.8396,-2.821,-2.8119,-2.7642,-2.7164,-2.6839,-2.6386,-2.5835,-2.5169,-2.3819,-2.2743,-2.2335,-2.1315,-2.062,-2.0446,-1.9759,-1.921,-1.8798,-1.8625,-1.7886,-1.6451,-1.6255,-1.5874,-1.5225,-1.5352,-1.5245,-1.497,-1.4784,-1.43,-1.3511,-1.3761,-1.3761,-1.101,-1.273,-1.4565,-1.5204,-1.7796,-2.0594,-2.2067,-2.2615,-2.3213,-2.4689,-2.4837,-2.4753,-2.4753,-2.4642,-2.4545,-2.4513,-2.4445,-2.4375,-2.4321,-2.4136,-2.404,-2.4153,-2.4135,-2.4318,-2.4852,-2.4984,-2.5335,-2.6123,-2.6576,-2.7021,-2.757,-2.8038,-2.8409,-2.8619,-2.8749,-2.8797,-2.8797,-2.9038,-2.9193,-2.9277,-2.9437,-2.9476,-2.9418,-2.9254,-2.9254,-2.9377,-2.9355,-2.9334,-2.9334,-2.9251,-2.9212,-2.9212,-2.9126,-2.9064,-2.9064,-2.9156,-2.92,-2.9241,-2.936,-2.936,-2.9302,-2.9135,-2.9027,-2.9001,-2.9038,-2.9038,-2.906,-2.9193,-2.9191,-2.9144,-2.9203,-2.9141,-2.9034,-2.8934,-2.8952,-2.8952,-2.8881,-2.8858,-2.881,-2.8761,-2.8569,-2.8414,-2.8335,-2.8035,-2.7654,-2.733,-2.692,-2.6351,-2.5481,-2.4721,-2.4039,-2.3533,-2.27,-2.1937,-2.1342,-2.0534,-1.9952,-1.9604,-1.921,-1.8387,-1.7079,-1.6832,-1.6436,-1.5864,-1.5526,-1.5303,-1.5098,-1.5039,-1.4666,-1.3992,-1.4318,-1.4267,-1.2284,-1.3804,-1.5568,-1.7118,-1.8975,-2.1062,-2.3471,-2.4579,-2.5114,-2.5114,-2.5101,-2.5044,-2.4856,-2.4865,-2.4847,-2.4738,-2.4594,-2.4512,-2.4512,-2.4247,-2.4154,-2.4375,-2.4248,-2.4192,-2.4284,-2.4284,-2.4598,-2.5237,-2.5366,-2.5983,-2.7337,-2.7506,-2.7926,-2.8615,-2.886,-2.9034,-2.9129,-2.9319,-2.9533,-2.9698,-2.9716,-2.9822,-2.9905,-2.9532,-2.9513,-2.9808,-2.9738,-2.972,-2.972,-2.9701,-2.9701,-2.9701,-2.9701,-2.9683,-2.9645,-2.9773,-2.9859,-2.9893,-2.9806,-2.9786,-2.9801,-2.9533,-2.9456,-2.9438,-2.9437,-2.9437,-2.9437,-2.9438,-2.9495,-2.9476,-2.9295,-2.9297,-2.9318,-2.9246,-2.9178,-2.9089,-2.904,-2.8952,-2.8905,-2.8834,-2.8662,-2.8518,-2.8466,-2.8219,-2.8027,-2.7926,-2.733,-2.6673,-2.6002,-2.5875,-2.5368,-2.4219,-2.3974,-2.3443,-2.2381,-2.1438,-2.0894,-2.0894,-1.9914,-1.8934,-1.805,-1.7268,-1.6821,-1.6708,-1.5864,-1.5438,-1.5479,-1.5355,-1.5273,-1.5235,-1.4943,-1.4764,-1.1613,-1.3355,-1.5375,-1.6397,-1.9424,-2.2642,-2.4503,-2.5046,-2.5187,-2.5187,-2.5139,-2.5089,-2.5044,-2.4912,-2.4808,-2.4779,-2.4704,-2.466,-2.4666,-2.4547,-2.4461,-2.4479,-2.4428,-2.4393,-2.4321,-2.4284,-2.434,-2.4466,-2.5054,-2.5527,-2.5792,-2.6395,-2.7156,-2.8037,-2.8141,-2.8542,-2.9319,-2.9588,-2.975,-2.9784,-2.9984,-3.0113,-3.0128,-2.9888,-2.9822,-2.9855,-2.9808,-2.9773,-2.9773,-2.9719,-2.9701,-2.9701,-2.9701,-2.9719,-2.9773,-2.9857,-2.994,-3.0057,-3.0083,-3.0094,-3.0079,-2.9853,-2.9786,-2.9786,-2.9735,-2.9699,-2.9717,-2.9769,-2.9732,-2.9661,-2.9734,-2.968,-2.9607,-2.9532,-2.9332,-2.9156,-2.9156,-2.9089,-2.904,-2.897,-2.8881,-2.8791,-2.8737,-2.8474,-2.8219,-2.7926,-2.7465,-2.7092,-2.6977,-2.6421,-2.5955,-2.5727,-2.4642,-2.3808,-2.3528,-2.2474,-2.1758,-2.1663,-2.0917,-2.0054,-1.9105,-1.7818,-1.6821,-1.6093,-1.5642,-1.6168,-1.7699,-1.7686,-1.8279,-1.9358,-1.7862,-1.6995,-1.1793,-1.3555,-1.583,-1.8696,-2.107,-2.3141,-2.4856,-2.5248,-2.5248,-2.5248,-2.5191,-2.5139,-2.5101,-2.4953,-2.4837,-2.4808,-2.4734,-2.4711,-2.4698,-2.4631,-2.4582,-2.4512,-2.4498,-2.4465,-2.4303,-2.4284,-2.4266,-2.4227,-2.4575,-2.4959,-2.5283,-2.5788,-2.646,-2.7315,-2.7531,-2.7902,-2.8441,-2.8676,-2.8996,-2.9376,-2.9117,-2.9192,-2.9579,-2.9863,-2.9956,-2.9888,-2.9874,-2.9841,-2.9841,-2.9825,-2.9773,-2.9756,-2.9756,-2.9755,-2.9808,-2.9874,-2.9972,-3.0102,-3.019,-3.0204,-3.0171,-3.0083,-3.0034,-3.0034,-2.9988,-3.0007,-2.9988,-3.003,-3.0011,-2.9996,-3.0,-2.9931,-2.9864,-2.9767,-2.9551,-2.9332,-2.9243,-2.9197,-2.9152,-2.9089,-2.9044,-2.8975,-2.8923,-2.8737,-2.85,-2.8264,-2.8021,-2.7875,-2.7857,-2.749,-2.7082,-2.6702,-2.5927,-2.5281,-2.4862,-2.3655,-2.2952,-2.2849,-2.1904,-2.0654,-1.916,-1.8289,-1.7302,-1.6083,-1.5642,-1.6345,-1.8267,-1.8202,-1.9026,-2.0627,-1.9538,-1.9018,-1.2112,-1.3923,-1.6535,-2.1137,-2.2507,-2.3139,-2.4726,-2.5207,-2.5312,-2.5322,-2.525,-2.5168,-2.5126,-2.4993,-2.4874,-2.4823,-2.4749,-2.4692,-2.4698,-2.4631,-2.458,-2.4512,-2.4515,-2.4465,-2.4303,-2.4284,-2.4266,-2.4227,-2.419,-2.4464,-2.5082,-2.53,-2.5764,-2.6543,-2.697,-2.7271,-2.7452,-2.763,-2.8026,-2.8676,-2.8026,-2.8122,-2.8911,-2.958,-2.9901,-2.9937,-2.994,-2.994,-2.994,-2.9905,-2.9874,-2.9825,-2.9825,-2.9842,-2.9859,-2.9907,-3.0022,-3.0132,-3.019,-3.0204,-3.0204,-3.0204,-3.0204,-3.0204,-3.0204,-3.0199,-3.0199,-3.0207,-3.0247,-3.026,-3.0166,-3.0142,-3.0128,-2.9981,-2.9765,-2.9551,-2.939,-2.9307,-2.9246,-2.9246,-2.9203,-2.9138,-2.9115,-2.898,-2.8845,-2.8772,-2.8748,-2.8724,-2.8676,-2.8609,-2.8278,-2.7444,-2.7265,-2.6847,-2.6038,-2.4923,-2.4259,-2.4234,-2.2981,-2.1288,-1.9216,-1.8734,-1.7781,-1.6197,-1.5988,-1.6809,-1.8672,-1.8892,-1.9912,-2.1664,-2.1159,-2.1039,-1.1585,-1.3931,-1.7023,-1.9906,-2.1752,-2.3114,-2.4057,-2.4844,-2.5387,-2.5382,-2.5293,-2.521,-2.5199,-2.5032,-2.4902,-2.4888,-2.4779,-2.4707,-2.4692,-2.4629,-2.4599,-2.4599,-2.4551,-2.4465,-2.4303,-2.4284,-2.4266,-2.4227,-2.419,-2.4245,-2.4335,-2.4542,-2.5067,-2.597,-2.6246,-2.6782,-2.7643,-2.7695,-2.7758,-2.7861,-2.7758,-2.8116,-2.8891,-2.9025,-2.945,-3.0157,-3.0102,-3.0072,-3.0053,-2.9956,-2.9888,-2.9891,-2.9891,-2.9956,-3.0072,-3.0072,-3.0132,-3.019,-3.0204,-3.0204,-3.0204,-3.0204,-3.0204,-3.0204,-3.0204,-3.0199,-3.0207,-3.0207,-3.0241,-3.0292,-3.0279,-3.0323,-3.0311,-3.0109,-3.0047,-2.9943,-2.9644,-2.9494,-2.9456,-2.9456,-2.9398,-2.9379,-2.9495,-2.9358,-2.9272,-2.9359,-2.9339,-2.9297,-2.9272,-2.9027,-2.8722,-2.8442,-2.784,-2.7257,-2.6773,-2.6182,-2.574,-2.555,-2.4315,-2.2659,-2.0447,-1.9307,-1.7727,-1.5575,-1.7115,-1.8921,-2.0961,-2.2624,-2.4316,-2.5941,-2.4214,-2.3294,-1.3115,-1.5037,-1.7238,-2.0268,-2.1635,-2.2559,-2.3862,-2.4447,-2.4865,-2.5364,-2.5378,-2.5312,-2.5312,-2.5187,-2.5031,-2.4975,-2.4847,-2.4738,-2.4695,-2.4647,-2.4599,-2.4547,-2.4515,-2.4465,-2.4303,-2.4284,-2.4266,-2.4227,-2.4266,-2.4302,-2.4302,-2.4575,-2.493,-2.5376,-2.5551,-2.5843,-2.6297,-2.6305,-2.6293,-2.6312,-2.7236,-2.7638,-2.7529,-2.8471,-2.9383,-3.0204,-3.0176,-3.0161,-3.0161,-3.0098,-3.0053,-3.0022,-3.0022,-3.0038,-3.0102,-3.0102,-3.0147,-3.0204,-3.0204,-3.0204,-3.0204,-3.0204,-3.0204,-3.0185,-3.0213,-3.0207,-3.0221,-3.0241,-3.0279,-3.0316,-3.0348,-3.0379,-3.0386,-3.0299,-3.0182,-3.0047,-2.9912,-2.9799,-2.9696,-2.9678,-2.9643,-2.9643,-2.966,-2.957,-2.957,-2.9696,-2.9661,-2.9662,-2.9735,-2.957,-2.9322,-2.8964,-2.8657,-2.8258,-2.7819,-2.7282,-2.6813,-2.6572,-2.5711,-2.3835,-2.0738,-2.0444,-1.8897,-1.5968,-1.757,-1.9418,-2.1357,-2.3265,-2.5076,-2.6774,-2.5809,-2.5438,-1.3872,-1.5269,-1.6598,-1.9587,-2.0862,-2.1712,-2.2978,-2.3767,-2.44,-2.5079,-2.5348,-2.5445,-2.5453,-2.5341,-2.519,-2.5096,-2.4962,-2.4865,-2.4753,-2.4692,-2.4629,-2.4547,-2.4515,-2.4446,-2.4339,-2.4321,-2.4284,-2.4266,-2.4338,-2.4424,-2.4458,-2.4756,-2.4947,-2.4993,-2.5137,-2.5187,-2.5192,-2.5217,-2.5214,-2.5214,-2.6465,-2.6835,-2.644,-2.7701,-2.8848,-2.9879,-3.0089,-3.0204,-3.0204,-3.0204,-3.0176,-3.0132,-3.0132,-3.0132,-3.0132,-3.0132,-3.0161,-3.0204,-3.0204,-3.0204,-3.0204,-3.0204,-3.0199,-3.0199,-3.0194,-3.0221,-3.0228,-3.0299,-3.0304,-3.0336,-3.0398,-3.0398,-3.0398,-3.0398,-3.0299,-3.015,-3.0122,-3.0022,-2.9946,-2.9946,-2.9915,-2.9883,-2.988,-2.9851,-2.9851,-2.9977,-2.9965,-2.995,-3.0034,-2.9988,-2.9784,-2.938,-2.9321,-2.9116,-2.864,-2.8198,-2.7769,-2.7432,-2.6919,-2.5231,-2.1988,-2.177,-2.0313,-1.7317,-1.8448,-1.9882,-2.1556,-2.3452,-2.5261,-2.6989,-2.6775,-2.6923,-1.244,-1.3564,-1.4656,-1.6413,-1.874,-2.059,-2.0679,-2.2567,-2.433,-2.4436,-2.507,-2.5582,-2.5595,-2.5422,-2.5303,-2.5293,-2.5173,-2.5034,-2.4917,-2.4828,-2.4749,-2.4596,-2.4532,-2.4465,-2.4412,-2.4339,-2.4357,-2.4478,-2.4442,-2.4493,-2.4657,-2.4884,-2.4993,-2.4993,-2.5134,-2.5212,-2.5192,-2.5252,-2.5252,-2.5212,-2.5288,-2.5715,-2.6402,-2.6479,-2.7415,-2.9006,-2.9841,-3.0204,-3.0204,-3.0204,-3.0204,-3.0185,-3.0185,-3.0185,-3.0185,-3.0185,-3.0204,-3.0204,-3.0204,-3.0204,-3.0204,-3.0204,-3.0213,-3.0207,-3.0199,-3.0247,-3.0292,-3.0305,-3.0362,-3.0398,-3.0398,-3.0398,-3.0398,-3.0398,-3.0398,-3.0323,-3.0136,-3.0089,-3.0136,-3.0343,-3.0209,-3.0136,-3.0343,-3.0207,-3.0118,-3.0267,-3.0273,-3.0253,-3.0204,-3.0123,-2.9981,-2.9713,-2.968,-2.9457,-2.8909,-2.8864,-2.8657,-2.828,-2.8047,-2.7128,-2.5428,-2.3353,-2.1525,-1.994,-2.0188,-2.0965,-2.2243,-2.4202,-2.5945,-2.7465,-2.7321,-2.7352,-1.2323,-1.3448,-1.4497,-1.6184,-1.8146,-1.9813,-2.0366,-2.1605,-2.279,-2.3392,-2.4185,-2.4777,-2.4826,-2.5163,-2.5412,-2.5367,-2.5245,-2.5133,-2.5034,-2.4962,-2.4904,-2.4861,-2.4804,-2.4727,-2.4666,-2.4651,-2.4617,-2.4639,-2.4731,-2.479,-2.4818,-2.5019,-2.5125,-2.513,-2.5176,-2.519,-2.5192,-2.5282,-2.5282,-2.5192,-2.519,-2.5351,-2.5654,-2.6166,-2.6727,-2.7338,-2.8217,-2.9211,-3.0204,-3.0204,-3.0204,-3.0185,-3.0213,-3.0199,-3.0185,-3.0213,-3.0199,-3.0204,-3.0204,-3.0204,-3.0204,-3.0204,-3.0199,-3.0213,-3.024,-3.0279,-3.0318,-3.0343,-3.0386,-3.0398,-3.0398,-3.0398,-3.0398,-3.0398,-3.0398,-3.0367,-3.0311,-3.0299,-3.0311,-3.0398,-3.0343,-3.0311,-3.0398,-3.033,-3.0318,-3.0367,-3.0323,-3.0299,-3.0273,-3.0234,-3.0166,-3.003,-2.9984,-2.9869,-2.9624,-2.9457,-2.92,-2.892,-2.8768,-2.7791,-2.5772,-2.5367,-2.4348,-2.2582,-2.2891,-2.2917,-2.2547,-2.4475,-2.6191,-2.7689,-2.7491,-2.7552,-1.1973,-1.2781,-1.3694,-1.5679,-1.7039,-1.8278,-1.9735,-2.0701,-2.1546,-2.2425,-2.3266,-2.3883,-2.3949,-2.4577,-2.5175,-2.5439,-2.539,-2.5293,-2.5177,-2.5105,-2.5046,-2.5006,-2.493,-2.4872,-2.4836,-2.4823,-2.4809,-2.4799,-2.4921,-2.5006,-2.5,-2.5125,-2.5203,-2.5209,-2.522,-2.5222,-2.5233,-2.5273,-2.5292,-2.5222,-2.5231,-2.5209,-2.5228,-2.5761,-2.6159,-2.6472,-2.7045,-2.8077,-2.9363,-2.9363,-2.953,-2.9811,-2.9805,-2.9978,-3.0226,-3.0221,-3.0207,-3.0199,-3.0199,-3.0199,-3.0199,-3.0199,-3.0226,-3.0253,-3.0279,-3.0324,-3.0349,-3.0367,-3.0379,-3.0398,-3.0398,-3.039,-3.0402,-3.041,-3.039,-3.0402,-3.041,-3.0398,-3.0398,-3.0398,-3.0398,-3.0398,-3.0398,-3.0398,-3.0398,-3.0398,-3.0367,-3.0336,-3.0336,-3.0311,-3.0279,-3.0218,-3.0188,-3.0161,-3.0003,-2.9883,-2.9676,-2.9399,-2.9439,-2.8758,-2.7218,-2.7133,-2.6494,-2.5212,-2.4843,-2.448,-2.4113,-2.5349,-2.6659,-2.8065,-2.7926,-2.7943,0.0,0.0,0.0,-1.4588,-1.5248,-1.5967,-1.8511,-1.9754,-2.0633,-2.1543,-2.2362,-2.295,-2.3037,-2.3713,-2.4538,-2.543,-2.5574,-2.5531,-2.5327,-2.5254,-2.5166,-2.5043,-2.4943,-2.4917,-2.4896,-2.485,-2.4864,-2.5006,-2.5019,-2.5063,-2.5191,-2.5191,-2.5195,-2.5192,-2.5264,-2.5303,-2.5303,-2.5303,-2.5293,-2.5292,-2.5311,-2.5282,-2.5192,-2.5192,-2.565,-2.6469,-2.6469,-2.6885,-2.7625,-2.7682,-2.8192,-2.8957,-2.8996,-2.95,-3.0235,-3.0273,-3.0247,-3.0169,-3.0188,-3.0188,-3.0188,-3.0188,-3.0241,-3.0304,-3.0305,-3.0349,-3.0379,-3.0316,-3.0348,-3.0398,-3.041,-3.0414,-3.0406,-3.039,-3.0394,-3.0406,-3.039,-3.041,-3.041,-3.0398,-3.0398,-3.0398,-3.0398,-3.0398,-3.0398,-3.0398,-3.0398,-3.041,-3.041,-3.0348,-3.0279,-3.0213,-3.0321,-3.0302,-3.0034,-3.0131,-3.0065,-2.9751,-3.0018,-3.0131,-3.0022,-2.8576,-2.7786,-2.7786,-2.5923,-2.5648,-2.7015,-2.6874,-2.7431,-2.8603,-2.8621,-2.8489,-1.0679,0.0,0.0,0.0,0.0,0.0,-1.62,-1.7054,-1.8111,-1.9609,-2.0603,-2.14,-2.2041,-2.2814,-2.365,-2.4516,-2.5185,-2.5564,-2.5471,-2.5441,-2.5393,-2.5303,-2.5274,-2.5264,-2.5262,-2.5212,-2.519,-2.5209,-2.5168,-2.5157,-2.5209,-2.5209,-2.522,-2.5282,-2.5292,-2.5312,-2.5303,-2.5303,-2.5303,-2.5293,-2.5302,-2.5282,-2.5282,-2.5222,-2.5327,-2.5565,-2.5565,-2.5688,-2.5983,-2.7198,-2.7829,-2.8134,-2.8753,-2.8797,-2.8644,-2.9838,-2.9883,-2.9423,-3.001,-3.0234,-3.0266,-3.0221,-3.0247,-3.0305,-3.0311,-3.0304,-3.0336,-3.0348,-3.0398,-3.041,-3.0394,-3.0414,-3.0414,-3.0466,-3.0447,-3.0417,-3.0458,-3.0477,-3.0466,-3.041,-3.0398,-3.0398,-3.0398,-3.0398,-3.0398,-3.0398,-3.0398,-3.0414,-3.0462,-3.0472,-3.0452,-3.0482,-3.0472,-3.0443,-3.0372,-3.0321,-3.0244,-3.0203,-3.0203,-3.0234,-3.0285,-2.9825,-2.9658,-2.9787,-2.9167,-2.9067,-2.9506,-2.7732,-2.7587,-2.8952,-2.8772,-2.8628,-1.0909,-1.1841,-1.3029,-1.3116,0.0,0.0,-1.6146,-1.6506,-1.6984,-1.8372,-1.9064,-1.9686,-2.055,-2.1405,-2.2226,-2.3077,-2.3955,-2.4748,-2.5402,-2.5505,-2.5476,-2.541,-2.5393,-2.5395,-2.5398,-2.5361,-2.5332,-2.5292,-2.5252,-2.5222,-2.5192,-2.5222,-2.5252,-2.5311,-2.5302,-2.5293,-2.5303,-2.5303,-2.5303,-2.5303,-2.5293,-2.5302,-2.5302,-2.5253,-2.5233,-2.5252,-2.5252,-2.5222,-2.5288,-2.624,-2.6902,-2.729,-2.7792,-2.7931,-2.7961,-2.8933,-2.896,-2.8579,-2.9034,-2.9219,-2.925,-2.9206,-2.948,-2.9805,-2.9798,-3.0059,-3.0348,-3.0398,-3.039,-3.0414,-3.0428,-3.0447,-3.0447,-3.0499,-3.0479,-3.0449,-3.0479,-3.0499,-3.0488,-3.0455,-3.0444,-3.0425,-3.0402,-3.0402,-3.0414,-3.0439,-3.0439,-3.0462,-3.0527,-3.0543,-3.0535,-3.0516,-3.0556,-3.0556,-3.0468,-3.046,-3.0442,-3.0395,-3.0323,-3.0309,-3.0359,-3.0378,-3.0449,-3.0569,-3.0508,-3.0498,-3.0508,-2.8982,-2.8598,-2.9256,-2.8888,-2.87,-1.1717,-1.1853,-1.2574,-1.4603,-1.4752,0.0,-1.7009,-1.695,-1.6716,-1.7579,-1.7754,-1.8026,-1.888,-1.9696,-2.0488,-2.1289,-2.2144,-2.3318,-2.4995,-2.5227,-2.5219,-2.5255,-2.5266,-2.5288,-2.5388,-2.5398,-2.538,-2.5321,-2.5292,-2.5262,-2.5222,-2.5262,-2.5292,-2.5292,-2.5293,-2.5303,-2.5303,-2.5303,-2.5303,-2.5303,-2.5303,-2.5303,-2.5303,-2.5303,-2.5293,-2.5292,-2.5292,-2.5273,-2.5214,-2.5203,-2.5693,-2.6463,-2.6559,-2.7003,-2.7621,-2.7832,-2.7791,-2.7692,-2.7758,-2.7796,-2.7808,-2.7796,-2.833,-2.8967,-2.9063,-2.964,-3.0256,-3.0256,-3.0202,-3.0139,-3.0209,-3.0288,-3.0356,-3.0365,-3.0423,-3.0491,-3.0519,-3.0509,-3.0509,-3.0509,-3.0509,-3.0479,-3.0428,-3.0428,-3.0441,-3.0492,-3.051,-3.0535,-3.06,-3.0607,-3.0574,-3.0463,-3.06,-3.0637,-3.0463,-3.0607,-3.0639,-3.0463,-3.0414,-3.0394,-3.0342,-3.043,-3.0479,-3.0499,-3.0569,-3.0555,-3.0488,-3.0237,-2.9921,-2.957,-2.9055,-2.8805,-1.2929,-1.4082,-1.5293,-1.3708,-1.4761,0.0,-1.5052,-1.5258,-1.5874,-1.6697,-1.6845,-1.7117,-1.7987,-1.8298,-1.8686,-1.9541,-2.0415,-2.157,-2.325,-2.3495,-2.3715,-2.437,-2.4424,-2.4687,-2.5335,-2.5397,-2.5389,-2.538,-2.5332,-2.5293,-2.5282,-2.5283,-2.5303,-2.5303,-2.5303,-2.5303,-2.5303,-2.5303,-2.5303,-2.5303,-2.5303,-2.5303,-2.5303,-2.5303,-2.5303,-2.5303,-2.5303,-2.5322,-2.5365,-2.5303,-2.5398,-2.5618,-2.6329,-2.6292,-2.5986,-2.7371,-2.7448,-2.6937,-2.7577,-2.7838,-2.7879,-2.7827,-2.7964,-2.8255,-2.889,-2.9217,-2.9363,-2.9413,-2.8923,-2.8404,-2.8473,-2.8975,-2.9477,-2.9516,-3.0028,-3.0501,-3.0579,-3.0588,-3.0588,-3.0588,-3.053,-3.0499,-3.0479,-3.053,-3.0577,-3.0586,-3.0579,-3.06,-3.0667,-3.0672,-3.0697,-3.0711,-3.0754,-3.0759,-3.073,-3.0754,-3.0754,-3.0711,-3.0568,-3.0505,-3.0537,-3.0462,-3.0439,-3.0499,-3.0571,-3.0539,-3.0428,-3.0318,-3.0202,-3.0056,-2.9677,-2.9493,-1.3805,-1.4411,-1.5291,-1.4862,-1.5391,0.0,0.0,-1.54,-1.5621,-1.6431,-1.6285,-1.6396,-1.7676,-1.754,-1.754,-1.8414,-1.9288,-1.9998,-2.0404,-2.1912,-2.314,-2.3521,-2.3557,-2.3891,-2.4725,-2.4806,-2.4962,-2.5378,-2.537,-2.5351,-2.5351,-2.5332,-2.5313,-2.5351,-2.5313,-2.5313,-2.5351,-2.5313,-2.5303,-2.5303,-2.534,-2.5339,-2.5348,-2.5371,-2.5387,-2.5387,-2.5387,-2.5418,-2.5446,-2.541,-2.5406,-2.5448,-2.5813,-2.5677,-2.5399,-2.6274,-2.6332,-2.6014,-2.6408,-2.6581,-2.6601,-2.6561,-2.6879,-2.7332,-2.7736,-2.8151,-2.8519,-2.8579,-2.83,-2.7962,-2.7999,-2.8289,-2.8714,-2.9186,-2.9602,-3.0037,-3.0501,-3.0598,-3.0598,-3.0598,-3.0558,-3.0557,-3.0539,-3.0576,-3.0618,-3.0652,-3.0658,-3.0667,-3.0735,-3.0758,-3.0762,-3.081,-3.0807,-3.0804,-3.0791,-3.0807,-3.0804,-3.0791,-3.0677,-3.0594,-3.0603,-3.0509,-3.0472,-3.054,-3.0585,-3.0581,-3.0507,-3.0507,-3.039,-3.0133,-2.9851,-2.9649,-1.5088,-1.4971,-1.5362,-1.6435,-1.6422,-1.6191,0.0,0.0,0.0,-1.6278,-1.584,-1.581,-1.7167,-1.6829,-1.6573,-1.7288,-1.8123,-1.8449,-1.7752,-2.0166,-2.2113,-2.2391,-2.2565,-2.3016,-2.3864,-2.3798,-2.4041,-2.4866,-2.4925,-2.4994,-2.5138,-2.5264,-2.5332,-2.5398,-2.5361,-2.5361,-2.5407,-2.5361,-2.5322,-2.5322,-2.5393,-2.5414,-2.5395,-2.5473,-2.5504,-2.5504,-2.5504,-2.551,-2.5521,-2.551,-2.551,-2.551,-2.539,-2.535,-2.534,-2.5322,-2.5313,-2.5313,-2.5313,-2.5303,-2.5313,-2.5313,-2.59,-2.6601,-2.6601,-2.7083,-2.7672,-2.772,-2.7623,-2.7488,-2.7522,-2.7619,-2.7929,-2.8625,-2.905,-2.9495,-3.0192,-3.0482,-3.0607,-3.0606,-3.0607,-3.0605,-3.0591,-3.0618,-3.0659,-3.07,-3.0728,-3.0755,-3.0799,-3.0801,-3.0801,-3.0801,-3.0801,-3.0801,-3.0801,-3.0801,-3.0801,-3.0801,-3.0758,-3.0697,-3.062,-3.0545,-3.0527,-3.0598,-3.0598,-3.0593,-3.0594,-3.0672,-3.0526,-3.0197,-2.9941,-2.976,-1.7782,-1.8114,-1.8386,-1.704,-1.7782,-1.8275,-1.6055,0.0,-1.6366,-1.569,0.0,-1.5468,-1.566,0.0,0.0,-1.5578,-1.6339,-1.686,-1.6766,-1.7743,-1.9032,-2.0507,-2.1372,-2.2159,-2.2977,-2.2357,-2.2257,-2.3122,-2.3179,-2.3507,-2.421,-2.4982,-2.5387,-2.5406,-2.5387,-2.5387,-2.5406,-2.5387,-2.5388,-2.5389,-2.5456,-2.5468,-2.5395,-2.5473,-2.5504,-2.5504,-2.5504,-2.5532,-2.557,-2.5526,-2.5532,-2.5589,-2.551,-2.548,-2.5473,-2.5403,-2.5398,-2.5398,-2.5398,-2.5339,-2.5303,-2.5374,-2.5937,-2.6601,-2.6602,-2.667,-2.6757,-2.6832,-2.629,-2.5719,-2.5774,-2.6304,-2.6876,-2.6973,-2.818,-2.9321,-2.9437,-3.0056,-3.0606,-3.061,-3.0605,-3.0593,-3.0593,-3.0691,-3.0781,-3.0788,-3.0838,-3.0884,-3.0886,-3.0843,-3.0801,-3.0801,-3.0801,-3.0801,-3.0801,-3.0801,-3.0801,-3.0801,-3.0794,-3.0758,-3.0682,-3.0574,-3.0527,-3.0598,-3.0598,-3.0604,-3.06,-3.0667,-3.0641,-3.0537,-3.0385,-3.024,-1.8231,-1.8641,-1.8992,-1.7763,-1.7997,-1.8136,-1.6521,-1.6053,-1.5996,-1.6127,0.0,0.0,0.0,0.0,0.0,0.0,-1.6052,-1.6415,-1.592,-1.7038,-1.815,-1.8866,-1.9242,-1.9972,-2.1327,-2.1591,-2.2003,-2.2835,-2.2439,-2.2732,-2.4099,-2.4469,-2.4874,-2.5385,-2.5395,-2.5395,-2.5404,-2.5395,-2.5412,-2.5453,-2.5531,-2.5529,-2.5512,-2.5582,-2.5616,-2.5609,-2.5609,-2.5639,-2.5651,-2.5636,-2.5639,-2.5651,-2.5636,-2.558,-2.5498,-2.5473,-2.5432,-2.5414,-2.5446,-2.541,-2.5365,-2.5432,-2.5654,-2.5906,-2.5959,-2.5948,-2.5967,-2.5998,-2.5746,-2.5456,-2.5484,-2.5762,-2.6138,-2.6648,-2.7709,-2.8733,-2.924,-3.0009,-3.061,-3.0645,-3.0656,-3.0667,-3.0711,-3.0758,-3.0819,-3.0849,-3.0871,-3.0891,-3.0907,-3.0886,-3.0845,-3.0801,-3.0801,-3.0801,-3.0801,-3.0801,-3.0821,-3.0864,-3.0819,-3.0791,-3.0762,-3.0672,-3.0607,-3.0607,-3.0599,-3.0603,-3.0593,-3.0667,-3.0708,-3.0701,-3.0589,-3.0404,-1.8953,-1.9344,-1.9695,-1.8348,-1.7998,-1.7707,-1.6597,-1.6226,-1.6228,-1.662,-1.6581,0.0,0.0,0.0,-1.6039,-1.5806,0.0,-1.6325,-1.544,-1.6424,-1.7307,-1.752,-1.7708,-1.8302,-1.9571,-2.0055,-2.0733,-2.1785,-2.1275,-2.1687,-2.3415,-2.3902,-2.4424,-2.5058,-2.5302,-2.5445,-2.5449,-2.5461,-2.549,-2.5531,-2.5591,-2.5621,-2.56,-2.5668,-2.5694,-2.5691,-2.5709,-2.5709,-2.5709,-2.5707,-2.5707,-2.5707,-2.5707,-2.5642,-2.5547,-2.5532,-2.5498,-2.546,-2.551,-2.5486,-2.5432,-2.5486,-2.5441,-2.541,-2.5512,-2.5525,-2.5525,-2.5525,-2.5531,-2.5531,-2.5531,-2.5531,-2.5738,-2.6623,-2.7496,-2.8368,-2.9225,-3.0044,-3.0656,-3.0708,-3.0735,-3.0742,-3.0829,-3.0827,-3.0849,-3.0897,-3.0897,-3.0895,-3.0891,-3.0873,-3.0852,-3.0823,-3.0808,-3.0808,-3.0823,-3.0825,-3.0847,-3.0891,-3.0847,-3.0821,-3.0801,-3.0742,-3.0697,-3.06,-3.0614,-3.0613,-3.0592,-3.0661,-3.0733,-3.0801,-3.0665,-3.0498,-2.0749,-2.1159,-2.1196,-1.8641,-1.7998,-1.755,-1.5836,-1.6734,-1.7692,-1.6875,-1.8027,-1.8924,-1.8103,-1.794,0.0,0.0,0.0,0.0,0.0,-1.544,-1.5772,-1.656,-1.7326,-1.7813,-1.7871,-1.7199,-1.7456,-1.9093,-1.919,-1.9931,-2.1687,-2.3315,-2.4206,-2.4245,-2.5066,-2.5531,-2.5599,-2.5599,-2.5595,-2.5604,-2.5665,-2.5657,-2.5593,-2.5675,-2.57,-2.5699,-2.5696,-2.5693,-2.5693,-2.5709,-2.5707,-2.5707,-2.5707,-2.5707,-2.5683,-2.5613,-2.5598,-2.5598,-2.5598,-2.5547,-2.5498,-2.5504,-2.5454,-2.5427,-2.5565,-2.5595,-2.5604,-2.5593,-2.5598,-2.5598,-2.5598,-2.5598,-2.5812,-2.6693,-2.7558,-2.8423,-2.9226,-3.0069,-3.0729,-3.0774,-3.0792,-3.0814,-3.0898,-3.0898,-3.0898,-3.0898,-3.0898,-3.0897,-3.0897,-3.0839,-3.0839,-3.0889,-3.0838,-3.0839,-3.0889,-3.0892,-3.0895,-3.0897,-3.0897,-3.0874,-3.0801,-3.0799,-3.0728,-3.06,-3.0661,-3.0669,-3.0604,-3.0663,-3.0736,-3.0794,-3.0658,-3.06,-2.233,-2.2896,-2.2933,-2.0359,-1.9716,-1.9112,-1.6793,-1.7165,-1.7752,-1.6875,-1.8086,-1.9023,-1.8164,-1.8008,0.0,0.0,0.0,0.0,0.0,-1.4036,-1.3991,-1.4834,-1.5668,-1.6376,-1.6943,-1.7277,-1.7936,-1.9081,-1.9134,-1.9865,-2.1609,-2.2229,-2.3043,-2.4148,-2.4484,-2.4942,-2.56,-2.56,-2.5617,-2.5666,-2.5687,-2.5694,-2.566,-2.5681,-2.5701,-2.57,-2.5699,-2.5697,-2.5693,-2.5693,-2.5709,-2.5707,-2.5707,-2.5707,-2.5707,-2.5679,-2.5642,-2.5601,-2.5601,-2.5589,-2.5565,-2.5613,-2.5582,-2.5556,-2.5644,-2.5678,-2.5662,-2.5605,-2.5601,-2.5601,-2.5609,-2.5605,-2.5687,-2.6027,-2.7188,-2.8288,-2.861,-2.9778,-3.0793,-3.0859,-3.0838,-3.0816,-3.0898,-3.0898,-3.0898,-3.0898,-3.0898,-3.0879,-3.0837,-3.0817,-3.0795,-3.0772,-3.0796,-3.0819,-3.084,-3.0878,-3.0897,-3.0897,-3.0898,-3.0898,-3.0877,-3.0876,-3.0829,-3.0728,-3.0755,-3.0732,-3.0661,-3.0682,-3.073,-3.0791,-3.0743,-3.0677,-2.3189,-2.3735,-2.3851,-2.1627,-2.1061,-2.0458,-1.8159,-1.8532,-1.9138,-1.8261,-1.9238,-2.0136,-1.9863,-1.9062,0.0,0.0,0.0,0.0,0.0,-1.3622,-1.3465,-1.4031,-1.454,-1.5183,-1.6044,-1.6654,-1.7461,-1.8649,-1.8702,-1.9435,-2.118,-2.1549,-2.2344,-2.3727,-2.407,-2.4674,-2.5601,-2.5601,-2.5634,-2.5703,-2.5702,-2.5703,-2.5703,-2.5703,-2.5703,-2.5703,-2.5702,-2.57,-2.5698,-2.5697,-2.5696,-2.5693,-2.5691,-2.5709,-2.5709,-2.5707,-2.5679,-2.5642,-2.5642,-2.5613,-2.5609,-2.5681,-2.5659,-2.5606,-2.5683,-2.5709,-2.5691,-2.5642,-2.5637,-2.564,-2.5644,-2.5644,-2.5724,-2.6089,-2.7225,-2.832,-2.869,-2.9843,-3.082,-3.0894,-3.0879,-3.0859,-3.0898,-3.0898,-3.0898,-3.0898,-3.0898,-3.0878,-3.081,-3.0804,-3.0774,-3.0716,-3.0757,-3.0811,-3.0838,-3.0858,-3.0879,-3.0898,-3.0898,-3.0898,-3.0898,-3.0898,-3.0877,-3.0801,-3.0797,-3.0762,-3.0702,-3.0704,-3.0719,-3.0767,-3.0754,-3.0721]},{"header":{"parameterUnit":"m.s-1","parameterCategory":1,"la1":30.6,"la2":29.2853,"lo1":-89.7004,"lo2":-87.6739,"dy":0.0162,"dx":0.0183,"nx":112,"ny":82,"refTime":"2024-07-24T12:00:00:Z","depth":0,"parameterNumber":3,"parameterNumberName":"V-component_of_WINDS"},"data":[0.0,0.0,0.0,0.0,0.0,0.0,0.0,0.0,0.0,0.0,0.0,0.0,0.0,0.0,0.0,0.0,0.0,0.0,0.0,0.0,0.0,0.0,0.0,0.0,0.0,0.0,0.0,0.0,0.0,0.0,0.0,0.0,0.0,0.0,0.0,0.0,0.0,0.0,0.0,0.0,0.0,0.0,0.0,0.0,0.0,0.0,0.0,0.0,0.0,0.0,0.0,0.0,0.0,0.0,0.0,0.0,0.0,0.0,0.0,0.0,0.0,0.0,0.0,0.0,0.0,0.0,0.0,0.0,0.0,0.0,0.0,0.0,0.0,0.0,0.0,0.0,0.0,0.0,0.0,0.0,0.0,0.0,0.0,0.0,0.0,0.0,0.0,0.0,0.0,0.0,0.7967,0.9099,1.079,1.1974,1.2329,1.2622,1.177,0.9389,0.0,0.0,0.0,0.0,0.0,0.0,0.0,0.0,0.0,0.0,0.0,0.0,0.0,0.0,0.0,0.0,0.0,0.0,0.0,0.0,0.0,0.0,0.0,0.0,0.0,0.0,0.0,0.0,0.0,0.0,0.0,0.0,0.0,0.0,0.0,0.0,0.0,0.0,0.0,0.0,0.0,0.0,0.0,0.0,0.0,0.0,0.0,0.0,0.0,0.0,0.0,0.0,0.0,0.0,0.0,0.0,0.0,0.0,0.0,0.0,0.0,0.0,0.0,0.0,0.0,0.0,0.0,0.0,0.0,0.0,0.0,0.0,0.0,0.0,0.0,0.0,0.0,0.0,0.0,0.0,0.0,0.0,0.0,0.0,0.0,0.0,0.0,0.0,0.0,0.0,0.0,0.0,0.0,0.0,0.0,0.0,0.0,0.0,0.0,0.0,0.0,0.0,0.0,0.0,0.8004,0.9995,1.1543,1.2504,1.2551,1.2728,1.1967,0.9983,0.0,0.0,0.0,0.0,0.0,0.0,0.0,0.0,0.0,0.0,0.0,0.0,0.0,0.0,0.0,0.0,0.0,0.0,0.0,0.0,0.0,0.0,0.0,0.0,0.0,0.0,0.0,0.0,0.0,0.0,0.0,0.0,0.0,0.0,0.0,0.0,0.0,0.0,0.0,0.0,0.0,0.0,0.0,0.0,0.0,0.0,0.0,0.0,0.0,0.0,0.0,0.0,0.0,0.0,0.0,0.0,0.0,0.0,0.0,0.0,0.0,0.0,0.0,0.0,0.0,0.0,0.0,0.0,0.0,0.0,0.0,0.0,0.0,0.0,0.0,0.0,0.0,0.0,0.0,0.0,0.0,0.0,0.0,0.0,0.0,0.0,0.0,0.0,0.0,0.0,0.0,0.0,0.0,0.0,0.0,0.0,0.0,0.0,0.0,0.0,0.0,0.0,0.0,0.7452,0.8474,1.0024,1.1273,1.2079,1.2294,1.2448,1.1736,0.9861,0.9403,0.0,0.0,0.0,0.0,0.0,0.0,0.0,0.0,0.0,0.0,0.0,0.0,0.0,0.0,0.0,0.0,0.0,0.0,0.0,0.0,0.0,0.0,0.0,0.0,0.0,0.0,0.0,0.0,0.0,0.0,0.0,0.0,0.0,0.0,0.0,0.0,0.0,0.0,0.0,0.0,0.0,0.0,0.0,0.0,0.0,0.0,0.0,0.0,0.0,0.0,0.0,0.0,0.0,0.0,0.0,0.0,0.0,0.0,0.0,0.0,0.0,0.0,0.0,0.0,0.0,0.0,0.0,0.0,0.0,0.0,0.0,0.0,0.0,0.0,0.0,0.0,0.0,0.0,0.0,0.0,0.0,0.0,0.0,0.0,0.0,0.0,0.0,0.0,0.0,0.0,0.0,0.0,0.0,0.0,0.0,0.0,0.0,0.0,0.0,0.0,0.0,0.0,0.8008,0.8862,0.9733,1.0641,1.1345,1.1774,1.1878,1.118,0.9434,0.8973,0.0,0.0,0.0,0.0,0.0,0.0,0.0,0.0,0.0,0.0,0.0,0.0,0.0,0.0,0.0,0.0,0.0,0.0,0.0,0.0,0.0,0.0,0.0,0.0,0.0,0.0,0.0,0.0,0.0,0.0,0.0,0.0,0.0,0.0,0.0,0.0,0.0,0.0,0.0,0.0,0.0,0.0,0.0,0.0,0.0,0.0,0.0,0.0,0.0,0.0,0.0,0.0,0.0,0.0,0.0,0.0,0.0,0.0,0.0,0.0,0.0,0.0,0.0,0.0,0.0,0.0,0.0,0.0,0.0,0.0,0.0,0.0,0.0,0.0,0.0,0.0,0.0,0.0,0.0,0.0,0.0,0.0,0.0,0.0,0.0,0.0,0.0,0.0,0.0,0.0,0.0,0.0,0.0,0.0,0.0,0.0,0.0,0.0,0.0,0.0,0.0,0.0,0.769,0.8751,0.9201,0.9863,1.0494,1.0954,1.0889,1.0235,0.8939,0.8358,0.0,0.0,0.0,0.0,0.0,0.0,0.0,0.0,0.0,0.0,0.0,0.0,0.0,0.0,0.0,0.0,0.0,0.0,0.0,0.0,0.0,0.0,0.0,0.0,0.0,0.0,0.0,0.0,0.0,0.0,0.0,0.0,0.0,0.0,0.0,0.0,0.0,0.0,0.0,0.0,0.0,0.0,0.0,0.0,0.0,0.0,0.0,0.0,0.0,0.0,0.0,0.0,0.0,0.0,0.0,0.0,0.0,0.0,0.0,0.0,0.0,0.0,0.0,0.0,0.0,0.0,0.0,0.0,0.0,0.0,0.0,0.0,0.0,0.0,0.0,0.0,0.0,0.0,0.0,0.0,0.0,0.0,0.0,0.0,0.0,0.0,0.0,0.0,0.0,0.0,0.0,0.0,0.0,0.0,0.0,0.0,0.0,0.0,0.0,0.0,0.0,0.0,0.7029,0.8094,0.8941,0.9727,1.0379,1.0878,1.0821,1.0151,0.8778,0.0,0.0,0.0,0.0,0.0,0.0,0.0,0.0,0.0,0.0,0.0,0.0,0.0,0.0,0.0,0.0,0.0,0.0,0.0,0.0,0.0,0.0,0.0,0.0,0.0,0.0,0.0,0.0,0.0,0.0,0.0,0.0,0.0,0.0,0.0,0.0,0.0,0.0,0.0,0.0,0.0,0.0,0.0,0.0,0.0,0.0,0.0,0.0,0.0,0.0,0.0,0.0,0.0,0.0,0.0,0.0,0.0,0.0,0.0,0.0,0.0,0.0,0.0,0.0,0.0,0.0,0.0,0.0,0.0,0.0,0.0,0.0,0.0,0.0,0.0,0.0,0.0,0.0,0.0,0.0,0.0,0.0,0.0,0.0,0.0,0.0,0.0,0.0,0.0,0.0,0.0,0.0,0.0,0.0,0.0,0.0,0.0,0.0,0.0,0.0,0.0,0.0,0.5365,0.6562,0.773,0.8633,0.9376,1.0001,1.0447,1.0103,0.9391,0.8247,0.0,0.0,0.0,0.0,0.0,0.0,0.0,0.0,0.0,0.0,0.0,0.0,0.0,0.0,0.0,0.0,0.0,0.0,0.0,0.0,0.0,0.0,0.0,0.0,0.0,0.0,0.0,0.0,0.0,0.0,0.0,0.0,0.0,0.0,0.0,0.0,0.0,0.0,0.0,0.0,0.0,0.0,0.0,0.0,0.0,0.0,0.0,0.0,0.0,0.0,0.0,0.0,0.0,0.0,0.0,0.0,0.0,0.0,0.0,0.0,0.0,0.0,0.0,0.0,0.0,0.0,0.0,0.0,0.0,0.0,0.0,0.0,0.0,0.0,0.0,0.0,0.0,0.0,0.0,0.0,0.0,0.0,0.0,0.0,0.0,0.0,0.0,0.0,0.0,0.0,0.0,0.0,0.0,0.0,0.0,0.0,0.0,0.0,0.0,0.0,0.0,0.0,0.4866,0.6443,0.7771,0.8253,0.8715,0.9168,0.9579,0.8562,0.7719,0.0,0.0,0.0,0.0,0.0,0.0,0.0,0.0,0.0,0.0,0.0,0.0,0.0,0.0,0.0,0.0,0.0,0.0,0.0,0.0,0.0,0.0,0.0,0.0,0.0,0.0,0.0,0.0,0.0,0.0,0.0,0.0,0.0,0.0,0.0,0.0,0.0,0.0,0.0,0.0,0.0,0.0,0.0,0.0,0.0,0.0,0.0,0.0,0.0,0.0,0.0,0.0,0.0,0.0,0.0,0.0,0.0,0.0,0.0,0.0,0.0,0.0,0.0,0.0,0.0,0.0,0.0,0.0,0.0,0.0,0.0,0.0,0.0,0.0,0.0,0.0,0.0,0.0,0.0,0.0,0.0,0.0,0.0,0.0,0.0,0.0,0.0,0.0,0.0,0.0,0.0,0.0,0.0,0.0,0.0,0.0,0.0,0.0,0.0,0.0,0.0,0.0,0.0,0.5079,0.6367,0.7476,0.8106,0.8411,0.8846,0.954,0.8558,0.7828,0.7577,0.0,0.0,0.0,0.0,0.0,0.0,0.0,0.0,0.0,0.0,0.0,0.0,0.0,0.0,0.0,0.0,0.0,0.0,0.0,0.0,0.0,0.0,0.0,0.0,0.0,0.0,0.0,0.0,0.0,0.0,0.0,0.0,0.0,0.0,0.0,0.0,0.0,0.0,0.0,0.0,0.0,0.0,0.0,0.0,0.0,0.0,0.0,0.0,0.0,0.0,0.0,0.0,0.0,0.0,0.0,0.0,0.0,0.0,0.0,0.0,0.0,0.0,0.0,0.0,0.0,0.0,0.0,0.0,0.0,0.0,0.0,0.0,0.0,0.0,0.0,0.0,0.0,0.0,0.0,0.0,0.0,0.0,0.0,0.0,0.0,0.0,0.0,0.0,0.0,0.0,0.0,0.0,0.0,0.0,0.0,0.0,0.0,0.0,0.0,0.0,0.0,0.0,0.4812,0.6058,0.7106,0.7479,0.7903,0.8341,0.8844,0.8148,0.7518,0.7049,0.0,0.0,0.0,0.0,0.0,0.0,0.0,0.0,0.0,0.0,0.0,0.0,0.0,0.0,0.0,0.0,0.0,0.0,0.0,0.0,0.0,0.0,0.0,0.0,0.0,0.0,0.0,0.0,0.0,0.0,0.0,0.0,0.0,0.0,0.0,0.0,0.0,0.0,0.0,0.0,0.0,0.0,0.0,0.0,0.0,0.0,0.0,0.0,0.0,0.0,0.0,0.0,0.0,0.0,0.0,0.0,0.0,0.0,0.0,0.0,0.0,0.0,0.0,0.0,0.0,0.0,0.0,0.0,0.0,0.0,0.0,0.0,0.0,0.0,0.0,0.0,0.0,0.0,0.0,0.0,0.0,0.0,0.0,0.0,0.0,0.0,0.0,0.0,0.0,0.0,0.0,0.0,0.0,0.0,0.0,0.0,0.0,0.0,0.0,0.0,0.0,0.0,0.4187,0.5571,0.6582,0.6659,0.7289,0.7702,0.7743,0.7441,0.6892,0.6074,0.0,0.0,0.0,0.0,0.0,0.0,0.0,0.0,0.0,0.0,0.0,0.0,0.0,0.0,0.0,0.0,0.0,0.0,0.0,0.0,0.0,0.0,0.0,0.0,0.0,0.0,0.0,0.0,0.0,0.0,0.0,0.0,0.0,0.0,0.0,0.0,0.0,0.0,0.0,0.0,0.0,0.0,0.0,0.0,0.0,0.0,0.0,0.0,0.0,0.0,0.0,0.0,0.0,0.0,0.0,0.0,0.0,0.0,0.0,0.0,-1.1206,-1.0023,0.0,0.0,0.0,0.0,0.0,0.0,0.0,0.0,0.0,0.0,0.0,0.0,0.0,0.0,0.0,0.0,0.0,0.0,0.0,0.0,0.0,0.0,0.0,0.0,0.0,0.0,0.0,0.0,0.0,0.0,0.0,0.0,0.0,0.0,0.0,0.0,0.0,0.0,0.0,0.0,0.3846,0.4899,0.576,0.6181,0.6651,0.7049,0.737,0.6667,0.6164,0.6072,0.524,0.0,0.0,0.0,0.0,0.0,0.0,0.0,0.0,0.0,0.0,0.0,0.0,0.0,0.0,0.0,0.0,0.0,0.0,0.0,0.0,0.0,0.0,0.0,0.0,0.0,0.0,0.0,0.0,0.0,0.0,0.0,0.0,0.0,0.0,0.0,0.0,0.0,0.0,0.0,0.0,0.0,0.0,0.0,0.0,0.0,0.0,0.0,0.0,0.0,0.0,0.0,0.0,0.0,0.0,0.0,0.0,0.0,0.0,0.0,-1.3674,-1.268,0.0,0.0,0.0,0.0,0.0,0.0,0.0,0.0,0.0,0.0,0.0,0.0,0.0,0.0,0.0,0.0,0.0,0.0,0.0,0.0,0.0,0.0,0.0,0.0,0.0,0.0,0.0,0.0,0.0,0.0,0.0,0.0,0.0,0.0,0.0,0.0,0.0,0.0,0.0,0.0,0.3115,0.3738,0.4602,0.5776,0.5804,0.5905,0.641,0.5894,0.5468,0.5246,0.481,0.0,0.0,0.0,0.0,0.0,0.0,0.0,0.0,0.0,0.0,0.0,0.0,0.0,0.0,0.0,0.0,0.0,0.0,0.0,0.0,0.0,0.0,0.0,0.0,0.0,0.0,0.0,0.0,0.0,0.0,0.0,0.0,0.0,0.0,0.0,0.0,0.0,0.0,0.0,0.0,0.0,0.0,0.0,0.0,0.0,0.0,0.0,0.0,0.0,0.0,0.0,0.0,0.0,-1.6549,-1.6932,-1.7362,-1.7397,-1.7865,-1.8554,-1.6594,-1.5968,-1.6176,-1.4364,0.0,0.0,0.0,0.0,0.0,0.0,0.0,0.0,0.0,0.0,0.0,0.0,0.0,0.0,0.0,0.0,0.0,0.0,0.0,0.0,0.0,0.0,-1.5171,-1.5325,-1.6035,-1.5645,-1.1877,0.0,0.0,0.0,0.0,0.0,0.0,0.0,0.0,0.0,0.0,0.0,0.196,0.2346,0.3196,0.4774,0.481,0.484,0.5183,0.5059,0.4733,0.4185,0.4253,0.4005,0.0,0.0,0.0,0.0,0.0,0.0,0.0,0.0,0.0,0.0,0.0,0.0,0.0,0.0,0.0,0.0,0.0,0.0,0.0,0.0,0.0,0.0,0.0,0.0,0.0,0.0,0.0,0.0,0.0,0.0,0.0,0.0,-0.9524,-0.9665,0.0,0.0,0.0,0.0,0.0,0.0,0.0,0.0,0.0,0.0,0.0,0.0,0.0,-1.5329,-1.5562,-1.7645,-1.8753,-1.8903,-2.0137,-2.0734,-2.0751,-2.0703,-2.0744,-2.0856,-2.048,0.0,-1.7901,-1.6885,0.0,0.0,0.0,0.0,0.0,0.0,0.0,0.0,0.0,0.0,0.0,0.0,0.0,0.0,0.0,0.0,0.0,0.0,0.0,0.0,0.0,0.0,-2.103,-2.0543,-2.0497,-2.0247,-1.9082,-1.4073,-0.9852,-1.0041,-0.7546,-0.4149,0.0,0.0,0.0,0.0,0.0,0.0,0.0,0.0742,0.1514,0.1941,0.3602,0.4499,0.4081,0.4073,0.3947,0.3644,0.362,0.3543,0.3286,0.3631,0.0,0.0,0.0,0.0,0.0,0.0,0.0,0.0,0.0,0.0,0.0,0.0,0.0,0.0,0.0,0.0,0.0,0.0,0.0,0.0,0.0,0.0,0.0,0.0,0.0,0.0,0.0,0.0,0.0,-0.9197,-1.0809,-1.0837,-1.1504,-1.1991,0.0,0.0,0.0,0.0,0.0,0.0,0.0,0.0,0.0,-1.6355,-1.7568,-1.8285,-1.8433,-1.9793,-2.0603,-2.0879,-2.1515,-2.1954,-2.2136,-2.2091,-2.2096,-2.21,-2.2043,-2.1261,-1.9908,-1.8914,-1.8319,-1.7907,0.0,0.0,0.0,0.0,-1.7279,-1.7286,-1.8184,-1.8163,-1.7734,-1.7692,0.0,0.0,0.0,0.0,0.0,0.0,0.0,-1.8267,-1.9156,-2.0466,-2.166,-2.2051,-2.2074,-2.1933,-2.1615,-1.8763,-1.5482,-1.2854,-1.1543,-0.9329,-0.4451,-0.451,0.0,0.0,0.0,-0.5029,-0.2717,-0.2459,-0.184,-0.0131,0.0395,0.1187,0.2615,0.2729,0.2578,0.2291,0.2917,0.3232,0.313,0.3268,0.3316,0.0,0.0,0.0,0.0,0.0,0.0,0.0,0.0,0.0,0.0,0.0,0.0,0.0,0.0,0.0,0.0,0.0,0.0,0.0,0.0,0.0,0.0,0.0,0.0,0.0,0.0,0.0,0.0,-1.0477,-1.2067,-1.2111,-1.2905,-1.3401,0.0,0.0,0.0,0.0,0.0,0.0,-1.6641,-1.7341,-1.8018,-1.8724,-2.0071,-2.0862,-2.0981,-2.1589,-2.2008,-2.226,-2.2205,-2.2297,-2.2512,-2.2485,-2.2495,-2.2487,-2.2487,-2.2117,-2.1445,-2.0589,-2.0178,-2.0003,-1.9154,-1.9068,-1.9501,-2.0087,-2.0219,-2.0238,-2.1448,-2.1539,-2.103,-2.0643,-2.0385,-1.9974,-1.8737,0.0,0.0,0.0,0.0,-1.9807,-2.1239,-2.1784,-2.2177,-2.3051,-2.321,-2.3115,-2.2875,-2.2374,-2.0648,-1.6216,-1.5598,-1.4304,-0.9576,-0.8704,0.0,-1.7427,-1.4611,-1.0362,-0.6532,-0.5952,-0.4971,-0.2577,-0.2582,-0.1892,0.0264,0.0901,0.1013,0.0677,0.1909,0.2574,0.249,0.2761,0.2947,0.306,0.0,0.0,0.0,0.0,0.0,0.0,0.0,0.0,0.0,0.0,0.0,0.0,0.0,0.0,0.0,0.0,0.0,0.0,0.0,0.0,0.0,0.0,0.0,0.0,0.0,0.0,0.0,0.0,0.0,-1.378,-1.5107,0.0,0.0,0.0,0.0,-1.6537,-1.6703,-1.7643,-1.9668,-1.9812,-2.021,-2.1014,-2.1902,-2.2453,-2.2588,-2.3002,-2.3106,-2.2951,-2.2556,-2.2254,-2.2039,-2.1969,-2.194,-2.194,-2.1853,-2.1965,-2.2139,-2.1836,-2.1255,-2.0597,-2.0714,-2.1029,-2.1451,-2.1432,-2.1607,-2.1855,-2.1594,-2.1715,-2.2032,-2.2558,-2.2351,-2.1908,-2.1999,-2.1372,0.0,0.0,-2.1951,-2.325,-2.3278,-2.3888,-2.4553,-2.4752,-2.4784,-2.4594,-2.3897,-2.3746,-2.3149,-2.1022,-1.947,-1.7686,-1.5124,0.0,-1.3303,-1.4003,-1.3438,-1.2658,-1.1977,-0.937,-0.7128,-0.5949,-0.4311,-0.3299,-0.3423,-0.1667,-0.0703,-0.1056,0.0424,0.1244,0.1114,0.2093,0.2754,0.2997,0.281,0.0,0.0,0.0,0.0,0.0,0.0,0.0,0.0,0.0,0.0,0.0,0.0,0.0,0.0,0.0,0.0,0.0,0.0,0.0,0.0,0.0,0.0,0.0,0.0,0.0,0.0,0.0,0.0,-1.4954,-1.6355,0.0,-1.6865,-1.7017,-1.7662,-1.891,-1.8805,-1.9442,-2.1135,-2.1224,-2.1507,-2.2146,-2.2377,-2.2516,-2.2573,-2.2548,-2.2422,-2.222,-2.179,-2.1568,-2.154,-2.1023,-2.0942,-2.1182,-2.0991,-2.0878,-2.0879,-2.1253,-2.1373,-2.1295,-2.0944,-2.1218,-2.1779,-2.1782,-2.2165,-2.2694,-2.2565,-2.2754,-2.3085,-2.3474,-2.3479,-2.3364,-2.3382,-2.3239,-2.3016,-2.2856,-2.3453,-2.4099,-2.3899,-2.4178,-2.4519,-2.457,-2.4556,-2.4433,-2.412,-2.4083,-2.3798,-2.28,-2.1752,-2.0562,-1.9137,-1.8741,-1.8704,-1.8975,-1.7523,-1.6044,-1.5021,-1.2942,-1.0699,-0.8456,-0.7574,-0.7123,-0.6974,-0.503,-0.3524,-0.2913,-0.1628,-0.0485,0.0518,0.1249,0.1764,0.2091,0.2572,0.2807,0.0,0.0,0.0,0.0,0.0,0.0,0.0,0.0,0.0,0.0,0.0,0.0,0.0,0.0,0.0,0.0,0.0,0.0,0.0,0.0,0.0,0.0,0.0,0.0,0.0,-1.4325,-1.5937,-1.6325,-1.7876,-1.8833,-1.8632,-1.9022,-1.9708,-2.0671,-2.0477,-2.079,-2.1925,-2.1969,-2.2143,-2.2554,-2.2525,-2.2525,-2.2571,-2.2354,-2.2113,-2.1899,-2.1521,-2.1401,-2.1388,-2.0747,-2.0614,-2.0844,-2.0545,-2.0376,-2.0308,-2.0663,-2.0959,-2.1197,-2.115,-2.1428,-2.1848,-2.1961,-2.2399,-2.2961,-2.2979,-2.3093,-2.3282,-2.3541,-2.3674,-2.3678,-2.3599,-2.3717,-2.3853,-2.3712,-2.387,-2.4062,-2.3888,-2.3906,-2.4003,-2.4137,-2.4118,-2.4116,-2.4192,-2.4211,-2.4098,-2.361,-2.2935,-2.2243,-2.1573,-2.1362,-2.1235,-2.1087,-1.9866,-1.8339,-1.6583,-1.5403,-1.3727,-1.112,-1.0148,-0.9558,-0.9226,-0.6927,-0.5366,-0.5176,-0.3283,-0.1851,-0.1101,0.0111,0.1013,0.1432,0.2218,0.2587,0.2539,0.0,0.0,0.0,0.0,0.0,0.0,0.0,0.0,0.0,0.0,0.0,0.0,0.0,0.0,0.0,0.0,0.0,0.0,0.0,0.0,0.0,0.0,0.0,-1.467,-1.65,-1.7872,-1.7969,-1.9722,-2.0672,-2.0099,-2.0578,-2.1171,-2.176,-2.1631,-2.1696,-2.2091,-2.2096,-2.2181,-2.2275,-2.2381,-2.2508,-2.2634,-2.2508,-2.2315,-2.2068,-2.1911,-2.1751,-2.1542,-2.115,-2.0975,-2.0942,-2.0628,-2.0543,-2.0561,-2.0285,-2.0196,-2.0339,-2.1339,-2.1688,-2.1685,-2.2022,-2.2375,-2.266,-2.2764,-2.2643,-2.2538,-2.2797,-2.2888,-2.286,-2.271,-2.287,-2.3093,-2.3165,-2.3224,-2.3324,-2.3371,-2.3253,-2.3194,-2.3595,-2.3684,-2.3764,-2.4097,-2.4211,-2.41,-2.357,-2.3125,-2.2698,-2.2382,-2.1547,-2.0589,-1.9616,-1.9976,0.0,-1.6895,-1.6706,-1.6029,-1.3981,-1.1818,-1.0438,-1.0143,-0.7349,-0.6271,-0.7766,-0.4505,-0.2908,-0.3798,-0.131,0.0396,0.1045,0.1728,0.2112,0.2185,0.0,0.0,0.0,0.0,0.0,0.0,0.0,0.0,0.0,0.0,0.0,0.0,0.0,0.0,0.0,0.0,0.0,0.0,0.0,0.0,0.0,-1.5422,-1.6673,-1.6695,-1.7748,-1.8807,-1.9626,-2.0459,-2.0925,-2.0744,-2.1187,-2.1619,-2.1932,-2.1976,-2.2023,-2.2039,-2.2175,-2.2061,-2.1658,-2.1735,-2.1645,-2.1323,-2.1197,-2.1103,-2.1023,-2.0697,-2.0613,-2.0794,-2.012,-1.9995,-2.027,-2.0425,-2.0526,-2.0593,-2.1316,-2.1508,-2.1228,-2.0538,-2.0398,-2.0616,-2.0715,-2.1134,-2.1764,-2.222,-2.2313,-2.2286,-2.2422,-2.2459,-2.2415,-2.2241,-2.2485,-2.2797,-2.2755,-2.314,-2.3481,-2.3247,-2.3247,-2.3307,-2.3265,-2.3248,-2.3289,-2.333,-2.3335,-2.3265,-2.2917,-2.2891,-2.2941,-2.2888,-2.2176,-2.1533,-2.1256,-2.1276,-2.0593,-1.8572,-1.8728,-1.8024,-1.5425,-1.4094,-1.3197,-1.2724,-1.1144,-0.9941,-0.9362,-0.7809,-0.6297,-0.4808,-0.3492,-0.191,-0.0108,0.0739,0.144,0.0,0.0,0.0,0.0,0.0,0.0,0.0,0.0,0.0,0.0,0.0,0.0,0.0,0.0,0.0,0.0,0.0,0.0,0.0,0.0,0.0,0.0,-1.7147,-1.841,-1.8997,-1.9425,-1.986,-2.0331,-2.0822,-2.1188,-2.1418,-2.162,-2.1781,-2.1866,-2.1869,-2.1735,-2.143,-2.1493,-2.1401,-2.1039,-2.136,-2.1422,-2.1138,-2.1371,-2.1478,-2.1478,-2.1248,-2.1213,-2.1389,-2.0831,-2.0699,-2.0914,-2.0955,-2.1004,-2.1034,-2.1696,-2.1877,-2.1629,0.0,0.0,0.0,0.0,-2.0697,-2.1135,-2.1507,-2.1612,-2.1612,-2.1579,-2.1579,-2.1549,-2.1582,-2.1816,-2.2124,-2.233,-2.2669,-2.2943,-2.2712,-2.2643,-2.2695,-2.2721,-2.2704,-2.2773,-2.2952,-2.2995,-2.2876,-2.2463,-2.2517,0.0,-2.2368,-2.2102,-2.1766,-2.1344,-2.1305,-2.0617,-1.8628,-1.9052,-1.869,-1.6568,-1.5549,-1.5002,-1.4842,-1.3138,0.0,0.0,0.0,-0.8042,-0.591,-0.4916,0.0,0.0,0.0,0.0,0.0,0.0,0.0,0.0,0.3736,0.4351,0.0,0.0,0.0,0.0,0.0,0.0,0.0,0.0,0.0,0.0,0.0,0.0,0.0,0.0,0.0,0.0,-1.8508,-1.9839,-2.1094,-2.1065,-2.0799,-2.0566,-2.0947,-2.1415,-2.1807,-2.1764,-2.1675,-2.1565,-2.1446,-2.115,-2.063,-2.0548,0.0,0.0,0.0,-2.1577,-2.1599,-2.2248,-2.2598,-2.2598,-2.2598,-2.2598,-2.2598,-2.2255,-2.2118,-2.2095,-2.1888,-2.1799,-2.1814,-2.1889,-2.1874,-2.1764,-2.1626,-2.1341,-2.1003,-2.0798,-2.0728,-2.0761,-2.0794,0.0,0.0,-2.0724,-2.0673,-2.0673,-2.1051,-2.1279,-2.1485,-2.1953,-2.2144,-2.219,-2.1969,-2.1794,-2.1751,-2.2022,-2.2108,-2.2265,-2.2712,-2.2825,-2.2703,-2.2124,-2.201,-2.1866,-2.1385,-2.1565,-2.1447,-2.0544,-2.0597,-1.9994,-1.7905,-1.8423,-1.8533,-1.7253,-1.6336,0.0,-1.6287,-1.399,-1.3118,-1.4569,-1.1536,-0.897,-0.7372,-0.625,-0.4928,-0.3257,-0.2073,-0.1084,-0.0233,0.0779,0.1447,0.1798,0.3365,0.4355,0.0,0.0,0.0,0.0,0.0,0.0,0.0,0.0,0.0,0.0,0.0,0.0,0.0,0.0,0.0,-1.9029,-2.0018,-2.0688,-2.1012,-2.0941,-2.102,-2.1477,-2.1164,-2.0942,-2.1039,-2.1119,-2.1007,-2.0681,-2.1071,-2.1087,-2.0545,-2.0646,-2.0829,-2.1003,-2.1162,-2.1391,-2.168,-2.1801,-2.1901,-2.1901,-2.1901,0.0,-2.1901,-2.1704,-2.164,-2.1655,-2.2152,-2.2349,-2.2393,-2.2914,-2.2825,-2.223,-2.1272,-2.0533,-2.0035,-2.0235,-2.0311,-2.0361,-2.0679,-2.0794,-2.0889,-2.1274,-2.1393,-2.1487,-2.203,-2.2335,0.0,-2.2101,-2.2182,-2.2225,-2.1664,-2.1486,-2.1472,-2.146,-2.1645,-2.1781,-2.1658,-2.1794,-2.184,-2.1507,-2.1446,-2.1415,-2.1339,-2.1055,-2.0798,-2.0577,-2.0496,-1.9962,-1.855,-1.8753,-1.8404,-1.679,-1.6126,-1.5821,-1.5839,-1.5314,-1.4847,-1.4488,-1.2658,-1.1175,-1.0311,-0.931,-0.7827,-0.5901,-0.5011,-0.3833,-0.2312,-0.1156,-0.0314,0.0203,0.2929,0.4233,0.0,0.0,0.0,0.0,0.0,0.0,0.0,0.0,0.0,0.0,0.0,-1.5067,-1.657,0.0,-1.8826,-2.0017,-2.081,-2.1262,-2.1134,-2.0942,-2.0844,-2.1039,-2.0597,-2.0395,-2.0628,-2.0597,-2.0481,-2.0326,-2.0597,-2.072,-2.062,-2.064,-2.0837,-2.1295,-2.1665,-2.1934,-2.2092,-2.2446,-2.2652,-2.2652,-2.2626,-2.2584,-2.2584,-2.2542,-2.2485,-2.2515,-2.2912,-2.3046,-2.3076,-2.3389,-2.315,-2.2524,-2.1949,-2.1276,-2.073,-2.0903,-2.0962,-2.0977,-2.1197,-2.1234,-2.1295,-2.1544,-2.1613,-2.1637,-2.22,-2.239,-2.2368,-2.1951,-2.1965,-2.1922,-2.1295,-2.1149,-2.1197,-2.1354,-2.1493,-2.157,-2.1509,-2.1617,-2.1556,-2.1119,-2.1166,-2.1103,-2.0632,-2.0597,-2.0646,-2.0597,-2.0376,-1.9767,-1.8612,-1.8232,-1.7623,-1.6438,-1.5984,-1.5941,-1.6325,-1.6963,-1.6825,-1.5592,-1.5311,-1.4627,-1.3317,-1.2365,-1.1202,-0.9711,-0.8198,-0.6723,-0.5289,-0.3996,-0.2495,-0.084,0.092,0.2428,0.0,0.0,0.0,0.0,0.0,0.0,0.0,-1.3227,-1.3531,-1.5223,-1.5933,-1.6713,-1.8165,-1.9227,-2.0031,-2.0541,-2.1133,-2.1433,-2.1135,-2.086,-2.0595,-2.0304,-2.003,-2.0015,-2.0426,-2.0289,-2.017,-2.0154,-2.0347,-2.0492,-2.0677,-2.0721,-2.1054,-2.1724,-2.2259,-2.2602,-2.2721,-2.3298,-2.3595,-2.3595,-2.3538,-2.3494,-2.3509,-2.3407,-2.3319,-2.3319,-2.3304,-2.329,-2.329,-2.329,-2.2994,-2.2551,-2.2551,-2.2325,-2.1917,-2.1744,-2.1695,-2.1695,-2.1695,-2.1695,-2.1724,-2.1844,-2.1834,-2.1809,-2.2313,-2.2422,-2.2308,-2.1993,-2.1791,-2.1577,-2.1041,-2.0807,-2.0795,-2.1134,-2.1308,-2.1401,-2.1386,-2.1479,-2.1386,-2.0827,-2.0763,-2.0599,-1.9929,-2.0085,-2.0342,-2.0429,-2.0204,-1.9639,-1.8598,-1.808,-1.7394,-1.6232,-1.6154,-1.631,-1.6691,-1.7953,-1.8202,-1.7,-1.798,-1.7806,-1.602,-1.5412,-1.4573,-1.3461,-1.155,-0.9944,-0.8668,-0.722,-0.5162,-0.2604,-0.1741,0.0242,-0.8327,-0.9143,-1.0492,-1.2838,-1.2472,-1.2546,0.0,-1.653,-1.6363,-1.8518,-1.9015,-1.9346,-2.0235,-2.0246,-2.0383,-2.1035,-2.0991,-2.086,-2.0777,-2.0509,-2.0304,-2.015,-2.01,-2.0135,-2.0304,-2.0392,-2.0323,-2.0025,-2.0788,-2.11,-2.0707,-2.1261,-2.1874,-2.2547,-2.2637,-2.2936,-2.349,-2.3565,-2.3595,-2.3595,-2.361,-2.361,-2.3551,-2.3024,-2.2799,-2.2754,-2.2356,-2.217,-2.217,-2.217,-2.2128,-2.2072,-2.2072,-2.2338,-2.2688,-2.1951,-2.1695,-2.1695,-2.1695,-2.1695,-2.1799,-2.2383,-2.2562,-2.2667,-2.3248,-2.3428,-2.3293,-2.2746,-2.2194,-2.1652,-2.0985,-2.0466,-2.0096,-2.0166,-2.0579,-2.0828,-2.0376,-2.0681,-2.0942,-2.046,-1.9844,-1.9492,-1.9752,-1.9288,-1.914,-1.9788,-1.998,-1.9839,-1.92,-1.9645,-1.9058,-1.6476,-1.6897,-1.6933,-1.5859,-1.6916,-1.7795,-1.8087,-1.9063,-1.912,-1.8022,-1.8195,-1.747,-1.5755,-1.4998,-1.38,-1.2042,-1.0442,-0.8588,-0.6501,-0.4483,-0.1405,-1.0328,-1.1168,-1.2158,-1.4246,-1.4667,-1.519,-1.7422,-1.7549,-1.7717,-1.9512,-1.9915,-2.0127,-2.0891,-2.0931,-2.0875,-2.0959,-2.086,-2.0646,-2.0239,-2.017,-2.0045,-1.9726,-1.9833,-1.9975,-2.0096,-2.001,-2.0091,-2.0552,-2.095,-2.125,-2.1503,-2.1798,-2.2058,-2.2336,-2.235,-2.2465,-2.2725,-2.2725,-2.2725,-2.2725,-2.2694,-2.2663,-2.2663,-2.2388,-2.2282,-2.2314,-2.2142,-2.2049,-2.2049,-2.2049,-2.2049,-2.2049,-2.2049,-2.2189,-2.2441,-2.2396,-2.2592,-2.2802,-2.2802,-2.2802,-2.2847,-2.3116,-2.3206,-2.3266,-2.352,-2.3595,-2.3475,-2.2847,-2.2269,-2.1696,-2.1166,-2.064,-2.0289,-2.0426,-2.0662,-2.0712,-2.0204,-2.0292,-2.0326,-1.9869,-1.9803,-1.9651,-1.9317,-1.92,-1.9096,-1.8968,-1.9369,-1.9493,-1.893,-1.8758,-1.776,-1.5316,-1.6033,-1.6043,-1.4511,-1.6628,-1.8166,-1.8515,-2.064,-2.1441,-2.0438,-2.0484,-2.0128,-1.9191,-1.843,-1.7257,-1.5611,-1.4296,-1.2194,-0.9378,-0.8126,-0.5684,-1.1522,-1.2405,-1.3237,-1.5031,-1.6118,-1.6972,-1.7924,-1.8216,-1.868,-2.0092,-2.0379,-2.0524,-2.1054,-2.1087,-2.0926,-2.0695,-2.0579,-2.0361,-1.9859,-1.9925,-1.9854,-1.9472,-1.9654,-1.9848,-1.9919,-1.9762,-1.9995,-2.082,-2.1159,-2.1558,-2.2159,-2.2336,-2.2366,-2.236,-2.2175,-2.2081,-2.2081,-2.2081,-2.2081,-2.2081,-2.2063,-2.203,-2.2016,-2.1888,-2.1779,-2.1718,-2.1718,-2.1718,-2.1718,-2.1718,-2.1718,-2.1718,-2.1718,-2.1813,-2.1955,-2.2328,-2.2785,-2.3187,-2.3275,-2.3334,-2.3421,-2.3523,-2.3551,-2.3595,-2.3696,-2.3696,-2.3548,-2.3155,-2.2606,-2.2046,-2.15,-2.0988,-2.0539,-2.0491,-2.0579,-2.0512,-2.003,-2.003,-1.9975,-1.9487,-1.9551,-1.9485,-1.8846,-1.8826,-1.8669,-1.8094,-1.8461,-1.8745,-1.8655,-1.7985,-1.7118,-1.608,-1.6256,-1.6058,-1.5178,-1.7777,-1.9499,-1.9546,-2.2202,-2.3363,-2.2419,-2.2461,-2.2353,-2.2076,-2.1256,-2.0103,-1.8623,-1.7534,-1.544,-1.2422,-1.1964,-1.0165,-1.0902,-1.1855,-1.3067,-1.495,-1.5858,-1.6743,-1.8392,-1.9,-1.9544,-2.0572,-2.0795,-2.0795,-2.0827,-2.0561,-2.0339,-2.0304,-2.003,-1.9823,-1.9788,-1.9747,-1.9639,-1.953,-1.969,-1.9797,-1.9797,-1.9919,-2.0156,-2.058,-2.1515,-2.2197,-2.2456,-2.2848,-2.3054,-2.3083,-2.2466,-2.2081,-2.2081,-2.2081,-2.2081,-2.2081,-2.2081,-2.2081,-2.2081,-2.1636,-2.118,-2.0749,-2.0749,-2.0749,-2.0749,-2.0749,-2.0749,-2.0749,-2.0749,-2.1033,-2.141,-2.1423,-2.1732,-2.2175,-2.2452,-2.2694,-2.2979,-2.3363,-2.3538,-2.3653,-2.3925,-2.3882,-2.3839,-2.3909,-2.3534,-2.2848,-2.1982,-2.1371,-2.0758,-1.9912,-1.998,-2.0104,-1.9624,-1.9818,-1.9975,-1.9487,-1.8822,-1.8344,-1.8305,-1.776,-1.7269,-1.724,-1.724,-1.7625,-1.8574,-1.8011,-1.8275,-2.0281,-1.8674,-1.7919,-1.9058,-2.0997,-2.2039,-2.1729,-2.3555,-2.435,-2.3671,-2.4018,-2.408,-2.373,-2.318,-2.2177,-2.0705,-1.9752,-1.8191,-1.6023,-1.5757,-1.4234,-1.2974,-1.3863,-1.46,-1.6618,-1.7548,-1.8235,-1.9241,-1.9714,-2.0064,-2.0379,-1.9968,-1.9614,-1.9904,-1.9645,-1.9405,-1.9471,-1.9782,-1.9874,-1.9464,-1.9588,-1.9654,-1.9273,-1.9545,-1.969,-1.9603,-1.9762,-2.0264,-2.1192,-2.1594,-2.1936,-2.2334,-2.2366,-2.217,-2.1732,-2.1361,-2.1166,-2.1166,-2.1166,-2.1166,-2.1166,-2.1166,-2.1166,-2.1166,-2.0983,-2.0848,-2.0699,-2.0699,-2.0699,-2.0699,-2.0699,-2.0699,-2.0699,-2.0699,-2.0898,-2.1131,-2.1131,-2.1361,-2.1732,-2.2282,-2.2558,-2.2694,-2.2979,-2.3127,-2.3157,-2.3246,-2.326,-2.326,-2.3581,-2.2915,-2.2079,-2.1961,-2.1122,-2.0243,-1.9858,-1.9833,-1.9747,-1.931,-1.9347,-1.9325,-1.8889,-1.876,-1.863,-1.8464,-1.7908,-1.7201,-1.638,-1.682,-1.731,-1.7666,-1.818,-1.811,-1.7036,-1.7932,-1.8196,-1.7193,-2.002,-2.1938,-2.2171,-2.4016,-2.5023,-2.4851,-2.496,-2.4885,-2.4601,-2.4504,-2.3899,-2.2786,-2.1982,-2.0801,-1.9302,-1.8481,-1.7038,-1.404,-1.5037,-1.582,-1.7441,-1.8296,-1.8847,-1.9339,-1.9639,-1.9829,-1.9863,-1.9228,-1.8713,-1.8877,-1.8646,-1.8484,-1.8761,-1.9153,-1.9405,-1.9214,-1.942,-1.9561,-1.9572,-1.97,-1.9849,-2.0009,-1.9962,-2.0338,-2.1336,-2.1643,-2.1984,-2.2409,-2.2249,-2.1888,-2.1375,-2.0997,-2.0749,-2.0699,-2.0699,-2.0699,-2.0699,-2.0699,-2.0699,-2.0699,-2.0699,-2.0699,-2.0712,-2.0536,-2.0549,-2.0712,-2.0536,-2.0549,-2.0699,-2.0699,-2.0799,-2.0997,-2.0997,-2.118,-2.1458,-2.2063,-2.2282,-2.2434,-2.274,-2.2844,-2.2934,-2.3038,-2.3038,-2.3038,-2.3319,-2.2842,-2.217,-2.2069,-2.1473,-2.076,-2.0117,-2.0012,-1.9879,-1.9234,-1.9101,-1.8988,-1.8595,-1.862,-1.8644,-1.8293,-1.7828,-1.7242,-1.6527,-1.6921,-1.7214,-1.6976,-1.7756,-1.7876,-1.6573,-1.8567,-1.9573,-1.8639,-2.1309,-2.3176,-2.3529,-2.4713,-2.5437,-2.5464,-2.5398,-2.5273,-2.5101,-2.5188,-2.4804,-2.3936,-2.3472,-2.2732,-2.1783,-2.094,-1.9685,-1.4112,-1.5387,-1.6659,-1.7455,-1.812,-1.862,-1.8874,-1.8921,-1.8928,-1.9019,-1.8519,-1.7974,-1.7767,-1.7548,-1.7571,-1.8025,-1.825,-1.8548,-1.9133,-1.9191,-1.9491,-2.0274,-2.0123,-2.0171,-2.0806,-2.0458,-2.0472,-2.1046,-2.1752,-2.228,-2.2665,-2.242,-2.2189,-2.1996,-2.1326,-2.0898,-2.0699,-2.0699,-2.0699,-2.0699,-2.0699,-2.0699,-2.0699,-2.0699,-2.0712,-2.0649,-2.0207,-2.0271,-2.0599,-2.0156,-2.022,-2.0649,-2.0649,-2.0749,-2.0947,-2.0947,-2.1131,-2.1423,-2.1664,-2.1949,-2.2217,-2.2572,-2.2754,-2.2889,-2.3187,-2.3127,-2.3083,-2.3231,-2.3246,-2.3025,-2.2278,-2.2245,-2.2031,-2.0602,-2.0463,-2.0324,-1.9284,-1.9064,-1.895,-1.8581,-1.8517,-1.8347,-1.7882,-1.7475,-1.7269,-1.7435,-1.7463,-1.7229,-1.6637,-1.6947,-1.7615,-1.8777,-2.038,-2.1826,-2.2972,-2.4627,-2.559,-2.5596,-2.5599,-2.5593,-2.5593,-2.5418,-2.5312,-2.5312,-2.5317,-2.4965,-2.4252,-2.4265,-2.3986,-2.3446,-2.3074,-2.216,-1.5888,-1.6881,-1.7469,-1.8285,-1.8858,-1.9221,-1.9147,-1.9051,-1.8796,-1.8238,-1.702,-1.5922,-1.5578,-1.5998,-1.6479,-1.6789,-1.8165,-1.9243,-1.9332,-1.9901,-2.0233,-2.004,-2.0396,-2.0594,-2.0415,-2.0562,-2.0796,-2.1151,-2.1336,-2.169,-2.2282,-2.2077,-2.1793,-2.1568,-2.118,-2.0898,-2.0699,-2.0699,-2.0699,-2.0699,-2.0699,-2.0699,-2.0699,-2.0699,-2.0485,-2.0156,-2.0042,-1.9901,-1.9733,-1.9617,-1.9668,-1.9875,-1.9875,-2.008,-2.0385,-2.0385,-2.0573,-2.0858,-2.1361,-2.1664,-2.1949,-2.2217,-2.2356,-2.2402,-2.2449,-2.2463,-2.2495,-2.2754,-2.2497,-2.2091,-2.1989,-2.1555,-2.0907,-1.9938,-1.9672,-1.9461,-1.8796,-1.8669,-1.863,-1.8517,-1.8517,-1.8347,-1.7882,-1.7475,-1.7115,-1.6795,-1.6896,-1.7092,-1.7422,-1.7133,-1.7002,-1.734,-1.9489,-2.0988,-2.1305,-2.3917,-2.5556,-2.5588,-2.5549,-2.555,-2.5608,-2.5544,-2.5523,-2.5523,-2.5561,-2.5426,-2.5085,-2.5092,-2.483,-2.4294,-2.4134,-2.3603,-1.6637,-1.747,-1.7991,-1.8622,-1.9011,-1.9001,-1.8289,-1.8074,-1.7678,-1.6484,-1.5253,-1.429,-1.4009,-1.4532,-1.5234,-1.5923,-1.7403,-1.8699,-1.9288,-1.9859,-2.024,-2.0327,-2.0528,-2.0675,-2.073,-2.0764,-2.0874,-2.1109,-2.1342,-2.1681,-2.2156,-2.2044,-2.1841,-2.1568,-2.1215,-2.0954,-2.0862,-2.0361,-2.0425,-2.1028,-2.0602,-2.0372,-2.0372,-2.0372,-2.0169,-1.9759,-1.9552,-1.946,-1.9368,-1.9263,-1.9356,-1.9617,-1.9656,-1.9914,-2.0182,-2.0182,-2.0372,-2.066,-2.0957,-2.1166,-2.1361,-2.1983,-2.2184,-2.2184,-2.2184,-2.2184,-2.2217,-2.2449,-2.2193,-2.1922,-2.2012,-2.1696,-2.1152,-2.0443,-2.0175,-1.9838,-1.8823,-1.8588,-1.8479,-1.803,-1.8293,-1.8475,-1.8014,-1.7828,-1.7707,-1.753,-1.7449,-1.7558,-1.804,-1.7585,-1.712,-1.6828,-1.9028,-2.0535,-2.0732,-2.3263,-2.4952,-2.5187,-2.5395,-2.553,-2.555,-2.5569,-2.5569,-2.5569,-2.5588,-2.5571,-2.5449,-2.5372,-2.522,-2.4955,-2.4824,-2.4469,-1.6782,-1.7605,-1.8214,-1.8669,-1.8765,-1.8393,-1.7079,-1.6681,-1.6108,-1.4371,-1.3484,-1.293,-1.2703,-1.3151,-1.3951,-1.5287,-1.6455,-1.7684,-1.9163,-1.9594,-2.0,-2.064,-2.0609,-2.0732,-2.1272,-2.0885,-2.0686,-2.0885,-2.1313,-2.1698,-2.203,-2.203,-2.1841,-2.1541,-2.1091,-2.0884,-2.096,-1.9942,-2.006,-2.1342,-2.045,-1.9964,-1.9901,-2.004,-1.9833,-1.9316,-1.903,-1.9018,-1.921,-1.8999,-1.9093,-1.95,-1.9604,-1.9811,-2.0029,-2.0029,-2.0169,-2.0409,-2.0459,-2.051,-2.066,-2.1746,-2.2091,-2.2137,-2.2184,-2.2184,-2.2184,-2.2184,-2.2231,-2.2231,-2.2184,-2.2184,-2.1969,-2.1276,-2.1077,-2.0609,-1.8981,-1.8571,-1.8242,-1.7374,-1.7948,-1.85,-1.8066,-1.8212,-1.8383,-1.8553,-1.8293,-1.8135,-1.8226,-1.7961,-1.7544,-1.6967,-1.8765,-2.0191,-2.0629,-2.2617,-2.4031,-2.4566,-2.5109,-2.5412,-2.5468,-2.5476,-2.5484,-2.5511,-2.5492,-2.5498,-2.5496,-2.5385,-2.5375,-2.5426,-2.5247,-2.4988,-1.709,-1.7679,-1.7881,-1.8616,-1.8547,-1.8043,-1.7014,-1.6066,-1.4956,-1.3431,-1.2511,-1.1749,-1.1075,-1.1872,-1.3169,-1.4817,-1.6235,-1.758,-1.8964,-2.0023,-2.0443,-1.9883,-2.0642,-2.1108,-2.0835,-2.0422,-2.0207,-2.0472,-2.0396,-2.0584,-2.1188,-2.1006,-2.0696,-2.0346,-2.0003,-2.0022,-2.0382,-1.9744,-1.9744,-2.0436,-2.0229,-1.9945,-1.9537,-2.036,-2.008,-1.8928,-1.9238,-1.8959,-1.8302,-1.8302,-1.8452,-1.8774,-1.8827,-1.8975,-1.9198,-1.9198,-1.9251,-1.9344,-1.9798,-1.9952,-2.0105,-2.1215,-2.1568,-2.1616,-2.2091,-2.2184,-2.2184,-2.2184,-2.2278,-2.2324,-2.2091,-2.2044,-2.1782,-2.077,-2.0448,-1.9973,-1.8517,-1.7797,-1.74,-1.7212,-1.7475,-1.772,-1.7625,-1.7516,-1.7434,-1.7475,-1.7557,-1.7434,-1.6921,-1.7256,-1.7503,-1.738,-1.8419,-1.9333,-1.9862,-2.169,-2.3178,-2.3987,-2.4547,-2.4954,-2.5235,-2.5312,-2.5395,-2.5511,-2.5453,-2.5441,-2.5495,-2.5527,-2.5547,-2.5566,-2.5527,-2.5482,-1.6439,-1.7061,-1.745,-1.8539,-1.8424,-1.7619,-1.6047,-1.5043,-1.3839,-1.171,-1.1031,-1.0559,-0.9715,-1.0743,-1.2096,-1.3252,-1.4463,-1.5886,-1.7674,-1.853,-1.9014,-1.9181,-2.0109,-2.0573,-2.0182,-2.0055,-1.9952,-1.9875,-1.9708,-1.9888,-2.0633,-2.0584,-2.0295,-1.9798,-1.954,-1.9748,-2.0414,-1.955,-1.9617,-2.0594,-2.0079,-1.9691,-1.9462,-1.9968,-1.9865,-1.9294,-1.9179,-1.8916,-1.8506,-1.8406,-1.8452,-1.8614,-1.8774,-1.8881,-1.8987,-1.8987,-1.8987,-1.904,-1.9291,-1.9396,-1.95,-2.0308,-2.0759,-2.1019,-2.1299,-2.1541,-2.1793,-2.1793,-2.2091,-2.237,-2.2231,-2.2091,-2.1819,-2.1199,-2.0093,-1.9019,-1.8462,-1.7627,-1.6808,-1.6238,-1.7047,-1.7666,-1.7037,-1.7229,-1.7516,-1.7516,-1.7434,-1.724,-1.6905,-1.7393,-1.7679,-1.7516,-1.8446,-1.9281,-1.9743,-2.1149,-2.2377,-2.3309,-2.3975,-2.4553,-2.5022,-2.5184,-2.5274,-2.5341,-2.5348,-2.5365,-2.5404,-2.5507,-2.5564,-2.5607,-2.5562,-2.5579,-1.5499,-1.6268,-1.6983,-1.8291,-1.8101,-1.7128,-1.5095,-1.3996,-1.2743,-1.0352,-0.9867,-0.9654,-0.8851,-0.9742,-1.0857,-1.1588,-1.2553,-1.3975,-1.6099,-1.6837,-1.7535,-1.85,-1.9253,-1.9622,-1.9475,-1.9527,-1.9423,-1.9146,-1.9081,-1.9384,-2.0029,-2.008,-1.9837,-1.9356,-1.9146,-1.9432,-2.0222,-1.9204,-1.9317,-2.0507,-1.9868,-1.9498,-1.9392,-1.9604,-1.9598,-1.9493,-1.908,-1.8827,-1.8701,-1.8573,-1.8506,-1.856,-1.8827,-1.8946,-1.8946,-1.8987,-1.8987,-1.8987,-1.8987,-1.8987,-1.9093,-1.95,-2.0003,-2.0459,-2.056,-2.0908,-2.1264,-2.1264,-2.1793,-2.2324,-2.2324,-2.2231,-2.1996,-2.1554,-1.9734,-1.8154,-1.8316,-1.7441,-1.6367,-1.5457,-1.671,-1.7625,-1.6676,-1.7133,-1.7679,-1.7679,-1.7434,-1.7282,-1.7352,-1.7787,-1.7988,-1.7787,-1.8549,-1.9303,-1.9758,-2.0702,-2.168,-2.2667,-2.3487,-2.4185,-2.4738,-2.4993,-2.5107,-2.513,-2.5234,-2.5255,-2.5274,-2.5402,-2.5498,-2.5535,-2.5539,-2.5546,-1.4767,-1.5714,-1.6536,-1.7612,-1.7342,-1.6389,-1.4782,-1.3243,-1.1764,-1.0289,-0.9764,-0.9359,-0.8802,-0.8815,-0.9341,-1.0615,-1.1461,-1.2709,-1.4764,-1.6134,-1.7222,-1.7981,-1.7968,-1.8219,-1.8919,-1.8436,-1.8135,-1.8201,-1.8494,-1.8721,-1.8946,-1.8946,-1.8786,-1.853,-1.8476,-1.8678,-1.9067,-1.846,-1.846,-1.9079,-1.946,-1.9425,-1.8976,-1.9909,-1.9851,-1.8965,-1.8919,-1.8632,-1.8153,-1.8162,-1.8247,-1.8422,-1.8572,-1.8732,-1.8851,-1.8946,-1.8987,-1.8987,-1.8987,-1.8987,-1.8987,-1.904,-1.9448,-1.9952,-2.0459,-2.0709,-2.0858,-2.0858,-2.1444,-2.2044,-2.2044,-2.2278,-2.2263,-2.114,-1.9264,-1.7702,-1.7569,-1.673,-1.6032,-1.5944,-1.6522,-1.696,-1.6863,-1.7073,-1.7282,-1.7282,-1.7393,-1.7598,-1.7868,-1.8108,-1.833,-1.8588,-1.8688,-1.8968,-1.9479,-2.0358,-2.1231,-2.2109,-2.316,-2.3914,-2.4331,-2.4622,-2.4793,-2.493,-2.5056,-2.5153,-2.5203,-2.5346,-2.5387,-2.5327,-2.5504,-2.5562,-1.3346,-1.4251,-1.4951,-1.6236,-1.5834,-1.4787,-1.3487,-1.2227,-1.0922,-0.9396,-0.9078,-0.8756,-0.7748,-0.7996,-0.8477,-0.8873,-0.9331,-1.0391,-1.2552,-1.358,-1.4622,-1.5971,-1.6717,-1.7296,-1.7577,-1.7523,-1.7479,-1.7446,-1.7831,-1.8061,-1.8116,-1.8506,-1.8572,-1.8422,-1.8259,-1.8446,-1.8885,-1.8701,-1.8862,-1.9378,-1.9597,-1.9734,-1.9815,-1.993,-1.9918,-1.9769,-1.916,-1.8782,-1.8575,-1.8374,-1.8356,-1.8518,-1.8679,-1.8786,-1.8946,-1.8999,-1.8987,-1.8987,-1.8987,-1.8987,-1.8987,-1.8987,-1.9146,-1.9344,-1.9552,-1.9901,-2.0194,-2.0295,-2.0845,-2.1444,-2.1479,-2.1431,-2.1348,-2.1091,-1.9543,-1.8032,-1.769,-1.6951,-1.6107,-1.5369,-1.5901,-1.6362,-1.5901,-1.6423,-1.7005,-1.7325,-1.7462,-1.7679,-1.8108,-1.8539,-1.8968,-1.9381,-1.9581,-1.9758,-1.9963,-2.0879,-2.1773,-2.2479,-2.3047,-2.3575,-2.41,-2.4244,-2.4482,-2.4766,-2.4743,-2.4872,-2.5141,-2.5265,-2.532,-2.5302,-2.5421,-2.5463,-1.1933,-1.2877,-1.3682,-1.4841,-1.4401,-1.3457,-1.2424,-1.1326,-1.0135,-0.8816,-0.8606,-0.8258,-0.7025,-0.7407,-0.7776,0.0,-0.7934,-0.9065,-1.1049,-1.1819,-1.2797,-1.4483,-1.515,-1.5626,-1.6088,-1.6557,-1.6877,-1.6955,-1.739,-1.7667,-1.7611,-1.8236,-1.8464,-1.8313,-1.8343,-1.846,-1.8667,-1.8816,-1.908,-1.9459,-1.9757,-2.001,-2.0182,-1.9849,-1.9792,-1.9918,-1.9046,-1.8667,-1.8644,-1.8452,-1.8464,-1.8572,-1.8744,-1.8851,-1.8946,-1.8987,-1.8987,-1.8987,-1.8987,-1.8987,-1.8987,-1.8987,-1.8987,-1.8987,-1.8987,-1.9303,-1.9656,-1.9759,-2.0245,-2.0782,-2.0979,-2.0733,-2.0446,-2.0584,-1.9409,-1.8135,-1.775,-1.7087,-1.6208,-1.5025,-1.5539,-1.6001,-1.5377,-1.6114,-1.6964,-1.753,-1.7679,-1.7882,-1.8344,-1.8921,-1.9485,-1.9947,-2.0424,-2.0735,-2.0751,-2.1611,-2.2354,-2.2754,-2.3118,-2.3476,-2.384,-2.3946,-2.4155,-2.4424,-2.4447,-2.4637,-2.498,-2.5107,-2.5165,-2.5214,-2.5264,-2.5313,-1.0603,-1.1898,-1.3122,-1.3622,-1.3249,-1.2604,-1.1892,-1.0615,-0.9435,-0.8806,-0.8432,-0.7907,-0.6976,-0.7122,-0.7189,-0.6533,-0.7754,-0.9293,-1.0733,-1.1419,-1.2398,-1.4027,-1.3061,-1.2867,-1.4453,-1.5412,-1.6161,-1.6751,-1.7346,-1.7611,-1.7523,-1.8084,-1.8313,-1.8084,-1.8621,-1.8644,-1.8096,-1.8644,-1.8896,-1.8919,-1.9918,-2.0159,-1.97,-1.9688,-1.9413,-1.8885,-1.8368,-1.8096,-1.8096,-1.8313,-1.8422,-1.8422,-1.8691,-1.8798,-1.8798,-1.8946,-1.8987,-1.8987,-1.8987,-1.8987,-1.8987,-1.8987,-1.8987,-1.8987,-1.8987,-1.9105,-1.9235,-1.9235,-1.9708,-2.0283,-2.0557,-2.032,-1.9888,-1.9331,-1.8526,-1.7733,-1.7474,-1.6863,-1.6103,-1.5178,-1.5671,-1.6064,-1.5644,-1.6353,-1.7214,-1.7788,-1.8083,-1.8307,-1.8553,-1.9281,-1.9894,-2.0174,-2.1133,-2.1799,-2.1881,-2.2451,-2.2797,-2.2797,-2.3405,-2.3718,-2.3517,-2.3714,-2.3806,-2.3806,-2.4192,-2.4505,-2.4707,-2.4785,-2.4874,-2.4991,-2.5003,-2.5158,-0.905,-0.9775,-1.0339,-1.0616,-1.0345,-0.9858,-0.9311,-0.8837,-0.8399,-0.8086,-0.7782,-0.7366,-0.6647,-0.6675,-0.6912,-0.723,-0.792,-0.8853,-1.016,-1.0946,-1.1721,-1.261,-1.3213,-1.3935,-1.4773,-1.5109,-1.543,-1.5826,-1.6332,-1.6729,-1.7032,-1.78,-1.8216,-1.8096,-1.8244,-1.8244,-1.8084,-1.8644,-1.908,-1.9447,-1.9769,-2.001,-2.0159,-1.947,-1.9057,-1.8862,-1.8302,-1.8084,-1.8084,-1.7865,-1.7854,-1.7897,-1.7678,-1.7611,-1.771,-1.7765,-1.8038,-1.8321,-1.7918,-1.8038,-1.8375,-1.8375,-1.8375,-1.8483,-1.8869,-1.9052,-1.9052,-1.917,-1.9356,-1.9579,-1.994,-1.9695,-1.9291,-1.9239,-1.8737,-1.8166,-1.7554,-1.722,-1.6781,-1.5799,-1.6126,-1.6402,-1.5957,-1.6617,-1.7394,-1.7961,-1.8433,-1.893,-1.9339,-1.9969,-2.0534,-2.099,-2.1579,-2.1936,-2.1948,-2.2483,-2.2917,-2.3194,-2.3405,-2.3602,-2.3768,-2.3707,-2.3795,-2.4059,-2.4022,-2.4211,-2.4707,-2.4632,-2.4718,-2.4942,-2.4936,-2.5084,-0.7657,-0.8277,-0.8658,-0.8893,-0.8568,-0.8149,-0.8006,-0.7828,-0.7682,-0.7685,-0.7471,-0.7101,-0.6536,-0.6502,-0.675,-0.7345,-0.7725,-0.8494,-0.999,-1.0416,-1.0839,-1.1538,-1.2819,-1.3897,-1.4375,-1.47,-1.501,-1.5352,-1.5884,-1.6285,-1.6581,-1.737,-1.7789,-1.7767,-1.8157,-1.8279,-1.8084,-1.8644,-1.9057,-1.939,-1.9597,-1.9746,-1.9815,-1.9183,-1.8793,-1.8598,-1.8221,-1.7963,0.0,-1.7567,-1.739,-1.7213,-1.6989,-1.6933,-1.7024,-1.7024,-1.7246,-1.7534,-1.7135,-1.7246,-1.7589,-1.7589,-1.7644,-1.7831,-1.8483,-1.8827,-1.8999,-1.9105,-1.9105,-1.9093,-1.9291,-1.9146,-1.8881,-1.8602,-1.8441,-1.8143,-1.7565,-1.7296,-1.6875,-1.6093,-1.6324,-1.6587,-1.6134,-1.6842,-1.772,-1.8444,-1.8887,-1.931,-1.9864,-2.0416,-2.0894,-2.1241,-2.1685,-2.1998,-2.2101,-2.2598,-2.3035,-2.3376,-2.3455,-2.3606,-2.3771,-2.3664,-2.3707,-2.3937,-2.3837,-2.402,-2.4476,-2.4489,-2.4551,-2.4678,-2.4837,-2.4987,0.0,-0.7271,-0.7809,-0.8101,-0.7701,-0.7343,-0.7662,-0.7412,0.0,-0.7539,-0.7353,-0.6989,-0.6555,-0.6524,-0.6676,-0.7002,-0.7442,-0.8307,-1.0127,-1.0009,-1.01,-1.0937,-1.2124,-1.3046,-1.3518,-1.4258,-1.4883,-1.5352,-1.5941,-1.6239,-1.6296,-1.6853,-1.7134,-1.719,-1.825,-1.8553,-1.8041,-1.8588,-1.884,-1.884,-1.9343,-1.932,-1.8771,-1.8737,-1.8463,-1.7975,-1.7975,-1.7667,-1.7146,-1.7213,-1.6933,-1.6436,-1.6528,-1.6574,-1.6574,-1.6574,-1.6631,-1.6631,-1.6574,-1.6631,-1.6631,-1.6631,-1.681,-1.7112,-1.7765,-1.8429,-1.8934,-1.8987,-1.8893,-1.8744,-1.8614,-1.8679,-1.8583,-1.7689,-1.7689,-1.7799,-1.7523,-1.707,-1.6611,-1.616,-1.6443,-1.6723,-1.6428,-1.7183,-1.8164,-1.9176,-1.9384,-1.9609,-2.0128,-2.0715,-2.1086,-2.1134,-2.1628,-2.2032,-2.2282,-2.2764,-2.3133,-2.3346,-2.3544,-2.3646,-2.3594,-2.3602,-2.358,-2.3522,-2.3728,-2.3919,-2.4078,-2.4338,-2.4409,-2.4303,-2.4673,-2.4903,-0.4914,0.0,-0.6037,-0.5896,-0.5905,-0.5973,0.0,-0.6207,-0.6427,-0.673,-0.6548,-0.6342,-0.6351,-0.6372,-0.669,-0.7624,-0.8283,-0.9044,-1.0107,-1.0947,-1.1469,-1.1558,-1.2622,-1.3553,-1.4019,-1.4346,-1.4765,-1.5352,-1.5526,-1.5826,-1.6296,-1.64,-1.674,-1.719,-1.7467,-1.7534,-1.7412,-1.8193,-1.8497,-1.8198,-1.832,-1.8192,-1.7817,-1.7209,-1.6871,-1.6708,-1.6708,-1.6652,-1.6472,-1.6151,-1.5931,-1.5758,-1.5536,-1.542,-1.542,-1.542,-1.57,-1.6036,-1.5584,-1.57,-1.6093,-1.6093,-1.6425,-1.68,-1.6968,-1.7644,-1.8429,-1.8881,-1.8827,-1.8614,-1.8614,-1.8572,-1.8313,-1.7634,-1.7623,-1.7623,-1.7088,-1.7169,-1.7137,-1.6644,-1.7243,-1.7885,-1.7965,-1.8519,-1.9051,-1.9329,-2.0138,-2.0553,-2.0224,-2.1054,-2.1688,-2.1718,-2.2003,-2.2237,-2.2282,-2.2422,-2.2632,-2.2985,-2.3212,-2.3399,-2.3594,-2.3638,-2.3685,-2.3728,-2.3939,-2.3979,-2.3878,-2.4135,-2.4266,-2.4303,-2.4389,-2.4737,-0.3992,-0.4646,-0.5274,-0.5289,-0.5407,-0.5543,-0.5703,-0.5914,-0.6143,-0.6273,-0.6193,-0.6098,-0.6121,-0.6151,-0.6539,-0.7687,-0.81,-0.8629,-0.9691,-1.0881,-1.172,-1.1824,-1.2705,-1.3571,-1.4282,-1.4469,-1.4765,-1.5352,-1.5478,-1.572,-1.6077,-1.6181,-1.641,-1.6807,-1.6637,-1.674,-1.719,-1.744,-1.7513,-1.7331,-1.709,-1.6917,-1.6732,-1.6243,-1.6073,-1.6073,-1.6187,-1.6073,-1.5796,-1.5584,-1.5362,-1.5079,-1.4862,-1.4743,-1.4743,-1.4743,-1.497,-1.5196,-1.4852,-1.497,-1.5245,-1.5352,-1.5565,-1.5843,-1.6244,-1.6698,-1.7213,-1.7886,-1.7941,-1.7776,-1.7776,-1.7843,-1.7733,-1.6955,-1.7056,-1.729,-1.6864,-1.6976,-1.7235,-1.7299,-1.7821,-1.83,-1.8735,-1.9107,-1.95,-2.0142,-2.0998,-2.1574,-2.1502,-2.2297,-2.2884,-2.2959,-2.3083,-2.3114,-2.2903,-2.2886,-2.2939,-2.3045,-2.323,-2.3417,-2.3634,-2.3678,-2.3721,-2.375,-2.3899,-2.3919,-2.3795,-2.4018,-2.4317,-2.4722,-2.4838,-2.5227,-0.3495,-0.4168,-0.4934,-0.5245,-0.5413,-0.5561,-0.5835,-0.5952,-0.5991,-0.5986,-0.6033,-0.6035,-0.5968,-0.6051,-0.6504,-0.7534,-0.7681,-0.809,-0.9234,-1.0539,-1.1495,-1.184,-1.2596,-1.3398,-1.43,-1.4469,-1.4765,-1.5362,-1.5546,-1.573,-1.5798,-1.5894,-1.6066,-1.6202,-1.5788,-1.6009,-1.6842,-1.6492,-1.6322,-1.6265,-1.5843,-1.5613,-1.5613,-1.5555,-1.5507,-1.5555,-1.5728,-1.5507,-1.5059,-1.5118,-1.4902,-1.4455,-1.4455,-1.4455,-1.4515,-1.4515,-1.4515,-1.4515,-1.4515,-1.4515,-1.4506,-1.4606,-1.4656,-1.4775,-1.5468,-1.5642,-1.5758,-1.6379,-1.6662,-1.6708,-1.6652,-1.6933,-1.6989,-1.6093,-1.6389,-1.6786,-1.6637,-1.6694,-1.7032,-1.7755,-1.8025,-1.843,-1.9095,-1.9279,-1.9705,-2.0797,-2.1575,-2.2232,-2.2713,-2.3381,-2.3935,-2.4161,-2.4225,-2.4099,-2.3743,-2.375,-2.3684,-2.3495,-2.3448,-2.3504,-2.3656,-2.3678,-2.37,-2.37,-2.3771,-2.3795,-2.3816,-2.4044,-2.4525,-2.522,-2.5536,-2.5958,-0.3528,-0.3899,-0.4301,-0.4522,-0.4964,-0.534,-0.5404,-0.5474,-0.5491,-0.5435,-0.564,-0.5937,-0.62,-0.6582,-0.703,-0.7517,-0.8336,-0.9016,-0.9328,-1.0856,-1.172,-1.1277,-1.2521,-1.3571,-1.3881,-1.43,-1.4715,-1.5205,-1.5498,-1.5614,-1.5294,-1.541,-1.541,-1.5128,-1.5069,-1.5128,-1.5235,-1.5468,-1.541,-1.5118,-1.5099,-1.4914,-1.4697,-1.441,-1.43,-1.43,-1.43,-1.424,-1.4181,-1.4181,-1.4258,-1.4327,-1.4327,-1.4396,-1.4515,-1.4515,-1.4515,-1.4515,-1.4515,-1.4515,-1.4515,-1.4506,-1.4506,-1.4565,-1.4684,-1.4488,-1.43,-1.441,-1.5449,-1.6425,-1.6053,-1.6234,-1.6368,-1.5989,-1.5989,-1.5989,-1.57,-1.6228,-1.6807,-1.6976,-1.7578,-1.8377,-1.9236,-1.938,-1.9509,-1.9872,-2.0782,-2.1495,-2.1633,-2.2561,-2.3468,-2.4129,-2.4337,-2.4397,-2.4214,-2.4333,-2.4521,-2.4715,-2.3727,-2.3289,-2.3539,-2.3634,-2.37,-2.37,-2.3771,-2.3816,-2.3896,-2.4587,-2.5051,-2.5301,-2.5804,-2.6303,-0.323,-0.3626,-0.4089,-0.4501,-0.5138,-0.5643,-0.5643,-0.5833,-0.5977,-0.5677,-0.5924,-0.6221,-0.6293,-0.6799,-0.7494,-0.8332,-0.8863,-0.9307,-0.9658,-1.0516,-1.1154,-1.128,-1.2241,-1.316,-1.3691,-1.4114,-1.4547,-1.5029,-1.4951,-1.4883,-1.4815,-1.4628,-1.4442,-1.4401,-1.4172,-1.4052,-1.4052,-1.3923,-1.3983,-1.4231,-1.3795,-1.3554,-1.345,-1.3459,-1.3467,-1.3467,-1.3769,-1.389,-1.389,-1.395,-1.407,-1.4139,-1.4139,-1.4198,-1.4258,-1.4327,-1.4387,-1.4396,-1.4446,-1.4446,-1.4396,-1.4455,-1.4446,-1.4396,-1.4455,-1.4198,-1.383,-1.3511,-1.4094,-1.4796,-1.4796,-1.5138,-1.5323,-1.4932,-1.5108,-1.5274,-1.4845,-1.5264,-1.5864,-1.6093,-1.6652,-1.7368,-1.8132,-1.8626,-1.9092,-1.9547,-2.0664,-2.1723,-2.2393,-2.3266,-2.4216,-2.5229,-2.5296,-2.5112,-2.4697,-2.4712,-2.463,-2.4462,-2.454,-2.4253,-2.3529,-2.4436,-2.4669,-2.41,-2.4628,-2.4825,-2.467,-2.5242,-2.5778,-2.6281,-2.6651,-2.7058,-0.2979,-0.3318,-0.378,-0.4437,-0.507,-0.5655,-0.6041,-0.6264,-0.6392,-0.6306,-0.6558,-0.6782,-0.6705,-0.7245,-0.8042,-0.9047,-0.9219,-0.942,-0.9947,-1.0272,-1.0701,-1.1309,-1.2116,-1.2905,-1.3531,-1.3956,-1.4309,-1.4666,-1.4401,-1.4154,-1.4103,-1.3726,-1.3597,-1.3674,-1.3321,-1.3086,-1.3086,-1.2666,-1.2728,-1.339,-1.2781,-1.2482,-1.249,-1.2797,-1.2858,-1.292,-1.3407,-1.3588,-1.3528,-1.3761,-1.3881,-1.3821,-1.395,-1.395,-1.401,-1.4139,-1.4207,-1.4267,-1.4327,-1.4327,-1.4267,-1.4327,-1.4327,-1.4207,-1.4258,-1.3959,-1.3467,-1.2956,-1.2895,-1.3025,-1.364,-1.4034,-1.4264,-1.4061,-1.4282,-1.4433,-1.4127,-1.4423,-1.4845,-1.5313,-1.5843,-1.6337,-1.7014,-1.7752,-1.8478,-1.9024,-2.0317,-2.1553,-2.2643,-2.3595,-2.4634,-2.575,-2.5868,-2.5651,-2.5062,-2.5034,-2.4813,-2.4224,-2.5121,-2.5141,-2.3945,-2.5194,-2.5508,-2.4703,-2.5339,-2.557,-2.5339,-2.59,-2.6518,-2.718,-2.7513,-2.7828,-0.2949,-0.2943,-0.2964,-0.3753,-0.4241,-0.4908,-0.6391,-0.6332,-0.6215,-0.7192,-0.761,-0.7785,-0.7785,-0.8238,-0.8713,-0.912,-0.9302,-0.9517,-0.9947,-1.0537,-1.107,-1.1362,-1.2349,-1.3079,-1.3398,-1.3888,-1.4061,-1.3812,-1.4043,-1.3855,-1.2948,-1.3009,-1.2887,-1.2605,-1.2605,-1.2544,-1.2544,-1.2243,-1.2305,-1.2605,-1.2544,-1.2482,-1.2482,-1.2544,-1.2552,-1.2552,-1.292,-1.2858,-1.2666,-1.3268,-1.345,-1.339,-1.37,-1.389,-1.401,-1.401,-1.401,-1.401,-1.401,-1.401,-1.401,-1.401,-1.401,-1.395,-1.3631,-1.3216,-1.2797,-1.2428,-1.2058,-1.1926,-1.2834,-1.313,-1.3252,-1.3881,-1.37,-1.3442,-1.3502,-1.3897,-1.4414,-1.4845,-1.5313,-1.5843,-1.6472,-1.7202,-1.782,-1.7995,-1.9109,-2.0194,-2.0903,-2.2449,-2.3793,-2.4548,-2.5271,-2.5572,-2.5144,-2.5517,-2.5516,-2.4775,-2.5069,-2.5205,-2.5073,-2.5438,-2.5596,-2.5517,-2.5402,-2.5393,-2.5473,-2.6512,-2.7126,-2.7393,-2.816,-2.8376,-0.2435,-0.273,-0.3135,-0.366,-0.386,-0.432,-0.5689,-0.6111,-0.6484,-0.7435,-0.7537,-0.7568,-0.7935,-0.8546,-0.9062,-0.9318,-0.9465,-0.9621,-0.9947,-1.0418,-1.0817,-1.1077,-1.1461,-1.1894,-1.227,-1.2456,-1.2642,-1.2801,-1.2826,-1.2712,-1.2343,-1.2166,-1.205,-1.1934,-1.1934,-1.1934,-1.1934,-1.1809,-1.1809,-1.1934,-1.1934,-1.1934,-1.1934,-1.2182,-1.2243,-1.2243,-1.2552,-1.2605,-1.2544,-1.2781,-1.2972,-1.3164,-1.3459,-1.364,-1.37,-1.383,-1.389,-1.389,-1.3761,-1.3761,-1.389,-1.3761,-1.3761,-1.383,-1.3571,-1.3155,-1.2744,-1.2367,-1.1934,-1.1747,-1.2421,-1.2474,-1.2466,-1.285,-1.2728,-1.2474,-1.2351,-1.2712,-1.307,-1.3252,-1.3914,-1.4579,-1.4756,-1.5728,-1.6574,-1.709,-1.7972,-1.9165,-2.0611,-2.1403,-2.2345,-2.3917,-2.4545,-2.4839,-2.4726,-2.4918,-2.5041,-2.5104,-2.5881,-2.5974,-2.5237,-2.6184,-2.651,-2.6055,-2.6318,-2.6442,-2.6368,-2.6982,-2.7465,-2.779,-2.794,-2.8065,-0.2213,-0.2582,-0.3041,-0.3418,-0.3505,-0.3793,-0.4952,-0.5668,-0.6443,-0.7534,-0.7542,-0.7504,-0.8044,-0.8446,-0.8769,-0.8967,-0.9256,-0.9517,-0.9784,-1.0205,-1.0514,-1.06,-1.0854,-1.105,-1.1289,-1.1394,-1.1619,-1.1913,-1.1821,-1.169,-1.1732,-1.156,-1.1498,-1.1622,-1.1622,-1.1622,-1.1622,-1.1622,-1.1498,-1.1373,-1.1373,-1.1373,-1.1373,-1.1747,-1.174,-1.1483,-1.1919,-1.1981,-1.1725,-1.1911,-1.2158,-1.2413,-1.2642,-1.2757,-1.2826,-1.2887,-1.2887,-1.2887,-1.2948,-1.2948,-1.3017,-1.3147,-1.3277,-1.3338,-1.3147,-1.285,-1.249,-1.2182,-1.1872,-1.1685,-1.1996,-1.1926,-1.1864,-1.205,-1.1926,-1.1677,-1.156,-1.174,-1.2058,-1.2243,-1.2972,-1.358,-1.3769,-1.4805,-1.5776,-1.6291,-1.7213,-1.8394,-1.9686,-2.0414,-2.1498,-2.3372,-2.3846,-2.4116,-2.4276,-2.4416,-2.4661,-2.5005,-2.5908,-2.6117,-2.5554,-2.6609,-2.6968,-2.6454,-2.686,-2.7006,-2.6926,-2.7258,-2.756,-2.7897,-2.784,-2.7869,-0.2429,-0.2456,-0.2517,-0.2984,-0.3046,-0.329,-0.4362,-0.5043,-0.5956,-0.7552,-0.7771,-0.7777,-0.8109,-0.7943,-0.7836,-0.8168,-0.8639,-0.9113,-0.9361,-1.0043,-1.0352,-1.002,-1.0582,-1.0909,-1.0593,-1.094,-1.1165,-1.1108,-1.107,-1.1095,-1.1101,-1.1122,-1.1247,-1.156,-1.1622,-1.1622,-1.1622,-1.156,-1.131,-1.0807,-1.08,-1.08,-1.0807,-1.131,-1.0982,-1.0021,-1.0919,-1.0787,-1.0078,-1.0703,-1.1017,-1.1017,-1.1017,-1.1142,-1.1267,-1.108,-1.0892,-1.0899,-1.1516,-1.1578,-1.1399,-1.2228,-1.2482,-1.2421,-1.2182,-1.2058,-1.1996,-1.1685,-1.156,-1.156,-1.156,-1.1428,-1.1365,-1.174,-1.1435,-1.1122,-1.1247,-1.1303,-1.149,-1.2182,-1.2658,-1.3139,-1.37,-1.4805,-1.5613,-1.5603,-1.6922,-1.7897,-1.7897,-1.9597,-2.1383,-2.2922,-2.32,-2.3434,-2.3739,-2.4234,-2.4498,-2.4498,-2.4871,-2.5422,-2.6193,-2.659,-2.6774,-2.6808,-2.6725,-2.6808,-2.7007,-2.7258,-2.7487,-2.7701,-2.7982,-2.7936,-0.2058,-0.2378,-0.2698,-0.2747,-0.3278,-0.3886,-0.4341,-0.4824,-0.5429,-0.6486,-0.7235,-0.767,-0.7461,-0.7836,-0.8209,-0.8221,-0.8427,-0.8633,-0.8837,-0.9197,-0.9458,-0.9465,-0.9432,-0.9528,-0.9755,-0.9632,-0.9642,-0.9897,-1.0359,-1.0639,-1.073,-1.1064,-1.1373,-1.156,-1.1622,-1.1622,-1.1622,-1.0982,-1.0598,-1.0471,-0.9824,-0.9767,-1.0218,-1.0401,-1.0275,-1.0021,-1.0275,-1.0212,-1.0015,-1.0451,-1.064,-1.064,-1.0892,-1.1017,-1.108,-1.0752,-1.062,-1.0557,-1.0305,-1.0249,-1.0438,-1.0954,-1.1274,-1.1406,-1.1358,-1.1303,-1.124,-1.0661,-1.073,-1.0926,-1.0555,-1.0737,-1.1052,-1.1365,-1.1178,-1.0933,-1.1122,-1.1185,-1.1247,-1.156,-1.1981,-1.2413,-1.2666,-1.3631,-1.4519,-1.5031,-1.5776,-1.6698,-1.7788,-1.9374,-2.0568,-2.101,-2.2072,-2.2801,-2.3009,-2.3653,-2.4151,-2.4498,-2.4605,-2.5075,-2.5947,-2.6139,-2.6418,-2.6774,-2.6725,-2.6808,-2.7007,-2.7087,-2.7324,-2.7701,-2.76,-2.76,-0.2115,-0.2475,-0.2864,-0.2955,-0.354,-0.419,-0.459,-0.5014,-0.5466,-0.5927,-0.6539,-0.6923,-0.6923,-0.7241,-0.7563,-0.7729,-0.7943,-0.8156,-0.8256,-0.8666,-0.8928,-0.8791,-0.8784,-0.8851,-0.8984,-0.8786,-0.8848,-0.9315,-0.9673,-1.0103,-1.0583,-1.0833,-1.1119,-1.149,-1.1108,-1.0982,-1.0982,-1.0212,-0.9697,-0.9442,-0.893,-0.8801,-0.8994,-0.9576,-0.9576,-0.9192,-0.9326,-0.939,-0.939,-0.9646,-0.9703,-0.9703,-0.9958,-1.0078,-1.0078,-0.9685,-0.9488,-0.936,-0.9046,-0.9046,-0.9169,-0.9748,-1.0066,-1.0199,-1.0212,-1.0212,-1.0148,-0.9697,-0.9767,-0.9964,-0.9913,-1.0034,-1.0281,-1.0674,-1.0681,-1.0681,-1.087,-1.0933,-1.1059,-1.1185,-1.1615,-1.1988,-1.2174,-1.285,-1.3563,-1.4076,-1.4845,-1.5833,-1.7268,-1.8209,-1.9036,-1.9659,-2.0529,-2.137,-2.21,-2.2905,-2.3465,-2.3782,-2.4151,-2.4735,-2.5561,-2.5795,-2.6049,-2.6401,-2.6624,-2.6775,-2.6959,-2.6992,-2.7152,-2.7461,-2.7359,-2.7407,-0.2416,-0.2683,-0.3026,-0.3444,-0.3817,-0.4237,-0.4935,-0.5449,-0.574,-0.574,-0.5795,-0.5955,-0.6544,-0.6431,-0.6426,-0.6977,-0.7402,-0.767,-0.767,-0.8349,-0.8672,-0.8215,-0.8468,-0.8626,-0.8421,-0.8421,-0.859,-0.9123,-0.917,-0.9586,-1.0425,-1.0421,-1.058,-1.1128,-1.0362,-0.9926,-0.9888,-0.9244,-0.8608,-0.8166,-0.8102,-0.7782,-0.7456,-0.8748,-0.8812,-0.7987,-0.8317,-0.8452,-0.8452,-0.8517,-0.8517,-0.8517,-0.8517,-0.8582,-0.8641,-0.8117,-0.7792,-0.7661,-0.7917,-0.7842,-0.7707,-0.8608,-0.8865,-0.886,-0.893,-0.893,-0.893,-0.886,-0.8737,-0.8801,-0.9448,-0.9378,-0.9314,-0.9786,-1.0047,-1.0301,-1.0498,-1.0681,-1.0807,-1.0996,-1.1435,-1.174,-1.1864,-1.2343,-1.2773,-1.2948,-1.4076,-1.5245,-1.6327,-1.6564,-1.7192,-1.8584,-1.8899,-1.9584,-2.0962,-2.2007,-2.2603,-2.2603,-2.3523,-2.4343,-2.4958,-2.5481,-2.5779,-2.5852,-2.6401,-2.6472,-2.6017,-2.6068,-2.5799,-2.523,-2.6013,-2.6362,-0.2074,-0.2536,-0.3093,-0.3262,-0.3864,-0.4606,-0.5152,-0.5324,-0.5411,-0.5411,-0.5631,-0.585,-0.5955,-0.6327,-0.6647,-0.6756,-0.7025,-0.7246,-0.7365,-0.7622,-0.783,-0.7836,-0.7996,-0.8162,-0.8374,-0.8421,-0.8559,-0.8844,-0.9057,-0.9354,-0.9707,-0.9935,-1.0018,-0.9997,-0.9758,-0.955,-0.9244,-0.8415,-0.7902,-0.7772,-0.7129,-0.6745,-0.6679,-0.7521,-0.7782,-0.7652,-0.7987,-0.8117,-0.8117,-0.8382,-0.8517,-0.8517,-0.8517,-0.8382,-0.8117,-0.7722,-0.7396,-0.7077,-0.6876,-0.6741,-0.6806,-0.7582,-0.7842,-0.7842,-0.8107,-0.8236,-0.8172,-0.7907,-0.7967,-0.8156,-0.8037,-0.8161,-0.835,-0.8748,-0.946,-1.011,-1.011,-1.0301,-1.0498,-1.0688,-1.087,-1.1052,-1.1247,-1.1794,-1.2343,-1.2948,-1.3768,-1.4405,-1.4495,-1.5486,-1.6218,-1.6469,-1.7986,-1.9108,-1.9482,-2.0775,-2.1663,-2.1758,-2.2529,-2.3274,-2.391,-2.498,-2.5779,-2.6262,-2.6556,-2.4197,-1.9147,-1.9132,-1.6243,-1.0841,-1.6729,-1.9126,-0.1947,-0.2421,-0.3006,-0.3719,-0.4096,-0.4498,-0.4888,-0.5022,-0.5022,-0.5022,-0.5297,-0.5631,-0.5795,-0.6164,-0.6539,-0.6647,-0.6918,-0.7144,-0.7257,-0.7413,-0.7574,-0.767,-0.7842,-0.8008,-0.8368,-0.8421,-0.8533,-0.8758,-0.8945,-0.9146,-0.9453,-0.9323,-0.924,-0.9339,-0.8681,-0.8199,-0.8021,-0.7216,-0.6895,-0.6985,-0.6455,-0.6205,-0.6355,-0.6963,-0.733,-0.7521,-0.7657,-0.7787,-0.7787,-0.7922,-0.8117,-0.8252,-0.8252,-0.8182,-0.7987,-0.7657,-0.7265,-0.6881,-0.6486,-0.642,-0.6482,-0.6876,-0.7003,-0.7003,-0.7199,-0.7204,-0.7199,-0.6933,-0.6929,-0.6994,-0.7064,-0.7186,-0.7377,-0.7837,-0.8683,-0.946,-0.9856,-1.0053,-1.018,-1.0301,-1.0428,-1.0618,-1.0814,-1.1247,-1.1732,-1.2143,-1.2549,-1.2777,-1.2769,-1.3408,-1.4173,-1.4877,-1.5966,-1.6972,-1.7816,-1.9327,-2.0217,-2.0304,-2.1431,-2.2639,-2.3766,-2.4491,-2.5293,-2.6245,-2.6556,-2.3343,-1.652,-1.6533,-1.2833,-0.5866,-0.9794,-1.1541,-0.181,-0.2236,-0.2841,-0.4061,-0.4171,-0.408,-0.4415,-0.4501,-0.4577,-0.4522,-0.4908,-0.5407,-0.5686,-0.6,-0.6317,-0.6593,-0.6864,-0.7139,-0.7257,-0.7413,-0.7515,-0.767,-0.7788,-0.8008,-0.8368,-0.8421,-0.8533,-0.8758,-0.8804,-0.8965,-0.9378,-0.865,-0.8433,-0.8753,-0.748,-0.6799,-0.6717,-0.6125,-0.5957,-0.6095,-0.5957,-0.5977,-0.6211,-0.6625,-0.6972,-0.7326,-0.7396,-0.7396,-0.7396,-0.7456,-0.7657,-0.7922,-0.7922,-0.7857,-0.7792,-0.7526,-0.7138,-0.6749,-0.6486,-0.642,-0.642,-0.642,-0.642,-0.642,-0.642,-0.635,-0.635,-0.6214,-0.6017,-0.5951,-0.6412,-0.6338,-0.6404,-0.706,-0.7767,-0.8544,-0.9408,-0.9664,-0.9786,-0.9786,-0.9913,-1.0104,-1.0168,-1.0548,-1.0856,-1.0829,-1.0892,-1.0954,-1.108,-1.1197,-1.1858,-1.3459,-1.3817,-1.4653,-1.627,-1.7696,-1.8531,-1.8596,-2.0154,-2.1853,-2.3519,-2.3979,-2.4814,-2.6175,-2.5339,-2.1418,-1.4327,-1.3167,-0.8866,-0.18,-0.3115,-0.3947,-0.132,-0.1772,-0.2506,-0.3287,-0.3494,-0.3506,-0.3542,-0.3824,-0.4021,-0.3793,-0.4574,-0.5301,-0.5356,-0.5837,-0.6209,-0.6263,-0.6756,-0.7085,-0.7139,-0.7354,-0.7521,-0.7521,-0.7741,-0.8008,-0.8368,-0.8421,-0.8533,-0.8758,-0.8804,-0.8824,-0.8918,-0.8211,-0.7724,-0.757,-0.6788,-0.6245,-0.6065,-0.5824,-0.5711,-0.5795,-0.5711,-0.5912,-0.6207,-0.6236,-0.6394,-0.6548,-0.6881,-0.7012,-0.7007,-0.733,-0.7521,-0.7591,-0.7591,-0.733,-0.7012,-0.7012,-0.6749,-0.6486,-0.642,-0.642,-0.642,-0.642,-0.642,-0.642,-0.642,-0.635,-0.6214,-0.6214,-0.5947,-0.5683,-0.5749,-0.562,-0.5686,-0.64,-0.6593,-0.7051,-0.8361,-0.8807,-0.8865,-0.8865,-0.9058,-0.9052,-0.8597,-0.9186,-0.9582,-0.9116,-0.918,-0.9378,-0.9582,-1.0066,-1.0739,-1.1564,-1.2761,-1.3963,-1.507,-1.5887,-1.6557,-1.6991,-1.849,-2.0135,-2.1926,-2.3318,-2.4853,-2.6573,-2.067,-1.4323,-0.7681,-0.1532,0.528,1.2304,0.5981,0.3222,-0.1523,-0.2046,-0.2653,-0.3255,-0.3233,-0.312,-0.3247,-0.3436,-0.355,-0.3508,-0.4076,-0.4577,-0.4577,-0.5124,-0.5664,-0.5823,-0.6426,-0.6977,-0.7198,-0.7359,-0.7521,-0.7622,-0.7788,-0.8008,-0.8368,-0.8421,-0.8533,-0.8758,-0.8474,-0.8309,-0.8309,-0.7396,-0.6797,-0.6563,-0.6016,-0.5611,-0.535,-0.5412,-0.5469,-0.5473,-0.5727,-0.5812,-0.5852,-0.6117,-0.6245,-0.642,-0.6552,-0.6618,-0.6618,-0.6811,-0.7007,-0.7138,-0.7138,-0.7073,-0.6881,-0.6881,-0.6683,-0.642,-0.642,-0.642,-0.642,-0.642,-0.642,-0.6416,-0.6284,-0.6214,-0.6148,-0.5947,-0.5749,-0.555,-0.5488,-0.5425,-0.5495,-0.5752,-0.6141,-0.6593,-0.7181,-0.7637,-0.8027,-0.8091,-0.8221,-0.8221,-0.8086,-0.8409,-0.8479,-0.8027,-0.8156,-0.8226,-0.8107,-0.8479,-0.9105,-1.0186,-1.0857,-1.1705,-1.2899,-1.3826,-1.4634,-1.5187,-1.6458,-1.8538,-2.1569,-2.2116,-2.3651,-2.6315,-1.9947,-1.3159,-0.6225,0.0863,0.8087,1.5148,1.2172,1.0602,-0.1611,-0.2078,-0.2444,-0.2927,-0.2839,-0.2666,-0.277,-0.2918,-0.305,-0.2968,-0.3337,-0.3633,-0.3577,-0.4298,-0.5011,-0.5277,-0.5878,-0.6431,-0.6923,-0.7139,-0.7354,-0.7622,-0.7788,-0.8002,-0.8321,-0.8374,-0.8421,-0.8533,-0.8143,-0.7818,-0.7711,-0.6691,-0.6105,-0.6,-0.5458,-0.5124,-0.4897,-0.5073,-0.5187,-0.5187,-0.5505,-0.5643,-0.562,-0.5888,-0.6132,-0.6351,-0.6396,-0.642,-0.642,-0.642,-0.6552,-0.6749,-0.6749,-0.6749,-0.6749,-0.6749,-0.6618,-0.642,-0.642,-0.642,-0.642,-0.642,-0.635,-0.635,-0.628,-0.6148,-0.6013,-0.5752,-0.5617,-0.5554,-0.5428,-0.5428,-0.5428,-0.5428,-0.5752,-0.6203,-0.6334,-0.6793,-0.712,-0.712,-0.7251,-0.7381,-0.7312,-0.7512,-0.7512,-0.699,-0.7125,-0.719,-0.7003,-0.7199,-0.7772,-0.8982,-0.9175,-0.9742,-1.1066,-1.1897,-1.2728,-1.3528,-1.4313,-1.6229,-1.9625,-2.0213,-2.1783,-2.4617,-1.9355,-1.3097,-0.6029,0.1075,0.8086,1.4883,1.5303,1.5001,-0.1225,-0.1366,-0.1443,-0.1725,-0.2011,-0.2164,-0.1855,-0.2223,-0.245,-0.1923,-0.2304,-0.2689,-0.2352,-0.3516,-0.4519,-0.4574,-0.4893,-0.5378,-0.5982,-0.6421,-0.6864,-0.7461,-0.7735,-0.8008,-0.8168,-0.8321,-0.8209,-0.7777,-0.7824,-0.7664,-0.7187,-0.6436,-0.6,-0.6,-0.5285,-0.4901,-0.4897,-0.4794,-0.4794,-0.4901,-0.4916,-0.5173,-0.5612,-0.5628,-0.5827,-0.6232,-0.6343,-0.642,-0.642,-0.642,-0.642,-0.6416,-0.6416,-0.6416,-0.6416,-0.6416,-0.642,-0.642,-0.642,-0.642,-0.642,-0.642,-0.6284,-0.6214,-0.635,-0.6017,-0.5683,-0.5822,-0.5627,-0.5428,-0.5428,-0.5428,-0.5428,-0.5428,-0.5428,-0.562,-0.6268,-0.6396,-0.6268,-0.5624,-0.6009,-0.6268,-0.5624,-0.6214,-0.6539,-0.5815,-0.5885,-0.6086,-0.642,-0.6609,-0.706,-0.7962,-0.8161,-0.8796,-1.0166,-1.0292,-1.0857,-1.2004,-1.1905,-1.2578,-1.4313,-1.7201,-1.9381,-2.0739,-1.7472,-1.2473,-0.5804,0.1321,0.7994,1.407,1.4222,1.4163,-0.1214,-0.1354,-0.146,-0.1665,-0.1867,-0.2082,-0.2051,-0.2223,-0.2345,-0.1995,-0.2329,-0.2495,-0.1954,-0.2923,-0.3855,-0.4018,-0.4508,-0.4999,-0.5378,-0.5706,-0.6036,-0.6372,-0.6588,-0.6799,-0.7015,-0.7069,-0.7117,-0.7182,-0.6858,-0.6642,-0.6534,-0.5891,-0.5513,-0.5399,-0.5179,-0.5011,-0.4897,-0.4743,-0.4743,-0.4897,-0.5011,-0.51,-0.5278,-0.5502,-0.5681,-0.5811,-0.5998,-0.6209,-0.642,-0.642,-0.642,-0.6416,-0.6284,-0.635,-0.6416,-0.6284,-0.635,-0.642,-0.642,-0.642,-0.642,-0.642,-0.635,-0.6284,-0.6152,-0.5954,-0.5756,-0.5624,-0.5495,-0.5428,-0.5428,-0.5428,-0.5428,-0.5428,-0.5428,-0.5491,-0.5686,-0.5752,-0.5686,-0.5428,-0.5624,-0.5686,-0.5428,-0.569,-0.5756,-0.5491,-0.562,-0.5752,-0.5885,-0.6083,-0.6412,-0.6933,-0.7129,-0.7517,-0.8215,-0.8796,-0.9488,-1.0312,-1.0329,-1.1299,-1.3559,-1.4061,-1.5141,-1.6863,-1.4304,-1.0748,-0.6253,0.0908,0.751,1.358,1.3932,1.3812,-0.1179,-0.1343,-0.1439,-0.1613,-0.1753,-0.1921,-0.2074,-0.2221,-0.2217,-0.2061,-0.2292,-0.2405,-0.1885,-0.2529,-0.3147,-0.3236,-0.3738,-0.4233,-0.4666,-0.4937,-0.5324,-0.5773,-0.5928,-0.6086,-0.6308,-0.6362,-0.6416,-0.6529,-0.6213,-0.5946,-0.5887,-0.5513,-0.5242,-0.5014,-0.4959,-0.4846,-0.4791,-0.4684,-0.4688,-0.4846,-0.4904,-0.5014,-0.5018,-0.5241,-0.5441,-0.5566,-0.5687,-0.5904,-0.6241,-0.6241,-0.6209,-0.6201,-0.6132,-0.6167,-0.6218,-0.6148,-0.6214,-0.635,-0.635,-0.635,-0.635,-0.635,-0.6218,-0.6086,-0.5954,-0.5826,-0.5693,-0.5491,-0.5425,-0.5428,-0.5428,-0.5359,-0.5292,-0.5362,-0.5359,-0.5292,-0.5362,-0.5428,-0.5428,-0.5428,-0.5428,-0.5428,-0.5428,-0.5428,-0.5428,-0.5428,-0.5491,-0.5554,-0.5554,-0.5686,-0.5954,-0.6354,-0.621,-0.6342,-0.7134,-0.7381,-0.7952,-0.8988,-0.8581,-0.9205,-1.1204,-1.1101,-1.1658,-1.2985,-1.259,-0.9953,-0.5015,0.0387,0.6339,1.2642,1.2948,1.2956,0.0,0.0,0.0,-0.1533,-0.1603,-0.1678,-0.1946,-0.2076,-0.2123,-0.1837,-0.2104,-0.2311,-0.2015,-0.2336,-0.2525,-0.2225,-0.2575,-0.3135,-0.3898,-0.4226,-0.4721,-0.5609,-0.5873,-0.5982,-0.615,-0.6253,-0.6199,-0.5773,-0.5891,-0.5786,-0.5297,-0.5297,-0.5183,-0.4897,-0.4625,-0.4519,-0.4519,-0.4519,-0.4574,-0.4688,-0.4691,-0.4743,-0.4897,-0.4897,-0.5102,-0.5385,-0.5385,-0.5592,-0.5872,-0.5884,-0.5928,-0.5891,-0.5899,-0.5868,-0.5877,-0.5885,-0.6017,-0.6207,-0.621,-0.621,-0.621,-0.621,-0.5947,-0.5617,-0.5822,-0.5693,-0.5425,-0.555,-0.5488,-0.5428,-0.5362,-0.5226,-0.5156,-0.5359,-0.5223,-0.5156,-0.5359,-0.5362,-0.5362,-0.5428,-0.5428,-0.5428,-0.5428,-0.5428,-0.5428,-0.5428,-0.5428,-0.5362,-0.5362,-0.5488,-0.5749,-0.6284,-0.5415,-0.5411,-0.7003,-0.6199,-0.6322,-0.7972,-0.6724,-0.6199,-0.6793,-0.8329,-0.9162,-0.9162,-1.2295,-0.9974,-0.2008,-0.0176,0.4345,1.1267,1.1274,1.1655,-0.0723,0.0,0.0,0.0,0.0,0.0,-0.1703,-0.1792,-0.1824,-0.1759,-0.2029,-0.2108,-0.1735,-0.2096,-0.2381,-0.2145,-0.2536,-0.3026,-0.3297,-0.3519,-0.3852,-0.4291,-0.4457,-0.4625,-0.4739,-0.4901,-0.5011,-0.5014,-0.512,-0.5175,-0.5014,-0.5014,-0.4959,-0.4743,-0.4688,-0.4577,-0.4519,-0.4519,-0.4519,-0.4574,-0.4632,-0.4743,-0.4743,-0.4846,-0.4923,-0.5027,-0.5027,-0.511,-0.5227,-0.5719,-0.5852,-0.5724,-0.5719,-0.5598,-0.5568,-0.5665,-0.5741,-0.5853,-0.6106,-0.6083,-0.602,-0.6148,-0.6017,-0.5822,-0.5686,-0.5617,-0.5554,-0.5488,-0.5428,-0.5362,-0.5223,-0.5226,-0.5226,-0.503,-0.5027,-0.509,-0.496,-0.4964,-0.503,-0.5362,-0.5428,-0.5428,-0.5428,-0.5428,-0.5428,-0.5428,-0.5428,-0.5226,-0.4688,-0.4622,-0.4619,-0.4556,-0.4486,-0.455,-0.4878,-0.5074,-0.5401,-0.5734,-0.5734,-0.5672,-0.5613,-0.6136,-0.6169,-0.5723,-0.5209,-0.3505,-0.0579,-0.109,0.2656,1.0395,1.0829,1.1205,-0.0452,-0.0595,-0.0683,-0.086,0.0,0.0,-0.1448,-0.1589,-0.171,-0.1769,-0.192,-0.1982,-0.1753,-0.2061,-0.2287,-0.2222,-0.2465,-0.2765,-0.3063,-0.3188,-0.3411,-0.3741,-0.3852,-0.3965,-0.4193,-0.4301,-0.4467,-0.4688,-0.4794,-0.4846,-0.4897,-0.4846,-0.4794,-0.4691,-0.4632,-0.4574,-0.4519,-0.4519,-0.4519,-0.4519,-0.4574,-0.4632,-0.4632,-0.468,-0.4791,-0.4794,-0.4794,-0.4846,-0.4916,-0.5339,-0.5412,-0.5366,-0.5339,-0.524,-0.5182,-0.5297,-0.5367,-0.549,-0.5709,-0.568,-0.5619,-0.5743,-0.5664,-0.5524,-0.5455,-0.5436,-0.5488,-0.5428,-0.5359,-0.5226,-0.5024,-0.5027,-0.5027,-0.4831,-0.4827,-0.4891,-0.4827,-0.4831,-0.4897,-0.5096,-0.5163,-0.516,-0.5292,-0.5292,-0.5226,-0.4957,-0.4957,-0.4688,-0.3951,-0.3818,-0.3885,-0.3882,-0.3549,-0.3549,-0.3944,-0.401,-0.4143,-0.4475,-0.4938,-0.514,-0.508,-0.5084,-0.4891,-0.45,-0.3274,-0.1732,0.0,0.0379,0.3638,0.9506,1.0514,1.1017,-0.0205,-0.0259,-0.0302,-0.0446,-0.0644,0.0,-0.1189,-0.1446,-0.1646,-0.1848,-0.1866,-0.1895,-0.1984,-0.207,-0.2199,-0.2238,-0.2327,-0.2554,-0.3014,-0.3042,-0.3264,-0.3718,-0.3776,-0.3892,-0.4135,-0.4193,-0.4304,-0.4636,-0.4688,-0.4739,-0.4846,-0.4739,-0.4688,-0.4688,-0.4574,-0.4519,-0.4519,-0.4519,-0.4519,-0.4519,-0.4519,-0.4519,-0.4519,-0.4519,-0.4574,-0.4688,-0.4688,-0.4684,-0.4787,-0.4842,-0.4878,-0.4905,-0.4922,-0.4883,-0.487,-0.4908,-0.5026,-0.5132,-0.5207,-0.5214,-0.5154,-0.5214,-0.5123,-0.5108,-0.5125,-0.5226,-0.5335,-0.5335,-0.519,-0.4976,-0.4785,-0.4662,-0.4604,-0.4674,-0.4683,-0.4625,-0.4697,-0.4764,-0.4764,-0.4764,-0.4764,-0.4827,-0.5024,-0.5024,-0.4821,-0.4353,-0.422,-0.3885,-0.3149,-0.3082,-0.3213,-0.3673,-0.2744,-0.2546,-0.3673,-0.288,-0.2748,-0.3673,-0.4207,-0.461,-0.4942,-0.4888,-0.4827,-0.4831,-0.4364,-0.2808,-0.0133,0.2845,0.5748,0.8409,0.9863,1.0627,0.0085,-0.0031,-0.01,-0.0299,-0.0387,0.0,-0.0888,-0.1033,-0.118,-0.1644,-0.1733,-0.1761,-0.189,-0.1923,-0.1964,-0.2054,-0.2146,-0.2362,-0.2803,-0.2885,-0.3017,-0.3425,-0.3596,-0.3689,-0.3843,-0.4079,-0.4249,-0.4304,-0.4467,-0.4574,-0.4743,-0.4629,-0.4519,-0.4519,-0.4519,-0.4519,-0.4519,-0.4519,-0.4519,-0.4519,-0.4519,-0.4519,-0.4519,-0.4519,-0.4519,-0.4519,-0.4519,-0.4294,-0.3904,-0.4405,-0.465,-0.4748,-0.488,-0.4754,-0.4582,-0.4826,-0.484,-0.481,-0.5111,-0.5097,-0.4979,-0.5157,-0.5057,-0.4982,-0.5094,-0.5152,-0.5111,-0.5054,-0.4905,-0.469,-0.4382,-0.446,-0.4537,-0.428,-0.4421,-0.4558,-0.4434,-0.4367,-0.4367,-0.4367,-0.4631,-0.4831,-0.4827,-0.4495,-0.4161,-0.4095,-0.3687,-0.3149,-0.2414,-0.2347,-0.2281,-0.208,-0.2016,-0.1949,-0.2082,-0.2016,-0.2016,-0.208,-0.3078,-0.3813,-0.402,-0.4688,-0.4957,-0.4831,-0.3754,-0.2538,-0.1129,0.1788,0.4312,0.6457,0.7399,0.8249,0.0331,0.0283,0.0234,0.0162,0.0,0.0,0.0,-0.0571,-0.0853,-0.1329,-0.1425,-0.1507,-0.1858,-0.1844,-0.1844,-0.1935,-0.2027,-0.219,-0.2415,-0.2642,-0.2893,-0.3149,-0.3311,-0.3464,-0.3695,-0.3818,-0.3954,-0.4076,-0.4245,-0.4356,-0.447,-0.4467,-0.4463,-0.4356,-0.4463,-0.4463,-0.4356,-0.4463,-0.4519,-0.4519,-0.4184,-0.407,-0.4015,-0.3735,-0.3624,-0.3624,-0.3624,-0.3403,-0.3181,-0.3458,-0.3627,-0.3747,-0.4435,-0.4643,-0.4536,-0.4633,-0.4643,-0.4646,-0.4775,-0.4807,-0.4691,-0.4803,-0.48,-0.4819,-0.4891,-0.49,-0.4836,-0.459,-0.4482,-0.4366,-0.4122,-0.4165,-0.4227,-0.4102,-0.4226,-0.4355,-0.4287,-0.43,-0.43,-0.43,-0.4159,-0.4023,-0.4156,-0.4025,-0.3692,-0.3019,-0.275,-0.2414,-0.1678,-0.1612,-0.1545,-0.1345,-0.1412,-0.148,-0.1344,-0.1412,-0.148,-0.1344,-0.228,-0.3013,-0.3487,-0.4084,-0.4486,-0.4564,-0.3959,-0.3147,-0.22,-0.0266,0.2192,0.5245,0.6481,0.7668,0.0527,0.0523,0.0536,0.0574,0.0358,0.0106,0.0,0.0,0.0,-0.0996,-0.1108,-0.1244,-0.1653,-0.1695,-0.1705,-0.1817,-0.1905,-0.198,-0.2062,-0.2431,-0.2764,-0.2898,-0.3071,-0.3235,-0.3513,-0.3557,-0.3647,-0.3938,-0.4059,-0.4126,-0.4094,-0.4284,-0.4353,-0.4193,-0.4301,-0.4301,-0.4138,-0.4301,-0.4408,-0.4408,-0.3852,-0.3572,-0.3569,-0.2959,-0.2681,-0.2681,-0.2681,-0.2625,-0.2514,-0.2625,-0.2625,-0.2625,-0.3738,-0.4128,-0.4184,-0.4294,-0.4349,-0.4349,-0.4349,-0.4405,-0.4463,-0.4349,-0.4509,-0.4691,-0.4691,-0.4654,-0.4569,-0.4267,-0.4128,-0.4108,-0.3868,-0.3882,-0.3925,-0.4023,-0.4083,-0.4145,-0.4243,-0.4284,-0.4233,-0.4097,-0.3623,-0.3284,-0.3418,-0.3353,-0.2952,-0.1945,-0.1812,-0.1679,-0.1143,-0.1076,-0.1076,-0.1076,-0.1076,-0.1076,-0.1076,-0.1076,-0.1076,-0.1076,-0.1612,-0.2281,-0.2948,-0.348,-0.3951,-0.43,-0.43,-0.3892,-0.3013,-0.2078,0.0266,0.3909,0.5752,0.7145,0.0621,0.0633,0.0682,0.0595,0.0621,0.0479,0.0035,0.0,-0.0179,-0.0651,0.0,-0.1116,-0.1164,0.0,0.0,-0.1637,-0.1681,-0.1772,-0.191,-0.2139,-0.2379,-0.27,-0.2861,-0.3016,-0.3229,-0.3291,-0.3426,-0.3714,-0.3723,-0.3776,-0.3834,-0.3957,-0.4021,-0.4024,-0.4021,-0.4021,-0.4024,-0.4021,-0.4135,-0.4249,-0.3691,-0.3466,-0.3569,-0.2959,-0.2681,-0.2681,-0.2681,-0.2402,-0.1956,-0.2458,-0.2402,-0.1958,-0.2625,-0.2903,-0.2959,-0.3514,-0.3683,-0.3683,-0.3683,-0.407,-0.4405,-0.3849,-0.4166,-0.4691,-0.4571,-0.4523,-0.4478,-0.413,-0.3929,-0.3786,-0.368,-0.3697,-0.3837,-0.3851,-0.396,-0.4121,-0.4137,-0.4224,-0.4097,-0.342,-0.3284,-0.3215,-0.3215,-0.2348,-0.1546,-0.1412,-0.1144,-0.0944,-0.0876,-0.101,-0.1076,-0.1076,-0.1076,-0.1076,-0.1076,-0.1076,-0.1076,-0.1076,-0.1277,-0.1612,-0.2213,-0.3213,-0.3951,-0.43,-0.43,-0.3961,-0.3149,-0.2144,-0.0468,0.1734,0.3664,0.5196,0.0637,0.0651,0.0663,0.062,0.0628,0.0554,0.0252,0.021,0.0105,-0.0422,0.0,0.0,0.0,0.0,0.0,0.0,-0.1404,-0.1508,-0.1744,-0.1941,-0.2188,-0.2442,-0.2576,-0.2718,-0.2902,-0.2986,-0.3141,-0.326,-0.3404,-0.355,-0.3655,-0.3821,-0.3884,-0.3907,-0.3965,-0.3965,-0.391,-0.3965,-0.3855,-0.3577,-0.2965,-0.2627,-0.24,-0.1789,-0.1567,-0.1679,-0.1679,-0.1512,-0.1288,-0.1568,-0.1512,-0.1288,-0.1568,-0.2069,-0.2736,-0.2959,-0.3292,-0.3572,-0.3181,-0.3458,-0.3904,-0.3292,-0.3548,-0.3987,-0.3764,-0.3704,-0.3707,-0.3769,-0.3733,-0.3691,-0.3638,-0.3621,-0.3615,-0.3331,-0.3341,-0.3337,-0.3009,-0.3353,-0.342,-0.2681,-0.2547,-0.2414,-0.208,-0.1612,-0.1144,-0.0808,-0.0674,-0.0674,-0.0809,-0.0876,-0.0942,-0.1076,-0.1076,-0.1076,-0.1076,-0.1076,-0.1076,-0.0943,-0.1144,-0.1344,-0.1545,-0.2347,-0.3082,-0.3623,-0.3689,-0.3487,-0.3215,-0.2144,-0.0938,0.0335,0.2407,0.4273,0.0662,0.0675,0.0688,0.0641,0.0589,0.0541,0.0398,0.0389,0.0283,-0.0181,-0.0217,0.0,0.0,0.0,-0.07,-0.1036,0.0,-0.1177,-0.1453,-0.1618,-0.1819,-0.219,-0.241,-0.2532,-0.262,-0.2685,-0.2776,-0.2868,-0.299,-0.3144,-0.3343,-0.3519,-0.3596,-0.3577,-0.3669,-0.3633,-0.3463,-0.3522,-0.3299,-0.2796,-0.2183,-0.1792,-0.151,-0.0896,-0.0673,-0.0785,-0.0842,-0.0842,-0.0842,-0.0898,-0.0898,-0.0898,-0.0898,-0.1456,-0.2235,-0.2402,-0.2736,-0.307,-0.2625,-0.2847,-0.3292,-0.2847,-0.3067,-0.3458,-0.2963,-0.2852,-0.2852,-0.3021,-0.3135,-0.3135,-0.3135,-0.3135,-0.3046,-0.2681,-0.2587,-0.2482,-0.2044,-0.2364,-0.2547,-0.1811,-0.1678,-0.1544,-0.0807,-0.0875,-0.0808,-0.027,-0.0337,-0.0472,-0.0674,-0.0606,-0.0673,-0.1009,-0.0874,-0.0874,-0.1009,-0.0942,-0.0875,-0.0674,-0.0875,-0.1076,-0.1076,-0.1544,-0.2281,-0.3149,-0.3015,-0.2813,-0.2609,-0.1607,-0.0738,0.0067,0.1876,0.3542,0.0725,0.0739,0.0786,0.0651,0.0589,0.0536,0.0346,0.0365,0.0347,0.011,-0.0118,-0.0289,-0.0316,-0.0587,0.0,0.0,0.0,0.0,0.0,-0.0944,-0.1241,-0.1997,-0.2319,-0.2503,-0.2512,-0.2379,-0.2376,-0.2514,-0.2526,-0.258,-0.2711,-0.2914,-0.3026,-0.3031,-0.3078,-0.2965,-0.2521,-0.2521,-0.2352,-0.2015,-0.1401,-0.1176,-0.1285,-0.0672,-0.0393,-0.0449,-0.0617,-0.0729,-0.0729,-0.0842,-0.0898,-0.0898,-0.0898,-0.0898,-0.1009,-0.1623,-0.1846,-0.1846,-0.1846,-0.2235,-0.2736,-0.2681,-0.2956,-0.3178,-0.2462,-0.2127,-0.2015,-0.1902,-0.1846,-0.1846,-0.1846,-0.1846,-0.1862,-0.1867,-0.1806,-0.1738,-0.1724,-0.1707,-0.1409,-0.0671,-0.0739,-0.0605,0.0135,0.0067,-0.0067,0.0,-0.0202,-0.0337,-0.0337,-0.0135,-0.0202,-0.0741,-0.0336,-0.0269,-0.0741,-0.0607,-0.0472,-0.0337,-0.0337,-0.0539,-0.1076,-0.1143,-0.1812,-0.3149,-0.248,-0.1809,-0.1136,-0.0201,0.0604,0.1277,0.2278,0.2744,0.078,0.08,0.0851,0.0711,0.0645,0.0584,0.0366,0.03,0.0271,0.0074,0.0,-0.0042,-0.004,-0.0039,0.0,0.0,0.0,0.0,0.0,-0.0858,-0.0948,-0.12,-0.1716,-0.2047,-0.208,-0.2083,-0.2163,-0.2301,-0.2349,-0.2483,-0.2701,-0.2779,-0.288,-0.3018,-0.3006,-0.2787,-0.2296,-0.2296,-0.1847,-0.0952,-0.0897,-0.0673,-0.0448,-0.0336,-0.0336,-0.0393,-0.0449,-0.0561,-0.0729,-0.0729,-0.0842,-0.0898,-0.0898,-0.0898,-0.0898,-0.1121,-0.1456,-0.179,-0.179,-0.1958,-0.2012,-0.1623,-0.1789,-0.2124,-0.1737,-0.1514,-0.1457,-0.1734,-0.179,-0.179,-0.1679,-0.1734,-0.1684,-0.1193,-0.1009,-0.0864,-0.0437,-0.065,-0.0672,0.0,-0.0336,-0.0538,0.0202,0.0135,0.0,0.0,-0.0067,0.0,0.0404,0.0471,0.0605,0.0739,0.0538,0.0269,0.0067,-0.0202,-0.0337,-0.027,-0.0202,-0.0202,-0.0337,-0.0404,-0.0807,-0.1812,-0.1276,-0.0805,-0.0401,0.0335,0.0872,0.1344,0.188,0.228,0.081,0.0829,0.0885,0.0755,0.0735,0.067,0.0436,0.0364,0.0292,0.0159,0.0084,0.0088,0.013,0.0166,0.0,0.0,0.0,0.0,0.0,-0.0535,-0.0558,-0.0582,-0.1208,-0.1663,-0.1686,-0.1861,-0.2028,-0.2125,-0.2172,-0.23,-0.2507,-0.255,-0.2645,-0.2756,-0.2849,-0.2539,-0.179,-0.179,-0.1231,-0.0112,-0.0224,-0.0168,0.0112,0.0,-0.0112,-0.0168,-0.028,-0.0393,-0.0505,-0.0561,-0.0617,-0.0729,-0.0785,-0.0842,-0.0842,-0.0898,-0.1121,-0.1456,-0.1456,-0.1623,-0.1679,-0.1065,-0.112,-0.1398,-0.1009,-0.0842,-0.0785,-0.1064,-0.1175,-0.1119,-0.1008,-0.1008,-0.0955,-0.0512,-0.0238,0.0,0.0313,0.0195,0.0202,0.0539,0.0067,-0.0202,0.0202,0.0135,0.0,0.0,0.0,0.0202,0.0807,0.1008,0.1276,0.1677,0.1208,0.074,0.0336,0.0269,0.0067,-0.0202,-0.0067,0.0,0.0,0.0,-0.0337,-0.1076,-0.047,-0.0067,0.0201,0.1072,0.161,0.1814,0.2016,0.2216]}]]